Date StartTime U_cm/s V_cm/s W_cm/s Ustd_cm/s Vstd_cm/s Wstd_cm/s Uvar_(cm/s)^2 Vvar_(cm/s)^2 Wvar_(cm/s)^2 KE_(m/s)^2 TurbulentKE_(m/s)^2 HorizWindSpeed_cm/s FrictionSpeec_cm/s DragCoef SpeedOfSound_m/s SonicTemperature_C Pressure_mb 
08/23/2013  00:00:00     -130.852      129.281      -31.488       52.535       97.019       32.230     2759.888     9412.669     1038.761        2.402        0.661      183.946       27.811        0.023      344.061       20.611      860.839
08/23/2013  00:01:00     -128.968      100.689       -7.639       66.751       78.036       35.817     4455.651     6089.587     1282.824        1.933        0.591      163.619       37.438        0.052      343.995       20.499      860.837
08/23/2013  00:02:00     -116.441      -34.553       -0.633       67.414       86.774       35.864     4544.649     7529.765     1286.235        1.405        0.668      121.460       27.879        0.053      343.951       20.425      860.836
08/23/2013  00:03:00     -158.759       -5.143      -28.412       49.651       40.790       23.468     2465.268     1663.791      550.742        1.536        0.234      158.842       12.998        0.007      343.946       20.414      860.829
08/23/2013  00:04:00     -128.342      -33.201        2.177       51.081       53.197       22.256     2609.319     2829.938      495.347        1.176        0.297      132.567       17.262        0.017      343.878       20.300      860.803
08/23/2013  00:05:00      -55.565        9.168       -4.099       30.958       38.274       22.910      958.412     1464.912      524.846        0.307        0.147       56.316       12.963        0.053      343.766       20.110      860.783
08/23/2013  00:06:00      -44.586      -30.521        5.320       32.956       44.424       19.166     1086.115     1973.517      367.336        0.319        0.171       54.032       18.525        0.118      343.813       20.191      860.785
08/23/2013  00:07:00     -108.062        0.327       -6.844       48.146       35.605       19.844     2317.990     1267.736      393.799        0.785        0.199      108.063       18.209        0.028      343.793       20.154      860.772
08/23/2013  00:08:00      -93.631       -1.689      -12.060       51.174       30.012       21.773     2618.797      900.735      474.048        0.645        0.200       93.647       21.069        0.051      343.825       20.209      860.778
08/23/2013  00:09:00      -82.233      -26.830      -10.571       34.927       30.520       22.393     1219.899      931.490      501.442        0.512        0.133       86.499       16.222        0.035      343.809       20.181      860.782
08/23/2013  00:10:00      -94.260      -36.360       -7.841       34.279       24.929       16.307     1175.032      621.473      265.924        0.617        0.103      101.029       14.142        0.020      343.739       20.061      860.784
08/23/2013  00:11:00     -104.415       14.505      -10.756       36.793       24.498       19.979     1353.696      600.152      399.141        0.679        0.118      105.417       19.068        0.033      343.765       20.107      860.797
08/23/2013  00:12:00      -84.478        3.532        0.747       41.351       45.996       29.693     1709.927     2115.607      881.680        0.593        0.235       84.552       27.149        0.103      343.714       20.019      860.807
08/23/2013  00:13:00      -34.808      -42.614       16.182       48.337       41.433       25.611     2336.501     1716.687      655.926        0.400        0.235       55.023       32.484        0.349      343.586       19.801      860.816
08/23/2013  00:14:00     -105.450        3.313       -9.485       43.640       28.499       13.964     1904.444      812.220      194.981        0.707        0.146      105.502       10.845        0.011      343.713       20.016      860.804
08/23/2013  00:15:00      -97.967       47.545      -15.252       50.579       39.067       24.896     2558.188     1526.260      619.836        0.840        0.235      108.895       23.638        0.047      343.807       20.177      860.796
08/23/2013  00:16:00      -96.106        4.127       -9.616       41.159       32.430       16.007     1694.104     1051.719      256.229        0.617        0.150       96.195       17.752        0.034      343.814       20.192      860.780
08/23/2013  00:17:00     -103.346       57.011      -26.913       36.732       62.995       20.473     1349.248     3968.359      419.152        1.019        0.287      118.028       22.591        0.037      343.892       20.324      860.779
08/23/2013  00:18:00     -103.216      -60.696       -4.325       47.833       36.048       26.269     2288.026     1299.454      690.054        0.932        0.214      119.740       19.883        0.028      343.851       20.253      860.782
08/23/2013  00:19:00     -152.956      -41.540       -5.854       60.414       42.423       33.766     3649.859     1799.708     1140.130        1.587        0.329      158.496       34.399        0.047      343.779       20.129      860.798
08/23/2013  00:20:00     -104.433       -1.293       -4.495       54.796       46.412       26.159     3002.631     2154.103      684.279        0.838        0.292      104.441       21.014        0.040      343.816       20.195      860.777
08/23/2013  00:21:00     -169.107       12.097      -15.126       43.319       39.796       25.964     1876.545     1583.751      674.110        1.655        0.207      169.540       14.352        0.007      343.810       20.183      860.764
08/23/2013  00:22:00      -96.962       24.244      -22.820       47.918       49.412       31.685     2296.139     2441.559     1003.928        0.812        0.287       99.947       24.182        0.059      343.892       20.325      860.763
08/23/2013  00:23:00     -111.839       21.582      -10.732       46.171       56.180       29.188     2131.760     3156.237      851.953        0.961        0.307      113.902       15.917        0.020      343.875       20.295      860.748
08/23/2013  00:24:00     -157.252      -16.120       -7.720       41.049       64.389       27.610     1685.010     4145.977      762.305        1.582        0.330      158.076       17.862        0.013      343.860       20.267      860.750
08/23/2013  00:25:00     -111.029      -45.700       -7.588       57.210       51.138       32.841     3273.024     2615.087     1078.504        1.072        0.348      120.066       23.014        0.037      343.785       20.141      860.775
08/23/2013  00:26:00      -95.628      -34.430       -8.272       51.173       54.888       23.404     2618.718     3012.662      547.740        0.829        0.309      101.637       18.850        0.034      343.858       20.266      860.791
08/23/2013  00:27:00      -48.699       -2.023       -4.438       37.196       30.131       20.545     1383.556      907.882      422.097        0.255        0.136       48.741       21.120        0.188      343.804       20.175      860.793
08/23/2013  00:28:00      -69.588      -13.923       -3.615       47.418       29.495       27.875     2248.428      869.927      777.023        0.447        0.195       70.967       24.097        0.115      343.759       20.098      860.798
08/23/2013  00:29:00     -133.895      -28.541      -18.261       59.217       35.924       23.808     3506.699     1290.499      566.820        1.222        0.268      136.904       18.698        0.019      343.798       20.164      860.792
08/23/2013  00:30:00     -104.022      -29.333       -6.257       66.146       30.677       28.039     4375.285      941.081      786.197        0.891        0.305      108.079       28.851        0.071      343.732       20.052      860.789
08/23/2013  00:31:00     -145.905      -42.567       -1.594       56.771       61.746       30.778     3222.973     3812.561      947.264        1.554        0.399      151.987       25.627        0.028      343.718       20.025      860.774
08/23/2013  00:32:00      -41.994      -31.239        6.820       52.238       38.099       35.286     2728.804     1451.556     1245.120        0.410        0.271       52.339       30.126        0.331      343.606       19.836      860.781
08/23/2013  00:33:00      -92.333      -76.749       -2.900       59.156       51.677       32.939     3499.424     2670.516     1084.956        1.084        0.363      120.065       30.446        0.064      343.572       19.775      860.797
08/23/2013  00:34:00     -124.470       -8.622        1.667       49.285       47.292       26.248     2428.977     2236.575      688.966        1.046        0.268      124.768       22.659        0.033      343.529       19.705      860.811
08/23/2013  00:35:00     -165.515      -57.486       -5.545       68.961       60.001       33.736     4755.635     3600.073     1138.092        2.011        0.475      175.214       30.032        0.029      343.675       19.951      860.823
08/23/2013  00:36:00     -134.842       -1.263        0.090       82.032       47.959       35.924     6729.324     2300.073     1290.514        1.425        0.516      134.848       39.178        0.084      343.693       19.984      860.845
08/23/2013  00:37:00     -132.370       26.806      -15.406       32.947       47.828       21.851     1085.479     2287.503      477.471        1.116        0.193      135.057       13.367        0.010      343.793       20.156      860.823
08/23/2013  00:38:00     -140.271       21.238      -17.956       25.501       23.913       19.577      650.299      571.834      383.256        1.103        0.080      141.870       15.179        0.011      343.729       20.045      860.802
08/23/2013  00:39:00     -123.789       70.830      -17.124       29.683       27.613       15.997      881.054      762.478      255.905        1.127        0.095      142.620       11.473        0.006      343.724       20.036      860.776
08/23/2013  00:40:00     -106.922      103.381      -19.961       57.314       32.395       20.571     3284.919     1049.420      423.174        1.364        0.238      148.728       23.097        0.024      343.779       20.131      860.759
08/23/2013  00:41:00     -110.683      111.777      -25.092       30.252       31.895       17.056      915.199     1017.264      290.921        1.380        0.111      157.305       15.172        0.009      343.887       20.317      860.748
08/23/2013  00:42:00      -64.505       30.579      -14.238       31.303       28.694       19.390      979.869      823.365      375.988        0.374        0.109       71.386       13.511        0.036      343.789       20.148      860.745
08/23/2013  00:43:00      -86.155        0.585       -7.948       37.551       22.109       15.463     1410.069      488.800      239.107        0.481        0.107       86.157       16.931        0.039      343.846       20.246      860.744
08/23/2013  00:44:00      -64.825       -0.317       -4.359       29.521       13.697       14.335      871.471      187.621      205.505        0.274        0.063       64.826       15.980        0.061      343.832       20.223      860.752
08/23/2013  00:45:00      -55.935      -15.795        3.505       14.817       16.680       12.192      219.536      278.232      148.636        0.202        0.032       58.122        6.478        0.012      343.797       20.162      860.752
08/23/2013  00:46:00      -69.466       -9.467        0.157       15.697       18.742       12.211      246.402      351.252      149.119        0.283        0.037       70.108       10.889        0.024      343.729       20.046      860.753
08/23/2013  00:47:00      -31.326       13.379        8.184       27.419       19.652       14.920      751.797      386.196      222.597        0.129        0.068       34.064       15.379        0.204      343.377       19.446      860.746
08/23/2013  00:48:00       -8.467        4.413        1.677       12.126        9.490       10.033      147.042       90.056      100.668        0.022        0.017        9.548        6.003        0.395      342.982       18.774      860.751
08/23/2013  00:49:00        5.199        2.310        8.445       18.360       10.152       13.161      337.075      103.065      173.201        0.036        0.031        5.689        9.903        3.030      343.159       19.075      860.777
08/23/2013  00:50:00       10.761      -56.785       -0.842       27.017       33.096       16.141      729.941     1095.365      260.529        0.271        0.104       57.796       16.357        0.080      343.318       19.344      860.802
08/23/2013  00:51:00      -51.227      -94.084        4.489       33.842       43.217       19.503     1145.313     1867.723      380.384        0.744        0.170      107.126       16.886        0.025      343.772       20.118      860.828
08/23/2013  00:52:00      -69.994     -107.870        1.688       68.340       56.903       32.535     4670.349     3237.945     1058.521        1.275        0.448      128.589       36.497        0.081      343.733       20.052      860.850
08/23/2013  00:53:00      -21.623      -30.945        1.547       27.536       45.322       22.971      758.248     2054.076      527.666        0.238        0.167       37.751       25.911        0.471      343.540       19.723      860.868
08/23/2013  00:54:00      -39.277      -78.025       -3.383       42.509       39.792       25.812     1806.980     1583.370      666.250        0.585        0.203       87.353       21.405        0.060      343.896       20.330      860.877
08/23/2013  00:55:00      -84.886      -43.544       -8.990       29.390       32.577       19.920      863.760     1061.262      396.810        0.575        0.116       95.403       11.853        0.015      343.861       20.271      860.853
08/23/2013  00:56:00      -90.753      -58.063       -0.226       28.179       33.912       22.872      794.042     1150.025      523.124        0.704        0.123      107.738       19.215        0.032      343.843       20.240      860.815
08/23/2013  00:57:00     -105.081      -29.739       -5.299       53.068       32.126       23.043     2816.232     1032.104      530.961        0.817        0.219      109.208       24.396        0.050      343.867       20.280      860.773
08/23/2013  00:58:00      -74.342      -39.312        4.686       51.005       35.476       23.847     2601.534     1258.521      568.657        0.576        0.221       84.096       22.901        0.074      343.763       20.104      860.768
08/23/2013  00:59:00      -36.275        3.281       15.714       40.888       27.639       18.412     1671.823      763.924      339.009        0.217        0.139       36.423       18.199        0.250      343.427       19.531      860.767
08/23/2013  01:00:00       37.511      -10.355       11.733       24.702       27.413       19.435      610.207      751.458      377.700        0.170        0.087       38.913       14.449        0.138      342.658       18.222      860.789
08/23/2013  01:01:00       48.741       14.621        2.697       23.104       26.305       30.715      533.807      691.951      943.386        0.238        0.108       50.887       19.062        0.140      342.634       18.180      860.828
08/23/2013  01:02:00       80.109       33.213       -0.447       29.850       25.546       24.001      890.993      652.613      576.048        0.482        0.106       86.721        9.243        0.011      342.845       18.540      860.882
08/23/2013  01:03:00       91.640       56.550       16.557       30.786       26.303       33.213      947.776      691.839     1103.074        0.731        0.137      107.684       14.603        0.018      342.926       18.678      860.886
08/23/2013  01:04:00      105.808       59.835       26.223       52.353       30.955       31.317     2740.804      958.236      980.750        1.007        0.234      121.554       19.987        0.027      343.240       19.212      860.871
08/23/2013  01:05:00       42.150       90.035       -4.427       29.858       26.453       14.282      891.513      699.769      203.966        0.585        0.090       99.413       15.522        0.024      343.656       19.920      860.841
08/23/2013  01:06:00       -0.575      100.558       -9.841       20.314       33.854       18.228      412.653     1146.127      332.244        0.605        0.095      100.559       19.020        0.036      343.767       20.113      860.831
08/23/2013  01:07:00       -5.555       94.343       -4.629       33.733       37.323       23.271     1137.898     1393.020      541.553        0.601        0.154       94.507       25.051        0.070      343.599       19.824      860.819
08/23/2013  01:08:00        6.632       83.765       -1.763       23.540       26.419       22.449      554.114      697.952      503.961        0.441        0.088       84.027       14.362        0.029      343.569       19.772      860.808
08/23/2013  01:09:00       33.021       44.799       10.239       21.925       20.967       18.302      480.694      439.617      334.961        0.223        0.063       55.654       14.283        0.066      343.324       19.355      860.805
08/23/2013  01:10:00       31.010       58.919       -3.154       19.612       22.971       17.503      384.617      527.651      306.368        0.283        0.061       66.581       14.540        0.048      343.281       19.282      860.803
08/23/2013  01:11:00       49.042       40.201       13.504       17.453       14.851       16.557      304.619      220.553      274.148        0.250        0.040       63.414        4.364        0.005      343.123       19.013      860.802
08/23/2013  01:12:00       32.465       56.614        4.518       19.926       11.320       12.737      397.033      128.137      162.227        0.248        0.034       65.262        8.453        0.017      343.320       19.347      860.783
08/23/2013  01:13:00       18.424       85.754       -5.736       19.805       30.413       17.499      392.229      924.962      306.223        0.467        0.081       87.710       16.456        0.035      343.327       19.361      860.766
08/23/2013  01:14:00       16.915      109.315       -6.433       25.589       39.728       23.735      654.785     1578.308      563.349        0.754        0.140      110.616       21.306        0.037      343.320       19.350      860.756
08/23/2013  01:15:00      -13.977      145.554       -6.676       22.226       26.744       26.419      493.994      715.227      697.943        1.167        0.095      146.224       15.189        0.011      343.416       19.514      860.745
08/23/2013  01:16:00       -1.016      127.746       -4.817       31.764       41.885       26.605     1008.932     1754.360      707.827        0.991        0.174      127.750       25.660        0.040      343.290       19.297      860.746
08/23/2013  01:17:00      -42.707      151.252      -10.486       30.248       47.414       19.905      914.937     2248.047      396.190        1.418        0.178      157.166       11.800        0.006      343.379       19.447      860.740
08/23/2013  01:18:00      -10.978       73.215        6.560       35.845       67.344       24.824     1284.881     4535.247      616.222        0.598        0.322       74.033       32.846        0.197      343.284       19.287      860.757
08/23/2013  01:19:00        3.751       19.314        8.226       37.428       16.955       18.979     1400.885      287.486      360.204        0.125        0.102       19.675       13.713        0.486      343.213       19.167      860.806
08/23/2013  01:20:00       45.953        7.807       31.229       42.948       29.634       26.372     1844.490      878.165      695.506        0.328        0.171       46.612       21.744        0.218      342.657       18.221      860.853
08/23/2013  01:21:00        6.423       19.419       38.619       30.438       28.171       22.732      926.499      793.621      516.755        0.207        0.112       20.454       12.853        0.395      342.263       17.551      860.880
08/23/2013  01:22:00        6.072       23.803       51.826       32.536       39.303       25.413     1058.599     1544.729      645.798        0.327        0.162       24.565       21.313        0.753      342.486       17.930      860.886
08/23/2013  01:23:00       26.866      -32.390       16.423       34.995       35.181       29.841     1224.628     1237.698      890.469        0.270        0.168       42.082       18.749        0.199      342.427       17.828      860.879
08/23/2013  01:24:00      112.721       82.174       56.785       38.979       33.093       35.283     1519.366     1095.169     1244.861        1.327        0.193      139.494       18.187        0.017      342.896       18.627      860.862
08/23/2013  01:25:00      119.034       73.533       28.223       35.439       30.115       22.061     1255.888      906.895      486.676        1.151        0.132      139.915       13.904        0.010      343.036       18.866      860.849
08/23/2013  01:26:00      135.871       53.862       16.929       53.857       38.301       30.932     2900.543     1466.954      956.799        1.349        0.266      146.157       16.712        0.013      342.982       18.773      860.863
08/23/2013  01:27:00       77.118       41.367       36.569       43.068       38.480       31.041     1854.838     1480.740      963.565        0.665        0.215       87.512       24.814        0.080      342.853       18.553      860.891
08/23/2013  01:28:00        4.056      -25.077       -3.865       28.420       26.841       19.117      807.688      720.455      365.456        0.128        0.095       25.403       12.563        0.245      342.286       17.590      860.926
08/23/2013  01:29:00       52.760      -34.446       -4.897       43.474       30.646       25.664     1889.982      939.198      658.665        0.374        0.174       63.009       21.525        0.117      342.005       17.113      860.947
08/23/2013  01:30:00       49.713      -28.731       -4.569       34.157       23.587       16.808     1166.672      556.367      282.505        0.266        0.100       57.419       13.663        0.057      342.173       17.398      860.941
08/23/2013  01:31:00       58.817      -47.060       10.703       23.995       28.455       25.625      575.756      809.672      656.660        0.392        0.102       75.327       24.660        0.107      342.426       17.828      860.926
08/23/2013  01:32:00       54.359      -73.035       -0.022       17.169       22.108       18.128      294.787      488.778      328.619        0.470        0.056       91.044       10.169        0.012      342.904       18.640      860.924
08/23/2013  01:33:00       38.361      -61.548       -5.728       27.373       29.840       24.278      749.290      890.439      589.438        0.376        0.111       72.524       15.548        0.046      343.276       19.275      860.927
08/23/2013  01:34:00       46.616       -9.166       -4.413       20.894       28.751       20.753      436.578      826.594      430.672        0.198        0.085       47.509       14.750        0.096      343.100       18.973      860.910
08/23/2013  01:35:00       34.026       -0.989        3.871       24.918       22.932       25.366      620.926      525.890      643.431        0.148        0.090       34.041       18.071        0.282      342.904       18.640      860.886
08/23/2013  01:36:00       54.993       44.581      -18.255       19.020       28.263       18.192      361.772      798.796      330.938        0.342        0.075       70.794        9.225        0.017      343.375       19.442      860.890
08/23/2013  01:37:00       66.325       49.159       17.713       25.169       31.214       34.638      633.495      974.319     1199.772        0.497        0.140       82.557       18.691        0.051      342.967       18.748      860.885
08/23/2013  01:38:00       38.314       45.807        0.121       21.747       34.595       23.600      472.935     1196.844      556.937        0.290        0.111       59.718       21.790        0.133      343.067       18.918      860.872
08/23/2013  01:39:00       18.053        3.611       20.172       33.475       32.968       23.319     1120.595     1086.874      543.756        0.175        0.138       18.411       15.571        0.715      342.618       18.153      860.882
08/23/2013  01:40:00       41.913      -36.343       -5.595       34.780       29.277       26.941     1209.665      857.124      725.813        0.295        0.140       55.475       19.321        0.121      342.250       17.528      860.900
08/23/2013  01:41:00       13.992      -40.199       21.317       30.523       47.034       29.291      931.634     2212.168      857.991        0.313        0.200       42.565       23.726        0.311      342.336       17.673      860.897
08/23/2013  01:42:00       27.009      -19.195      -13.131       25.914       29.531       19.452      671.535      872.097      378.379        0.160        0.096       33.135       16.581        0.250      342.587       18.100      860.892
08/23/2013  01:43:00        8.964       -9.794        6.390       17.662       18.295       16.633      311.931      334.710      276.673        0.057        0.046       13.277       12.542        0.892      342.537       18.018      860.881
08/23/2013  01:44:00      -45.604       -4.379       -1.194       34.615       13.971        9.818     1198.176      195.177       96.388        0.179        0.074       45.814       14.244        0.097      342.850       18.550      860.884
08/23/2013  01:45:00      -80.160      -11.585      -11.033       10.221       12.831        7.185      104.462      164.632       51.628        0.350        0.016       80.993        5.824        0.005      342.999       18.802      860.879
08/23/2013  01:46:00      -30.240       -2.150        2.840       28.218       14.169       10.429      796.259      200.750      108.760        0.102        0.055       30.317       11.130        0.135      342.801       18.466      860.884
08/23/2013  01:47:00       20.030      -10.004        7.104       19.371       19.258       17.667      375.222      370.881      312.122        0.080        0.053       22.389       11.758        0.276      342.525       17.996      860.886
08/23/2013  01:48:00       33.633       -6.202       24.725       17.958       18.146       14.530      322.484      329.260      211.113        0.132        0.043       34.200        4.980        0.021      342.472       17.904      860.878
08/23/2013  01:49:00       40.693       -1.773      -26.026       22.708       21.864       20.868      515.676      478.021      435.453        0.188        0.071       40.731       15.676        0.148      342.631       18.175      860.887
08/23/2013  01:50:00       19.686      -19.275       -9.722       23.686       32.199       19.063      561.029     1036.763      363.413        0.141        0.098       27.551       12.954        0.221      342.264       17.553      860.898
08/23/2013  01:51:00       50.679      -18.032        9.625       27.115       23.273       27.714      735.220      541.636      768.053        0.252        0.102       53.791       16.735        0.097      342.160       17.375      860.898
08/23/2013  01:52:00       54.395       -1.252        7.911       29.525       31.027       21.480      871.703      962.658      461.382        0.266        0.115       54.410       19.750        0.132      342.251       17.528      860.877
08/23/2013  01:53:00       23.133       10.414        1.182       19.987       16.642       10.432      399.493      276.959      108.822        0.071        0.039       25.369        9.143        0.130      343.155       19.068      860.851
08/23/2013  01:54:00      -86.626      -10.798      -11.717       45.034       17.478       13.823     2028.098      305.463      191.081        0.514        0.126       87.296       13.229        0.023      342.906       18.643      860.835
08/23/2013  01:55:00      -93.474      -18.675       -3.736       31.190       35.044       17.003      972.802     1228.104      289.093        0.579        0.124       95.321       10.880        0.013      342.523       17.991      860.834
08/23/2013  01:56:00      -78.502      -15.536        3.596       45.853       44.743       22.793     2102.523     2001.897      519.521        0.552        0.231       80.024       15.120        0.036      342.469       17.901      860.844
08/23/2013  01:57:00     -140.940      -45.710       -6.012       27.227       30.581       19.281      741.294      935.224      371.773        1.202        0.102      148.167       13.551        0.008      342.517       17.982      860.857
08/23/2013  01:58:00     -128.241      -19.091       -6.377       28.110       20.071       14.281      790.196      402.834      203.950        0.912        0.070      129.654       11.637        0.008      342.640       18.191      860.881
08/23/2013  01:59:00      -54.775      -51.205        1.578       40.182       47.456       20.637     1614.623     2252.053      425.902        0.496        0.215       74.981       25.016        0.111      342.591       18.108      860.893
08/23/2013  02:00:00      -99.114      -92.790        3.236       60.920       45.132       32.812     3711.286     2036.939     1076.627        1.263        0.341      135.770       39.330        0.084      342.761       18.396      860.891
08/23/2013  02:01:00     -148.627      -52.208       -0.755       40.699       38.958       21.844     1656.443     1517.693      477.146        1.423        0.183      157.530       24.815        0.025      342.955       18.727      860.889
08/23/2013  02:02:00     -123.811       -6.411       -9.682       28.174       19.472       18.030      793.788      379.172      325.069        0.848        0.075      123.977       17.238        0.019      342.955       18.727      860.867
08/23/2013  02:03:00     -116.608       24.768       -7.343       20.639       20.922       13.028      425.967      437.718      169.732        0.765        0.052      119.209        5.292        0.002      342.803       18.469      860.845
08/23/2013  02:04:00     -102.570       27.709       -5.850       39.221       25.818       22.452     1538.305      666.549      504.107        0.702        0.135      106.247       22.091        0.043      342.581       18.091      860.843
08/23/2013  02:05:00     -130.604       43.249      -13.351       50.790       30.590       23.149     2579.613      935.732      535.874        1.158        0.203      137.578       20.017        0.021      342.544       18.029      860.847
08/23/2013  02:06:00     -111.922        0.154       -7.516       33.747       33.962       21.118     1138.877     1153.399      445.949        0.766        0.137      111.923       14.008        0.016      342.470       17.902      860.850
08/23/2013  02:07:00     -122.128      -56.855      -10.611       40.287       45.429       23.389     1623.005     2063.755      547.059        1.125        0.212      134.713       20.362        0.023      342.410       17.800      860.859
08/23/2013  02:08:00     -108.131      -28.771       -8.283       38.602       29.535       22.860     1490.076      872.344      522.563        0.774        0.144      111.893       20.398        0.033      342.277       17.575      860.869
08/23/2013  02:09:00     -114.747       -8.562       -5.332       36.663       24.751       19.866     1344.140      612.591      394.649        0.781        0.118      115.066       19.113        0.028      342.099       17.271      860.884
08/23/2013  02:10:00     -133.465       15.725      -11.642       27.526       22.035       14.053      757.689      485.537      197.500        0.982        0.072      134.388        8.812        0.004      342.094       17.263      860.871
08/23/2013  02:11:00      -93.263       31.037       -5.405       29.706       26.546       17.992      882.449      704.664      323.717        0.580        0.096       98.292       10.765        0.012      341.994       17.094      860.854
08/23/2013  02:12:00     -133.198       53.739      -16.919       64.414       33.186       29.256     4149.220     1101.298      855.922        1.351        0.305      143.630       22.218        0.024      341.963       17.040      860.842
08/23/2013  02:13:00     -157.652       60.871       -5.523       52.136       33.009       26.232     2718.210     1089.582      688.142        1.654        0.225      168.995       21.123        0.016      341.952       17.021      860.826
08/23/2013  02:14:00     -162.895       42.706      -12.076       41.351       35.907       22.865     1709.946     1289.287      522.805        1.601        0.176      168.400       13.548        0.006      342.108       17.286      860.806
08/23/2013  02:15:00     -160.326       47.542      -14.623       53.688       31.798       21.831     2882.381     1011.091      476.599        1.627        0.219      167.226       19.574        0.014      342.128       17.319      860.785
08/23/2013  02:16:00     -138.345       51.298      -15.145       38.508       24.674       20.501     1482.835      608.801      420.289        1.226        0.126      147.549       17.331        0.014      342.119       17.305      860.790
08/23/2013  02:17:00      -87.763       63.792       -6.364       32.658       29.922       21.577     1066.515      895.321      465.558        0.712        0.121      108.498       15.789        0.021      342.358       17.712      860.790
08/23/2013  02:18:00      -92.596       55.692      -15.567       30.208       29.912       20.862      912.535      894.751      435.234        0.708        0.112      108.054       18.631        0.030      342.493       17.941      860.778
08/23/2013  02:19:00      -96.173       27.367      -15.360       18.383       27.218       14.565      337.927      740.846      212.125        0.576        0.065       99.990       11.997        0.014      342.435       17.842      860.766
08/23/2013  02:20:00     -111.562       26.690      -12.687       27.924       21.594       15.703      779.759      466.306      246.590        0.741        0.075      114.710       10.603        0.009      342.461       17.887      860.766
08/23/2013  02:21:00      -87.171       11.086      -12.831       25.277       28.306       15.999      638.912      801.215      255.973        0.479        0.085       87.874       12.658        0.021      342.567       18.066      860.759
08/23/2013  02:22:00      -71.818      -29.097      -12.554       13.667       10.810        8.837      186.791      116.850       78.086        0.327        0.019       77.488        3.076        0.002      342.268       17.560      860.750
08/23/2013  02:23:00      -79.312      -43.876       -6.860       27.961       19.398       15.087      781.826      376.265      227.603        0.482        0.069       90.640        6.471        0.005      342.109       17.288      860.746
08/23/2013  02:24:00     -105.894      -69.809       -5.109       28.933       24.812       14.762      837.095      615.655      217.907        0.889        0.084      126.834       12.745        0.010      342.002       17.106      860.740
08/23/2013  02:25:00      -98.581      -17.034       -7.475       42.286       24.105       17.944     1788.116      581.041      321.995        0.638        0.135      100.042       17.683        0.031      341.958       17.032      860.724
08/23/2013  02:26:00     -164.419      -11.183      -16.053       48.420       27.723       16.849     2344.473      768.588      283.890        1.541        0.170      164.799       14.775        0.008      342.007       17.116      860.707
08/23/2013  02:27:00     -164.605        5.369      -12.303       32.576       24.494       18.053     1061.212      599.951      325.921        1.463        0.099      164.693       16.605        0.010      341.964       17.043      860.690
08/23/2013  02:28:00     -215.342       32.493      -18.857       46.076       36.587       22.751     2123.000     1338.625      517.611        2.588        0.199      217.779       19.209        0.008      342.097       17.264      860.677
08/23/2013  02:29:00     -225.883       19.887      -21.489       56.680       37.486       27.965     3212.569     1405.236      782.034        2.864        0.270      226.757       31.210        0.019      342.048       17.180      860.656
08/23/2013  02:30:00     -221.182       42.104      -26.794       56.113       37.604       23.656     3148.675     1414.046      559.628        2.827        0.256      225.154       26.580        0.014      342.015       17.123      860.662
08/23/2013  02:31:00     -234.770      -21.068      -28.318       44.137       66.310       28.520     1948.070     4397.000      813.384        3.176        0.358      235.713       20.940        0.008      341.933       16.985      860.642
08/23/2013  02:32:00     -202.108      -40.661      -21.397       51.911       38.409       32.127     2694.750     1475.267     1032.135        2.408        0.260      206.157       22.634        0.012      341.893       16.921      860.624
08/23/2013  02:33:00     -154.860      -40.384      -13.727       56.490       38.065       27.338     3191.163     1448.918      747.345        1.559        0.269      160.039       29.510        0.034      342.009       17.119      860.626
08/23/2013  02:34:00     -126.350      -40.437       -1.475       46.374       48.706       31.152     2150.543     2372.279      970.425        1.155        0.275      132.663       26.721        0.041      341.887       16.913      860.624
08/23/2013  02:35:00     -189.828      -18.130      -16.401       47.790       50.697       25.133     2283.919     2570.227      631.668        2.106        0.274      190.692       19.096        0.010      341.785       16.736      860.619
08/23/2013  02:36:00     -165.068      -72.025       -3.672       68.407       44.132       32.239     4679.534     1947.629     1039.353        2.006        0.383      180.097       33.111        0.034      341.797       16.758      860.618
08/23/2013  02:37:00     -254.763      -49.268      -10.966       65.495       53.619       36.555     4289.580     2874.985     1336.236        3.797        0.425      259.483       31.019        0.014      341.903       16.936      860.627
08/23/2013  02:38:00     -152.936      -52.487       -4.817       57.749       52.313       31.570     3334.940     2736.682      996.673        1.662        0.353      161.692       33.200        0.042      341.972       17.057      860.621
08/23/2013  02:39:00     -102.120      -46.848        4.293       63.155       47.067       30.451     3988.544     2215.273      927.269        0.989        0.357      112.353       30.673        0.075      341.799       16.761      860.607
08/23/2013  02:40:00      -88.593       17.686        1.551       54.742       39.629       26.133     2996.713     1570.457      682.948        0.671        0.263       90.341       27.900        0.095      341.771       16.716      860.594
08/23/2013  02:41:00     -126.516       58.092       -7.322       36.395       27.408       19.800     1324.573      751.190      392.043        1.095        0.123      139.216       14.494        0.011      341.790       16.747      860.591
08/23/2013  02:42:00     -145.747       26.031      -15.318       42.936       50.832       30.259     1843.517     2583.855      915.611        1.375        0.267      148.054       22.973        0.024      341.765       16.704      860.581
08/23/2013  02:43:00     -139.917      -72.368      -15.375       55.004       49.766       34.370     3025.400     2476.680     1181.294        1.587        0.334      157.525       30.450        0.037      341.758       16.692      860.587
08/23/2013  02:44:00     -193.148      -59.410      -20.616       31.445       37.901       25.248      988.811     1436.452      637.459        2.216        0.153      202.079       10.382        0.003      341.602       16.426      860.600
08/23/2013  02:45:00     -145.532      -22.155       -5.539       74.029       54.301       29.237     5480.242     2948.602      854.821        1.549        0.464      147.209       36.269        0.061      341.518       16.284      860.599
08/23/2013  02:46:00     -135.368      -34.983      -11.813       56.485       32.012       23.947     3190.565     1024.746      573.444        1.224        0.239      139.815       28.522        0.042      341.482       16.224      860.601
08/23/2013  02:47:00     -102.415        0.140       -2.049       54.966       39.287       22.747     3021.210     1543.499      517.410        0.779        0.254      102.415       23.754        0.054      341.503       16.259      860.592
08/23/2013  02:48:00     -146.838       42.147      -19.291       49.698       27.258       23.413     2469.848      743.014      548.182        1.373        0.188      152.767       15.019        0.010      341.534       16.312      860.580
08/23/2013  02:49:00     -127.042       39.282       -2.139       50.471       31.919       24.689     2547.326     1018.834      609.542        1.093        0.209      132.976       15.793        0.014      341.632       16.479      860.581
08/23/2013  02:50:00      -75.194      -10.674        4.939       47.123       38.134       20.910     2220.542     1454.180      437.245        0.495        0.206       75.948       23.415        0.095      341.601       16.426      860.587
08/23/2013  02:51:00       -9.268      -44.325        8.175       38.762       26.725       27.928     1502.519      714.213      779.990        0.256        0.150       45.283       20.252        0.200      341.619       16.458      860.602
08/23/2013  02:52:00      -67.672      -34.610       -7.593       25.293       25.502       19.244      639.724      650.376      370.324        0.375        0.083       76.009       17.703        0.054      341.591       16.409      860.622
08/23/2013  02:53:00      -57.671       30.500       -5.861       11.788       25.356        6.436      138.945      642.951       41.420        0.256        0.041       65.240        7.997        0.015      341.741       16.664      860.628
08/23/2013  02:54:00      -30.998       43.972        0.804       14.028       20.210       15.450      196.790      408.439      238.700        0.187        0.042       53.799       11.955        0.049      341.704       16.601      860.644
08/23/2013  02:55:00       -4.800      -69.361      -14.647       17.167       22.092       16.510      294.706      488.037      272.579        0.305        0.053       69.527        8.300        0.014      341.722       16.633      860.692
08/23/2013  02:56:00      -41.321      -59.345      -11.100       26.624       27.551       21.866      708.838      759.061      478.109        0.365        0.097       72.313       14.566        0.041      341.803       16.768      860.713
08/23/2013  02:57:00      -54.473       -4.408       -1.586       15.023       16.504       13.887      225.687      272.375      192.858        0.184        0.035       54.651        9.063        0.027      341.724       16.636      860.704
08/23/2013  02:58:00      -15.447       22.100       -7.505       11.046       22.719        8.009      122.019      516.164       64.137        0.074        0.035       26.963        7.018        0.068      341.732       16.648      860.699
08/23/2013  02:59:00      -10.907       41.635       -8.214        8.851        9.489       11.060       78.346       90.049      122.330        0.111        0.015       43.040        4.791        0.012      341.778       16.726      860.697
08/23/2013  03:00:00      -18.100      -16.783       -9.308       15.216       17.999        7.495      231.535      323.953       56.182        0.065        0.031       24.684        5.264        0.045      341.832       16.821      860.684
08/23/2013  03:01:00       -6.190      -27.308        9.856       25.516       20.576       19.755      651.054      423.356      390.274        0.117        0.073       28.001       18.353        0.430      341.663       16.532      860.667
08/23/2013  03:02:00      -15.578      -23.493        6.120       16.568       11.496       13.090      274.511      132.168      171.345        0.070        0.029       28.189       12.028        0.182      341.651       16.511      860.657
08/23/2013  03:03:00        9.526        4.782        9.173        6.850        6.060        7.251       46.927       36.723       52.571        0.017        0.007       10.659        4.039        0.144      341.620       16.457      860.645
08/23/2013  03:04:00       21.350       25.793       23.154       12.870       16.026       11.513      165.639      256.826      132.558        0.111        0.028       33.483        8.569        0.066      341.644       16.501      860.650
08/23/2013  03:05:00       29.981       28.922       21.291       16.998       19.508       16.978      288.929      380.579      288.246        0.157        0.048       41.657       14.211        0.116      341.527       16.302      860.666
08/23/2013  03:06:00       39.942       26.839       18.501       26.373       18.639       16.438      695.530      347.412      270.219        0.199        0.066       48.122       13.413        0.078      341.492       16.242      860.677
08/23/2013  03:07:00       44.822       17.577        3.627       13.308       11.832       13.591      177.094      140.007      184.726        0.142        0.025       48.145        7.277        0.023      341.470       16.204      860.687
08/23/2013  03:08:00        6.259      -13.406        2.525       11.672       12.824        6.940      136.226      164.446       48.159        0.029        0.017       14.795        6.565        0.197      341.498       16.251      860.687
08/23/2013  03:09:00      -39.988      -14.066       -2.434       32.344       11.226       11.407     1046.154      126.020      130.130        0.155        0.065       42.390       13.929        0.108      341.598       16.423      860.669
08/23/2013  03:10:00      -77.929      -27.741       -6.569       19.175       16.897       11.432      367.686      285.493      130.681        0.383        0.039       82.719        4.396        0.003      341.669       16.544      860.650
08/23/2013  03:11:00      -77.797      -17.638       -6.573       13.376       13.464        9.775      178.918      181.270       95.560        0.343        0.023       79.771        5.811        0.005      341.618       16.456      860.631
08/23/2013  03:12:00      -83.374      -25.530      -12.882       14.595       10.332        7.202      213.014      106.753       51.875        0.407        0.019       87.196        4.056        0.002      341.679       16.559      860.625
08/23/2013  03:13:00      -51.136      -26.111       -7.558        9.906        9.371        7.769       98.136       87.815       60.351        0.180        0.012       57.417        2.717        0.002      341.662       16.533      860.626
08/23/2013  03:14:00      -53.853      -18.958      -10.588       13.000       12.780        8.747      168.995      163.331       76.506        0.189        0.020       57.092        6.073        0.011      341.690       16.579      860.627
08/23/2013  03:15:00      -59.528       -2.256       -9.011       13.328        8.701        8.792      177.624       75.700       77.307        0.198        0.017       59.571        7.453        0.016      341.685       16.571      860.626
08/23/2013  03:16:00      -61.499        4.805       -8.529       13.787        8.739        8.238      190.094       76.364       67.869        0.211        0.017       61.687        4.207        0.005      341.676       16.553      860.621
08/23/2013  03:17:00      -26.803       -4.704       -7.957       12.675       10.405        6.155      160.645      108.265       37.879        0.056        0.015       27.213        5.605        0.042      341.642       16.497      860.620
08/23/2013  03:18:00      -31.616      -20.880       -1.635       11.484       13.233        9.028      131.887      175.117       81.513        0.091        0.019       37.889        4.517        0.014      341.669       16.542      860.619
08/23/2013  03:19:00      -29.722      -29.105        3.685       40.487       28.208       17.425     1639.174      795.715      303.643        0.224        0.137       41.599       12.376        0.089      341.516       16.283      860.623
08/23/2013  03:20:00      -93.629      -85.398       -2.358       51.142       37.804       26.265     2615.541     1429.132      689.832        1.040        0.237      126.725       26.944        0.045      341.444       16.160      860.624
08/23/2013  03:21:00     -122.301      -68.181       -0.632       32.592       20.946       17.770     1062.270      438.721      315.765        1.071        0.091      140.022       15.124        0.012      341.499       16.254      860.629
08/23/2013  03:22:00      -83.555      -31.939        5.797       37.180       28.244       19.062     1382.335      797.751      363.362        0.529        0.127       89.451       19.196        0.046      341.647       16.505      860.624
08/23/2013  03:23:00      -68.908      -16.559        0.131       25.957       29.313       16.106      673.757      859.250      259.408        0.341        0.090       70.870        6.639        0.009      341.564       16.364      860.618
08/23/2013  03:24:00     -111.934        0.384       -6.030       38.892       19.150       18.312     1512.589      366.727      335.318        0.739        0.111      111.935       20.919        0.035      341.415       16.112      860.613
08/23/2013  03:25:00     -110.318      -13.113       -9.044       41.657       24.662       17.603     1735.310      608.207      309.862        0.754        0.133      111.095       19.558        0.031      341.331       15.970      860.607
08/23/2013  03:26:00     -120.598       -3.104       -6.919       39.711       29.906       18.718     1576.986      894.380      350.380        0.871        0.141      120.638       17.872        0.022      341.271       15.868      860.592
08/23/2013  03:27:00     -137.481       13.918      -11.813       52.015       37.173       19.511     2705.551     1381.821      380.687        1.185        0.223      138.184       20.129        0.021      341.225       15.789      860.576
08/23/2013  03:28:00     -120.174       -7.258      -16.167       46.185       43.158       22.417     2133.052     1862.643      502.539        0.963        0.225      120.393       19.393        0.026      341.194       15.738      860.571
08/23/2013  03:29:00     -114.486      -26.426        2.953       44.165       40.357       24.086     1950.545     1628.681      580.111        0.899        0.208      117.497       24.167        0.042      341.142       15.650      860.564
08/23/2013  03:30:00     -121.922      -29.920        0.206       42.324       40.192       21.104     1791.287     1615.366      445.361        0.981        0.193      125.539       19.557        0.024      341.214       15.772      860.555
08/23/2013  03:31:00     -108.826        1.454       -9.389       48.624       45.437       22.663     2364.273     2064.562      513.625        0.844        0.247      108.836       20.160        0.034      341.088       15.557      860.537
08/23/2013  03:32:00     -162.596       -6.846      -18.050       30.442       33.303       21.236      926.715     1109.075      450.967        1.465        0.124      162.740       15.084        0.009      341.162       15.682      860.517
08/23/2013  03:33:00     -119.921        3.898      -10.334       48.484       46.026       25.165     2350.673     2118.361      633.261        0.980        0.255      119.984       12.191        0.010      341.108       15.592      860.507
08/23/2013  03:34:00     -149.596       19.039       -7.737       48.286       41.524       24.937     2331.529     1724.220      621.839        1.374        0.234      150.803       20.409        0.018      341.158       15.678      860.515
08/23/2013  03:35:00     -147.103      -42.539      -15.657       41.718       48.194       27.494     1740.432     2322.658      755.917        1.426        0.241      153.130       23.611        0.024      341.177       15.709      860.523
08/23/2013  03:36:00      -74.277      -84.998        0.674       52.626       36.667       26.760     2769.540     1344.439      716.118        0.879        0.242      112.879       27.218        0.058      341.112       15.599      860.521
08/23/2013  03:37:00     -103.500      -68.206        2.534       61.632       43.534       28.115     3798.475     1895.243      790.431        1.093        0.324      123.953       19.372        0.024      341.169       15.696      860.513
08/23/2013  03:38:00     -209.223     -109.149       -5.768       52.312       50.251       32.778     2736.501     2525.156     1074.407        3.103        0.317      235.982       23.572        0.010      341.044       15.480      860.508
08/23/2013  03:39:00     -185.508      -56.633      -15.454       53.428       58.511       25.165     2854.592     3423.518      633.290        2.238        0.346      193.960       24.343        0.016      341.042       15.477      860.496
08/23/2013  03:40:00     -178.581      -36.061      -18.220       42.631       41.551       22.387     1817.436     1726.508      501.177        1.878        0.202      182.185       13.472        0.005      341.059       15.508      860.484
08/23/2013  03:41:00     -135.606      -20.271       -6.337       45.847       41.450       25.531     2101.973     1718.084      651.825        1.166        0.224      137.112       19.936        0.021      341.008       15.424      860.479
08/23/2013  03:42:00     -153.022      -19.341      -12.876       50.375       38.102       20.428     2537.610     1451.766      417.296        1.418        0.220      154.239       25.486        0.027      341.023       15.447      860.469
08/23/2013  03:43:00     -165.616      -60.131       -3.323       57.522       30.165       28.359     3308.767      909.900      804.236        1.804        0.251      176.194       28.012        0.025      341.010       15.424      860.446
08/23/2013  03:44:00     -181.602      -20.341      -12.404       43.088       39.675       24.993     1856.590     1574.088      624.644        1.880        0.203      182.738       18.830        0.011      341.028       15.454      860.446
08/23/2013  03:45:00     -151.267       -4.043      -13.032       42.208       37.148       20.494     1781.494     1380.009      419.991        1.332        0.179      151.321       13.843        0.008      341.018       15.440      860.434
08/23/2013  03:46:00     -175.316        5.506       -6.751       65.371       46.635       31.082     4273.346     2174.791      966.108        1.911        0.371      175.403       34.287        0.038      340.951       15.324      860.436
08/23/2013  03:47:00     -170.431       -8.498      -14.338       52.181       42.234       23.233     2722.876     1783.706      539.793        1.718        0.252      170.642       19.895        0.014      340.973       15.363      860.433
08/23/2013  03:48:00     -203.581       -5.731      -23.552       38.301       36.320       24.376     1466.988     1319.126      594.180        2.271        0.169      203.662       18.494        0.008      341.017       15.437      860.430
08/23/2013  03:49:00     -153.633       -6.242      -18.745       47.123       46.386       23.369     2220.556     2151.635      546.114        1.446        0.246      153.760       21.902        0.020      341.067       15.523      860.416
08/23/2013  03:50:00     -150.577        1.865      -19.915       46.638       46.775       26.039     2175.136     2187.930      678.023        1.406        0.252      150.589       20.858        0.019      341.140       15.645      860.400
08/23/2013  03:51:00     -105.940      -21.276      -18.932       34.138       38.690       25.012     1165.393     1496.920      625.579        0.766        0.164      108.056       13.616        0.016      341.145       15.655      860.397
08/23/2013  03:52:00      -75.628      -18.077       -5.268       41.210       45.684       21.509     1698.254     2086.983      462.646        0.516        0.212       77.758       21.569        0.077      341.158       15.678      860.380
08/23/2013  03:53:00      -71.640      -10.834       -7.841       33.314       37.353       28.420     1109.822     1395.223      807.680        0.431        0.166       72.455       27.248        0.141      341.252       15.836      860.386
08/23/2013  03:54:00      -35.291       -1.270        9.151       38.516       29.398       26.003     1483.504      864.262      676.177        0.218        0.151       35.313       23.581        0.446      341.047       15.489      860.387
08/23/2013  03:55:00      -89.840      -18.096       -2.532       59.883       34.809       22.318     3585.965     1211.698      498.079        0.685        0.265       91.644       26.260        0.082      341.064       15.517      860.383
08/23/2013  03:56:00     -132.834        5.136      -12.518       34.154       37.612       19.964     1166.509     1414.674      398.552        1.040        0.149      132.933       13.855        0.011      341.079       15.541      860.390
08/23/2013  03:57:00     -101.784      -10.756       -7.521       24.131       32.756       17.289      582.316     1072.982      298.894        0.624        0.098      102.350       13.964        0.019      341.092       15.566      860.382
08/23/2013  03:58:00     -130.371       -3.574       -8.471       46.874       37.074       21.886     2197.183     1374.499      478.990        1.057        0.203      130.420       20.925        0.026      341.134       15.637      860.378
08/23/2013  03:59:00     -208.516        7.190      -21.155       23.198       21.730       18.212      538.127      472.173      331.675        2.266        0.067      208.640       14.268        0.005      341.104       15.584      860.384
08/23/2013  04:00:00     -173.119       -2.746      -11.994       35.705       33.846       18.618     1274.812     1145.541      346.616        1.644        0.138      173.140       17.744        0.011      341.042       15.480      860.375
08/23/2013  04:01:00     -122.332       33.293      -10.827       46.166       42.069       23.754     2131.344     1769.801      564.261        1.033        0.223      126.782       24.140        0.036      341.007       15.421      860.368
08/23/2013  04:02:00      -85.802       -9.580       -2.940       26.699       26.777       19.945      712.857      716.992      397.817        0.464        0.091       86.336       13.258        0.024      341.050       15.493      860.378
08/23/2013  04:03:00      -45.177      -13.821        7.253       33.982       40.201       21.609     1154.771     1616.140      466.928        0.276        0.162       47.244       21.454        0.206      341.072       15.530      860.368
08/23/2013  04:04:00      -65.107      -44.521        4.487       33.541       20.001       19.063     1124.976      400.031      363.393        0.406        0.094       78.873       18.086        0.053      341.006       15.420      860.363
08/23/2013  04:05:00      -38.460      -30.701        8.226       34.057       25.794       23.962     1159.848      665.326      574.158        0.244        0.120       49.211       21.455        0.190      341.029       15.459      860.365
08/23/2013  04:06:00      -80.802      -48.784       -7.421       24.690       23.908       13.348      609.592      571.611      178.178        0.516        0.068       94.387        8.865        0.009      341.033       15.466      860.368
08/23/2013  04:07:00      -83.838      -53.594       -4.907       30.694       24.969       21.117      942.122      623.432      445.938        0.597        0.101       99.504       18.265        0.034      341.046       15.487      860.351
08/23/2013  04:08:00      -97.568      -54.166        1.642       38.673       23.370       20.009     1495.621      546.144      400.364        0.745        0.122      111.595       20.844        0.035      341.039       15.478      860.356
08/23/2013  04:09:00     -119.933      -48.490      -14.966       12.103       14.658       11.774      146.493      214.856      138.618        0.873        0.025      129.365        8.051        0.004      341.054       15.502      860.347
08/23/2013  04:10:00     -101.757      -56.342      -18.400       21.987       17.121       13.737      483.436      293.137      188.701        0.742        0.048      116.314        9.844        0.007      341.040       15.477      860.337
08/23/2013  04:11:00     -105.170      -42.669       -7.200       19.618       24.485       12.377      384.883      599.518      153.180        0.704        0.057      113.496        8.665        0.006      341.033       15.467      860.345
08/23/2013  04:12:00     -100.650      -34.623       -7.793       31.333       22.941       15.406      981.726      526.295      237.360        0.657        0.087      106.438       16.153        0.023      341.006       15.418      860.341
08/23/2013  04:13:00     -120.937      -18.805       -5.434       35.219       24.148       18.565     1240.381      583.148      344.645        0.859        0.108      122.390       15.342        0.016      340.928       15.286      860.328
08/23/2013  04:14:00     -163.533       11.978       -9.694       31.274       28.632       25.655      978.076      819.765      658.184        1.472        0.123      163.971       21.096        0.017      340.973       15.365      860.326
08/23/2013  04:15:00     -125.968        5.654      -11.195       30.992       31.476       19.310      960.530      990.766      372.873        0.917        0.116      126.094       14.348        0.013      340.967       15.354      860.328
08/23/2013  04:16:00     -150.045       27.802       -8.953       32.043       22.013       21.274     1026.762      484.575      452.578        1.266        0.098      152.599       12.217        0.006      341.075       15.536      860.327
08/23/2013  04:17:00     -138.878       15.835      -10.339       13.522       23.536        9.523      182.842      553.935       90.683        1.024        0.041      139.778        9.095        0.004      341.116       15.605      860.325
08/23/2013  04:18:00     -115.064      -37.774      -17.404       23.535       20.557       17.376      553.887      422.574      301.910        0.812        0.064      121.106       10.999        0.008      341.098       15.574      860.317
08/23/2013  04:19:00      -77.649      -34.943       -7.083       36.342       19.914       13.307     1320.746      396.562      177.069        0.460        0.095       85.149       15.489        0.033      341.135       15.637      860.330
08/23/2013  04:20:00      -75.235      -46.385      -11.961       17.367       15.500       10.610      301.618      240.254      112.580        0.430        0.033       88.385        8.348        0.009      341.235       15.807      860.333
08/23/2013  04:21:00      -46.735      -55.504       -4.428       20.677       18.666       13.091      427.523      348.405      171.378        0.312        0.047       72.559        8.859        0.015      341.365       16.026      860.326
08/23/2013  04:22:00      -39.308      -30.482        3.107       35.211       20.598       14.616     1239.793      424.266      213.617        0.218        0.094       49.743       11.040        0.049      341.346       15.993      860.317
08/23/2013  04:23:00      -59.292      -27.884        4.138       39.707       19.550       13.672     1576.642      382.209      186.934        0.323        0.107       65.522       16.278        0.062      341.277       15.878      860.317
08/23/2013  04:24:00      -40.679      -35.268        3.367       39.471       35.479       20.209     1557.970     1258.794      408.404        0.307        0.161       53.839       19.141        0.126      341.158       15.676      860.315
08/23/2013  04:25:00      -83.224      -54.809        0.423       43.699       26.873       16.499     1909.609      722.151      272.213        0.642        0.145       99.651        7.511        0.006      341.057       15.507      860.321
08/23/2013  04:26:00      -86.490      -45.545        3.567       52.685       27.144       26.162     2775.676      736.781      684.441        0.688        0.210       97.749       21.180        0.047      340.909       15.256      860.320
08/23/2013  04:27:00      -77.715      -66.853        3.640       42.352       42.699       24.581     1793.683     1823.219      604.231        0.737        0.211      102.513       22.141        0.047      340.815       15.096      860.323
08/23/2013  04:28:00      -95.117      -53.951        2.878       35.775       27.237       21.905     1279.872      741.866      479.846        0.723        0.125      109.352       19.550        0.032      340.817       15.099      860.321
08/23/2013  04:29:00      -62.350      -44.398        0.202       36.605       21.386       17.134     1339.945      457.376      293.584        0.397        0.105       76.542       18.670        0.059      340.895       15.231      860.328
08/23/2013  04:30:00      -85.873      -41.450        2.543       34.329       23.243       22.569     1178.447      540.254      509.368        0.566        0.111       95.354       20.012        0.044      340.891       15.225      860.334
08/23/2013  04:31:00      -51.608      -39.088        1.606       22.354       13.399       16.445      499.690      179.528      270.434        0.257        0.047       64.740       11.665        0.032      340.935       15.299      860.331
08/23/2013  04:32:00      -19.304      -23.631        6.166       20.781       17.150       11.853      431.861      294.113      140.500        0.092        0.043       30.513        9.647        0.100      341.023       15.448      860.331
08/23/2013  04:33:00      -17.187      -23.509       -3.923       19.051       18.517       10.503      362.936      342.873      110.317        0.084        0.041       29.121        9.658        0.110      341.137       15.642      860.329
08/23/2013  04:34:00      -13.065      -29.564        1.786       11.926       16.189       12.214      142.226      262.070      149.181        0.080        0.028       32.323        4.833        0.022      341.068       15.525      860.322
08/23/2013  04:35:00      -12.492      -33.088       -2.161       13.004       13.901        8.776      169.112      193.245       77.015        0.085        0.022       35.368        4.605        0.017      341.150       15.663      860.319
08/23/2013  04:36:00      -31.946      -36.646        2.289       30.593       19.392       12.645      935.951      376.034      159.884        0.192        0.074       48.615       12.228        0.063      341.085       15.553      860.323
08/23/2013  04:37:00      -71.823      -95.990       -9.072       31.071       43.124       20.909      965.394     1859.653      437.180        0.886        0.163      119.886       17.127        0.020      341.069       15.526      860.331
08/23/2013  04:38:00     -107.919      -74.396       -6.190       49.777       41.774       24.725     2477.766     1745.052      611.343        1.103        0.242      131.077       17.833        0.019      340.969       15.357      860.341
08/23/2013  04:39:00      -94.903      -83.159       -8.072       51.111       37.724       25.477     2612.356     1423.132      649.053        1.034        0.234      126.183       16.369        0.017      340.988       15.389      860.344
08/23/2013  04:40:00      -69.138      -39.294        5.921       54.950       44.346       25.567     3019.452     1966.589      653.658        0.600        0.282       79.525       25.103        0.100      340.835       15.131      860.342
08/23/2013  04:41:00      -45.834      -28.529       12.707       48.848       31.846       22.518     2386.150     1014.156      507.063        0.349        0.195       53.988       18.079        0.112      340.782       15.041      860.343
08/23/2013  04:42:00      -69.564      -70.329       -4.030       68.688       52.156       28.151     4718.076     2720.296      792.493        0.901        0.412       98.921       29.451        0.089      340.796       15.062      860.334
08/23/2013  04:43:00     -103.127      -63.281       -1.476       72.317       44.525       33.210     5229.697     1982.490     1102.875        1.148        0.416      120.995       32.323        0.071      340.714       14.926      860.330
08/23/2013  04:44:00      -34.361      -53.731       16.282       78.891       50.375       34.102     6223.786     2537.618     1162.974        0.713        0.496       63.778       31.809        0.249      340.637       14.794      860.333
08/23/2013  04:45:00      -63.500      -47.708       12.328       93.153       50.713       42.014     8677.510     2571.854     1765.176        0.974        0.651       79.425       52.320        0.434      340.644       14.807      860.335
08/23/2013  04:46:00     -115.268      -64.064       -3.747       56.911       33.991       27.212     3238.861     1155.361      740.476        1.127        0.257      131.875       29.803        0.051      340.675       14.859      860.337
08/23/2013  04:47:00     -130.866      -94.839       -5.105       40.406       36.121       27.794     1632.684     1304.735      772.514        1.493        0.185      161.618       22.521        0.019      340.728       14.949      860.349
08/23/2013  04:48:00     -120.088      -90.997       -5.558       39.584       36.904       27.187     1566.913     1361.881      739.110        1.320        0.183      150.671       26.128        0.030      340.752       14.990      860.362
08/23/2013  04:49:00      -26.968      -40.983       14.001       67.083       38.550       34.991     4500.130     1486.121     1224.381        0.491        0.361       49.059       36.666        0.559      340.667       14.845      860.372
08/23/2013  04:50:00      -88.888      -45.992       14.086       78.333       46.303       45.475     6136.077     2143.953     2067.982        1.028        0.517      100.081       43.362        0.188      340.597       14.728      860.382
08/23/2013  04:51:00      -88.474      -50.463        1.826       44.940       38.388       28.241     2019.648     1473.631      797.554        0.733        0.215      101.853       22.074        0.047      340.557       14.660      860.373
08/23/2013  04:52:00      -92.096      -49.531        2.581       45.790       40.097       30.310     2096.727     1607.740      918.718        0.778        0.231      104.571       25.937        0.062      340.593       14.720      860.376
08/23/2013  04:53:00      -77.195      -70.790       15.708       71.358       45.981       36.869     5091.998     2114.297     1359.330        0.989        0.428      104.739       32.512        0.096      340.640       14.801      860.385
08/23/2013  04:54:00      -99.614      -77.203        7.634       58.551       50.317       33.142     3428.225     2531.775     1098.421        1.150        0.353      126.029       26.091        0.043      340.514       14.586      860.394
08/23/2013  04:55:00     -156.060     -120.220       -7.384       38.941       36.295       27.630     1516.432     1317.296      763.434        2.123        0.180      196.997       23.552        0.014      340.496       14.554      860.394
08/23/2013  04:56:00     -117.785      -99.297       -1.482       52.412       34.048       30.328     2747.056     1159.291      919.766        1.428        0.241      154.056       27.361        0.032      340.497       14.557      860.403
08/23/2013  04:57:00      -93.914      -82.256       -0.723       40.852       30.605       26.815     1668.862      936.660      719.042        0.945        0.166      124.843       21.776        0.030      340.552       14.651      860.420
08/23/2013  04:58:00      -62.426      -46.613       -2.907       24.541       28.644       16.932      602.253      820.483      286.696        0.389        0.085       77.908       17.035        0.048      340.557       14.658      860.413
08/23/2013  04:59:00      -41.295      -27.830       -1.643       27.126       15.471       11.235      735.799      239.348      126.231        0.179        0.055       49.798        8.509        0.029      340.641       14.801      860.399
08/23/2013  05:00:00      -17.896      -27.409        5.917       22.076       21.079       12.886      487.342      444.312      166.048        0.110        0.055       32.734        9.282        0.080      340.626       14.777      860.390
08/23/2013  05:01:00       -2.859      -28.220        0.516       12.530       13.969       13.593      157.002      195.133      184.779        0.067        0.027       28.365        6.939        0.060      340.654       14.825      860.406
08/23/2013  05:02:00       10.970       -4.223       11.912       14.507       18.673       10.219      210.445      348.667      104.433        0.047        0.033       11.755       10.425        0.787      340.615       14.758      860.418
08/23/2013  05:03:00        5.816      -23.811       -0.989       13.390       14.993       15.531      179.304      224.793      241.206        0.062        0.032       24.511        9.155        0.140      340.700       14.902      860.406
08/23/2013  05:04:00       -6.011      -23.351        3.073       11.317       13.432        6.670      128.081      180.431       44.484        0.047        0.018       24.112        7.132        0.087      340.769       15.020      860.408
08/23/2013  05:05:00      -10.856      -43.288        8.214       25.475       34.160       17.306      648.984     1166.891      299.493        0.209        0.106       44.628       12.828        0.083      340.836       15.130      860.423
08/23/2013  05:06:00     -107.575      -71.170       -3.281       54.002       44.451       33.040     2916.193     1975.857     1091.669        1.131        0.299      128.986       30.589        0.056      340.633       14.789      860.416
08/23/2013  05:07:00      -60.714      -51.293        3.898       55.488       39.605       25.866     3078.914     1568.562      669.041        0.582        0.266       79.481       28.947        0.133      340.483       14.536      860.413
08/23/2013  05:08:00      -38.401      -52.402       -4.287       54.340       29.714       19.757     2952.789      882.937      390.321        0.423        0.211       64.967       17.075        0.069      340.492       14.549      860.425
08/23/2013  05:09:00      -35.058      -20.400       -0.853       28.020       22.109       17.854      785.130      488.788      318.749        0.162        0.080       40.562       12.830        0.100      340.528       14.611      860.434
08/23/2013  05:10:00      -26.024      -32.952        2.336       25.367       17.309       15.926      643.505      299.610      253.653        0.148        0.060       41.989       10.535        0.063      340.557       14.660      860.438
08/23/2013  05:11:00      -13.525      -13.228       -5.902       21.685       26.628       20.409      470.240      709.046      416.518        0.099        0.080       18.919       17.061        0.813      340.587       14.712      860.441
08/23/2013  05:12:00      -27.189      -13.582        5.344       25.707       21.590       15.479      660.873      466.126      239.610        0.116        0.068       30.393       10.931        0.129      340.534       14.621      860.448
08/23/2013  05:13:00      -31.256      -29.538       -1.362       44.013       23.634       15.983     1937.170      558.551      255.458        0.230        0.138       43.005       13.882        0.104      340.603       14.738      860.466
08/23/2013  05:14:00     -100.817      -91.255        4.688       55.286       46.779       26.713     3056.510     2188.289      713.577        1.223        0.298      135.983       27.591        0.041      340.555       14.657      860.480
08/23/2013  05:15:00     -146.438      -90.865       -8.645       46.365       39.246       30.637     2149.709     1540.234      938.647        1.720        0.231      172.338       23.947        0.019      340.522       14.599      860.494
08/23/2013  05:16:00      -89.177      -64.297       -3.791       44.398       27.426       24.188     1971.210      752.205      585.037        0.770        0.165      109.939       25.421        0.053      340.509       14.579      860.494
08/23/2013  05:17:00      -86.988      -41.793       -1.409       45.294       24.470       15.550     2051.583      598.797      241.813        0.610        0.145       96.507       17.268        0.032      340.507       14.574      860.494
08/23/2013  05:18:00      -87.367      -28.631       -6.400       31.461       27.922       20.823      989.806      779.640      433.613        0.535        0.110       91.939       19.156        0.043      340.487       14.541      860.488
08/23/2013  05:19:00      -69.689      -12.294       -1.034       20.827       21.918       17.463      433.765      480.397      304.940        0.311        0.061       70.766       12.028        0.029      340.428       14.441      860.493
08/23/2013  05:20:00     -101.460      -22.687       -3.228       28.731       19.259       13.100      825.473      370.906      171.606        0.609        0.068      103.966       10.078        0.009      340.459       14.494      860.505
08/23/2013  05:21:00      -70.517      -15.756        5.625       24.542       19.129       16.703      602.309      365.904      279.000        0.325        0.062       72.256       14.572        0.041      340.364       14.335      860.516
08/23/2013  05:22:00      -72.361        2.699       -8.124       29.777       23.121       11.966      886.680      534.583      143.177        0.344        0.078       72.411       10.958        0.023      340.358       14.325      860.529
08/23/2013  05:23:00     -113.412       -5.523      -11.693       29.923       19.367       15.005      895.367      375.070      225.155        0.726        0.075      113.546       14.329        0.016      340.318       14.254      860.539
08/23/2013  05:24:00      -97.714      -33.826       -5.533       26.057       19.801       14.873      678.964      392.098      221.197        0.601        0.065      103.403       11.541        0.012      340.367       14.338      860.553
08/23/2013  05:25:00      -74.700      -41.751        3.758       59.737       29.750       33.708     3568.501      885.062     1136.222        0.646        0.279       85.576       26.663        0.097      340.362       14.330      860.582
08/23/2013  05:26:00     -107.516      -87.385       -1.661       76.555       50.926       31.942     5860.674     2593.475     1020.306        1.433        0.474      138.549       30.837        0.050      340.337       14.287      860.606
08/23/2013  05:27:00     -103.568      -96.703        3.740       57.460       49.565       28.318     3301.661     2456.697      801.890        1.332        0.328      141.696       28.004        0.039      340.374       14.351      860.610
08/23/2013  05:28:00     -116.871      -98.306       -4.506       43.225       41.924       23.681     1868.414     1757.629      560.797        1.376        0.209      152.718       17.714        0.013      340.375       14.352      860.604
08/23/2013  05:29:00     -109.217      -82.007        0.223       46.744       35.532       24.272     2185.008     1262.549      589.147        1.134        0.202      136.578       23.677        0.030      340.307       14.236      860.608
08/23/2013  05:30:00      -97.351      -75.234       -3.960       33.519       31.389       20.961     1123.555      985.276      439.370        0.885        0.127      123.034       20.225        0.027      340.299       14.224      860.617
08/23/2013  05:31:00      -87.563      -31.278       -5.223       35.589       26.312       19.403     1266.570      692.333      376.486        0.550        0.117       92.981       17.117        0.034      340.257       14.153      860.637
08/23/2013  05:32:00      -93.670      -21.783        5.949       49.515       30.804       21.592     2451.759      948.857      466.232        0.657        0.193       96.169       20.856        0.047      340.113       13.909      860.653
08/23/2013  05:33:00     -118.093      -32.884       -2.441       55.519       48.284       22.282     3082.353     2331.307      496.494        1.047        0.296      122.586       21.990        0.032      340.024       13.760      860.658
08/23/2013  05:34:00     -165.684      -24.038       -5.344       52.357       37.488       25.505     2741.298     1405.370      650.483        1.643        0.240      167.418       27.281        0.027      340.065       13.828      860.661
08/23/2013  05:35:00     -141.799      -51.691       -3.832       49.244       42.442       30.353     2424.974     1801.286      921.310        1.397        0.257      150.927       25.035        0.028      340.055       13.811      860.667
08/23/2013  05:36:00     -165.821      -74.142       -8.991       41.159       24.979       18.809     1694.086      623.945      353.782        1.787        0.134      181.642       17.176        0.009      340.120       13.922      860.664
08/23/2013  05:37:00      -89.200      -47.687       -9.557       43.450       27.346       21.196     1887.866      747.786      449.269        0.670        0.154      101.147       15.569        0.024      340.174       14.012      860.650
08/23/2013  05:38:00      -99.607      -22.808       -7.577       31.554       28.134       18.081      995.664      791.542      326.922        0.631        0.106      102.185       14.943        0.021      340.133       13.941      860.649
08/23/2013  05:39:00     -108.271      -16.419       -9.818       41.738       26.478       20.280     1742.084      701.083      411.298        0.747        0.143      109.509       20.683        0.036      340.174       14.011      860.655
08/23/2013  05:40:00     -123.891      -25.740       -9.419       33.143       25.702       16.221     1098.477      660.586      263.133        0.906        0.101      126.537       12.670        0.010      340.116       13.915      860.647
08/23/2013  05:41:00      -33.081      -18.118        2.666       25.898       22.384       15.211      670.709      501.047      231.382        0.142        0.070       37.718       16.219        0.185      340.120       13.921      860.642
08/23/2013  05:42:00       11.271       -5.491       -5.521       22.570       11.324        9.605      509.419      128.231       92.265        0.046        0.036       12.537        4.238        0.114      340.212       14.077      860.654
08/23/2013  05:43:00       -3.033      -20.673      -14.969       16.588       19.994       12.118      275.172      399.755      146.847        0.074        0.041       20.895       10.638        0.259      340.208       14.070      860.664
08/23/2013  05:44:00      -18.823      -31.214       -2.593       17.490       17.714       10.514      305.908      313.799      110.553        0.103        0.037       36.450        3.856        0.011      340.194       14.045      860.658
08/23/2013  05:45:00      -76.629      -35.643       -4.699       15.648       16.894       12.240      244.875      285.417      149.810        0.392        0.034       84.513        7.035        0.007      340.267       14.168      860.648
08/23/2013  05:46:00     -101.538      -42.772        6.119       23.480       18.926       13.296      551.299      358.181      176.788        0.663        0.054      110.179        9.123        0.007      340.358       14.324      860.649
08/23/2013  05:47:00      -56.571      -23.364        2.651       27.830       22.675       17.070      774.504      514.150      291.380        0.267        0.079       61.206        8.575        0.020      340.249       14.138      860.647
08/23/2013  05:48:00      -60.489      -18.095       -5.252       12.956        8.158        6.935      167.851       66.549       48.095        0.215        0.014       63.138        5.450        0.007      340.261       14.158      860.638
08/23/2013  05:49:00      -75.258      -34.610       -4.071       11.287       11.047        7.088      127.394      122.035       50.234        0.359        0.015       82.835        3.252        0.002      340.306       14.235      860.627
08/23/2013  05:50:00      -86.975      -41.839       -5.405       11.149       12.204       10.037      124.306      148.940      100.739        0.486        0.019       96.514        5.858        0.004      340.260       14.157      860.627
08/23/2013  05:51:00      -41.097      -37.127        6.471       43.973       22.631       16.738     1933.596      512.144      280.176        0.292        0.136       55.384       22.916        0.171      340.220       14.090      860.629
08/23/2013  05:52:00      -34.814      -45.812        9.405       28.010       25.632       17.655      784.538      656.990      311.693        0.258        0.088       57.539       14.477        0.063      340.200       14.058      860.644
08/23/2013  05:53:00      -63.364      -44.222       -1.637       35.543       25.549       17.539     1263.339      652.735      307.613        0.410        0.111       77.270       19.976        0.067      340.240       14.125      860.643
08/23/2013  05:54:00      -65.119      -61.225       -4.443       37.610       24.468       13.886     1414.521      598.671      192.835        0.511        0.110       89.382        8.637        0.009      340.188       14.035      860.650
08/23/2013  05:55:00      -59.391      -44.607        1.846       38.343       29.623       17.119     1470.173      877.510      293.061        0.408        0.132       74.278       18.194        0.060      340.192       14.044      860.645
08/23/2013  05:56:00      -45.230      -38.034        5.872       41.986       28.217       21.571     1762.842      796.173      465.325        0.328        0.151       59.096       14.440        0.060      340.160       13.989      860.645
08/23/2013  05:57:00      -51.865      -49.540       17.926       43.184       33.192       24.219     1864.853     1101.736      586.577        0.451        0.178       71.723       23.336        0.106      340.162       13.992      860.651
08/23/2013  05:58:00     -114.193      -63.094       -2.343       36.127       27.649       22.274     1305.124      764.485      496.142        0.980        0.128      130.464       19.900        0.023      340.193       14.044      860.653
08/23/2013  05:59:00      -97.231      -65.954        0.941       37.323       26.379       19.942     1393.009      695.862      397.670        0.815        0.124      117.490       19.912        0.029      340.185       14.032      860.652
08/23/2013  06:00:00     -105.959      -48.633       -3.989       28.872       25.480       14.115      833.613      649.254      199.233        0.764        0.084      116.586        9.006        0.006      340.167       14.000      860.653
08/23/2013  06:01:00     -101.625      -34.774        6.328       46.812       28.568       21.899     2191.373      816.115      479.580        0.753        0.174      107.410       26.738        0.062      340.125       13.930      860.651
08/23/2013  06:02:00      -77.288      -44.895        0.290       34.525       25.140       14.262     1191.970      632.040      203.410        0.501        0.101       89.382       13.301        0.022      340.113       13.911      860.642
08/23/2013  06:03:00      -45.876      -44.113        2.822       30.793       25.145       19.726      948.225      632.287      389.118        0.301        0.098       63.644       16.237        0.065      340.176       14.017      860.634
08/23/2013  06:04:00      -14.202      -40.752       13.772       33.496       30.402       24.117     1121.965      924.280      581.652        0.234        0.131       43.156       18.056        0.175      340.184       14.030      860.634
08/23/2013  06:05:00      -73.013      -84.893       -3.138       33.106       29.973       19.733     1095.994      898.369      389.386        0.747        0.119      111.973       16.742        0.022      340.290       14.208      860.631
08/23/2013  06:06:00      -96.034      -78.619       -2.314       31.363       49.072       19.817      983.642     2408.039      392.732        0.960        0.189      124.111       17.397        0.020      340.325       14.267      860.620
08/23/2013  06:07:00     -123.621     -108.149       -4.010       61.640       49.317       28.248     3799.508     2432.172      797.924        1.701        0.351      164.251       33.121        0.041      340.235       14.114      860.619
08/23/2013  06:08:00     -110.018      -80.258       -0.873       68.499       46.624       28.865     4692.065     2173.789      833.193        1.312        0.385      136.181       30.960        0.052      340.133       13.942      860.632
08/23/2013  06:09:00     -120.189      -92.746        2.992       53.119       41.889       32.551     2821.582     1754.679     1059.565        1.435        0.282      151.813       31.603        0.043      340.060       13.820      860.636
08/23/2013  06:10:00     -154.641     -114.188       -8.816       53.324       41.347       28.930     2843.460     1709.603      836.926        2.121        0.269      192.231       26.631        0.019      340.066       13.829      860.649
08/23/2013  06:11:00     -130.967      -80.967       -4.876       50.997       39.749       26.639     2600.698     1579.989      709.641        1.431        0.245      153.974       31.045        0.041      340.079       13.850      860.652
08/23/2013  06:12:00     -115.813      -97.090       -7.129       33.626       27.465       23.523     1130.695      754.321      553.341        1.266        0.122      151.126       22.041        0.021      340.057       13.817      860.658
08/23/2013  06:13:00      -96.332      -86.263       -1.872       35.142       27.148       23.501     1234.930      737.024      552.288        0.962        0.126      129.310       13.013        0.010      340.052       13.807      860.659
08/23/2013  06:14:00      -75.511      -71.986        2.901       38.403       37.981       22.733     1474.777     1442.558      516.783        0.716        0.172      104.326       19.068        0.033      340.054       13.809      860.656
08/23/2013  06:15:00     -119.043     -105.404       -2.135       52.639       34.254       28.620     2770.892     1173.324      819.084        1.502        0.238      159.001       24.253        0.023      340.057       13.815      860.652
08/23/2013  06:16:00     -153.815      -97.534       -1.000       52.275       45.733       32.514     2732.626     2091.536     1057.129        1.953        0.294      182.132       25.760        0.020      340.061       13.822      860.645
08/23/2013  06:17:00      -88.859      -80.371       -3.580       44.064       39.465       24.544     1941.675     1557.504      602.401        0.923        0.205      119.815       19.016        0.025      340.014       13.741      860.638
08/23/2013  06:18:00      -76.667      -56.231       -1.549       44.672       26.529       24.785     1995.630      703.784      614.274        0.618        0.166       95.077       26.879        0.080      340.024       13.762      860.629
08/23/2013  06:19:00      -97.152      -40.269        1.215       29.690       26.035       16.799      881.498      677.797      282.220        0.645        0.092      105.167       13.924        0.018      339.949       13.633      860.624
08/23/2013  06:20:00      -65.521      -10.416        9.358       37.891       26.482       18.593     1435.726      701.306      345.704        0.349        0.124       66.344       18.192        0.075      339.863       13.486      860.628
08/23/2013  06:21:00      -41.869      -42.129        8.959       26.976       28.212       18.748      727.714      795.898      351.505        0.274        0.094       59.396       13.741        0.054      339.841       13.450      860.647
08/23/2013  06:22:00      -65.150      -24.544        0.474       18.365       30.909       12.029      337.281      955.348      144.707        0.314        0.072       69.620       10.517        0.023      339.809       13.397      860.673
08/23/2013  06:23:00      -44.080      -27.215       11.518       36.606       20.867       18.354     1339.967      435.417      336.853        0.246        0.106       51.804       21.621        0.174      339.859       13.482      860.688
08/23/2013  06:24:00      -30.843      -56.011        9.339       31.527       26.569       22.837      993.949      705.897      521.524        0.320        0.111       63.941       18.408        0.083      339.870       13.500      860.693
08/23/2013  06:25:00      -52.522      -42.068        7.367       39.936       30.886       21.957     1594.913      953.973      482.123        0.381        0.152       67.292       17.372        0.067      339.858       13.480      860.693
08/23/2013  06:26:00      -82.783      -67.411       -1.408       33.935       29.857       18.986     1151.609      891.417      360.452        0.690        0.120      106.758       19.688        0.034      339.782       13.353      860.686
08/23/2013  06:27:00      -58.860      -30.333        0.471       42.132       25.290       19.957     1775.097      639.563      398.277        0.360        0.141       66.216       18.972        0.082      339.766       13.324      860.683
08/23/2013  06:28:00      -63.671      -40.634       -7.815       20.623       23.699       12.498      425.315      561.648      156.191        0.345        0.057       75.532       12.978        0.030      339.787       13.360      860.673
08/23/2013  06:29:00      -43.069        0.923        1.661       29.889       24.761       12.137      893.344      613.115      147.306        0.176        0.083       43.079       12.439        0.083      339.700       13.215      860.665
08/23/2013  06:30:00      -91.093        1.967       -9.038       24.444       23.196       15.536      597.504      538.057      241.374        0.488        0.069       91.114       12.505        0.019      339.599       13.043      860.652
08/23/2013  06:31:00     -123.353       -4.358      -10.095       36.402       31.695       19.741     1325.109     1004.561      389.699        0.903        0.136      123.430       17.236        0.019      339.562       12.978      860.654
08/23/2013  06:32:00     -131.335      -67.842       -6.267       25.792       37.687       17.129      665.240     1420.340      293.402        1.213        0.119      147.823       15.071        0.010      339.673       13.168      860.656
08/23/2013  06:33:00      -77.995      -61.185        2.601       55.115       32.897       23.958     3037.709     1082.191      573.997        0.726        0.235       99.130       27.297        0.076      339.705       13.222      860.656
08/23/2013  06:34:00     -118.847      -45.939        6.778       50.068       38.480       24.989     2506.792     1480.706      624.427        1.045        0.231      127.417       27.938        0.048      339.704       13.219      860.663
08/23/2013  06:35:00      -99.103      -61.766        4.905       45.217       32.624       25.429     2044.615     1064.315      646.657        0.871        0.188      116.775       27.878        0.057      339.758       13.312      860.670
08/23/2013  06:36:00     -113.462      -77.459        1.838       43.306       34.516       24.858     1875.381     1191.380      617.929        1.128        0.184      137.381       24.649        0.032      339.733       13.269      860.672
08/23/2013  06:37:00      -98.474      -86.008        3.231       50.198       40.648       29.021     2519.848     1652.269      842.198        1.106        0.251      130.746       31.018        0.056      339.728       13.260      860.677
08/23/2013  06:38:00      -84.999      -52.354       -6.398       35.358       29.865       19.974     1250.223      891.914      398.950        0.627        0.127       99.829       18.528        0.034      339.774       13.338      860.690
08/23/2013  06:39:00      -85.564      -49.180        1.177       29.177       25.787       13.878      851.276      664.986      192.612        0.572        0.085       98.691       11.365        0.013      339.841       13.451      860.698
08/23/2013  06:40:00      -95.232      -48.768       -2.674       25.975       21.461       18.873      674.721      460.555      356.203        0.647        0.075      106.993       18.001        0.028      339.811       13.401      860.708
08/23/2013  06:41:00      -78.789      -40.974        3.909       18.686       25.592       15.520      349.174      654.958      240.885        0.457        0.062       88.807       11.177        0.016      339.916       13.578      860.720
08/23/2013  06:42:00     -100.134      -34.638       -8.360       19.130       20.143       12.244      365.953      405.748      149.924        0.611        0.046      105.956        6.946        0.004      339.902       13.553      860.724
08/23/2013  06:43:00      -88.894       -2.990       -3.915       40.739       30.483       14.131     1659.659      929.240      199.684        0.536        0.139       88.944       13.075        0.022      339.831       13.435      860.736
08/23/2013  06:44:00      -96.496       -3.858       -1.068       46.411       36.794       22.875     2153.990     1353.818      523.264        0.668        0.202       96.573       24.900        0.066      339.877       13.513      860.750
08/23/2013  06:45:00     -134.750       -7.940       -9.333       47.687       29.144       22.809     2274.048      849.360      520.240        1.098        0.182      134.983       27.129        0.040      339.901       13.552      860.762
08/23/2013  06:46:00     -156.698      -36.220      -20.031       24.464       28.635       20.488      598.492      819.980      419.752        1.405        0.092      160.829       12.770        0.006      339.869       13.497      860.766
08/23/2013  06:47:00     -103.955      -56.346       -4.719       46.491       27.710       19.136     2161.459      767.829      366.184        0.865        0.165      118.243       22.799        0.037      339.821       13.418      860.766
08/23/2013  06:48:00     -101.054      -54.428       -5.418       38.627       26.315       21.860     1492.064      692.480      477.863        0.793        0.133      114.779       19.029        0.027      339.842       13.453      860.766
08/23/2013  06:49:00     -101.109      -61.437        0.694       39.059       31.871       24.633     1525.611     1015.772      606.793        0.857        0.157      118.311       21.930        0.034      339.810       13.400      860.758
08/23/2013  06:50:00      -95.267      -65.083      -11.229       22.202       23.075       15.171      492.941      532.448      230.162        0.735        0.063      115.375       12.352        0.011      339.882       13.521      860.753
08/23/2013  06:51:00      -78.484      -30.809       -3.549       42.665       27.064       20.728     1820.279      732.466      429.651        0.505        0.149       84.314       15.687        0.035      339.900       13.550      860.752
08/23/2013  06:52:00      -77.942       -6.557       -6.824       19.538       22.429       16.924      381.745      503.076      286.418        0.367        0.059       78.217       12.002        0.024      339.870       13.502      860.758
08/23/2013  06:53:00      -94.195      -19.932       -7.395       17.639       18.355       12.577      311.135      336.888      158.182        0.507        0.040       96.281        5.655        0.003      339.895       13.541      860.758
08/23/2013  06:54:00      -77.537      -14.234       -5.760       21.020       14.286       13.218      441.859      204.082      174.710        0.353        0.041       78.833        7.397        0.009      339.850       13.466      860.765
08/23/2013  06:55:00        3.664      -21.028       14.028       20.138       25.833       14.263      405.529      667.366      203.437        0.096        0.064       21.345        9.778        0.210      339.947       13.630      860.773
08/23/2013  06:56:00      -22.845      -18.822       12.301       38.045       24.885       17.818     1447.422      619.275      317.474        0.171        0.119       29.600       21.591        0.532      339.857       13.478      860.780
08/23/2013  06:57:00      -50.436      -36.233        8.768       53.910       27.180       25.814     2906.293      738.773      666.363        0.412        0.216       62.102       34.040        0.300      339.911       13.569      860.794
08/23/2013  06:58:00      -92.058      -62.835       -5.128       50.466       30.396       24.004     2546.842      923.925      576.182        0.825        0.202      111.459       27.909        0.063      339.912       13.572      860.809
08/23/2013  06:59:00      -92.299      -78.299       -2.408       35.299       29.191       21.100     1246.009      852.092      445.197        0.860        0.127      121.036       15.646        0.017      339.898       13.545      860.820
08/23/2013  07:00:00     -114.858      -82.886       -3.164       42.419       36.425       28.483     1799.373     1326.806      811.285        1.200        0.197      141.642       26.955        0.036      339.839       13.448      860.825
08/23/2013  07:01:00     -139.507      -89.412      -10.267       42.328       37.325       26.836     1791.661     1393.166      720.160        1.573        0.195      165.700       24.311        0.022      339.847       13.460      860.833
08/23/2013  07:02:00     -110.734      -90.537       -6.246       50.171       32.514       24.310     2517.125     1057.158      590.996        1.233        0.208      143.035       26.403        0.034      339.898       13.550      860.831
08/23/2013  07:03:00      -86.867      -76.110       -1.697       34.711       26.863       17.099     1204.833      721.598      292.383        0.778        0.111      115.492       14.775        0.016      339.939       13.617      860.842
08/23/2013  07:04:00      -98.061      -78.161       -4.824       31.198       27.445       23.260      973.297      753.253      541.009        0.901        0.113      125.400       22.740        0.033      339.941       13.618      860.842
08/23/2013  07:05:00      -87.861      -92.768       -4.463       37.906       41.393       24.058     1436.846     1713.386      578.792        1.004        0.186      127.771       16.360        0.016      339.955       13.643      860.846
08/23/2013  07:06:00      -81.171      -58.855        3.635       44.249       37.269       24.688     1957.969     1388.972      609.484        0.701        0.198      100.263       24.905        0.062      339.926       13.594      860.848
08/23/2013  07:07:00      -74.713      -73.458       -3.579       50.947       35.267       27.917     2595.558     1243.758      779.333        0.780        0.231      104.776       26.857        0.066      339.912       13.571      860.852
08/23/2013  07:08:00     -128.596      -61.744       -9.770       37.297       31.185       22.204     1391.050      972.521      493.004        1.165        0.143      142.651       21.328        0.022      339.964       13.658      860.855
08/23/2013  07:09:00      -97.672      -57.780        1.750       47.801       39.454       21.912     2284.979     1556.657      480.128        0.860        0.216      113.482       22.381        0.039      340.005       13.726      860.864
08/23/2013  07:10:00     -118.699      -43.124       -6.335       16.237       17.538       13.259      263.627      307.582      175.790        0.837        0.037      126.290        7.359        0.003      340.021       13.755      860.878
08/23/2013  07:11:00      -96.424      -37.559       -0.697       44.414       24.985       17.344     1972.575      624.272      300.819        0.680        0.145      103.481       20.837        0.041      340.020       13.753      860.885
08/23/2013  07:12:00      -98.286      -35.997       -1.009       31.883       25.462       14.381     1016.551      648.330      206.821        0.641        0.094      104.671       12.346        0.014      340.058       13.816      860.901
08/23/2013  07:13:00      -58.260      -14.314       -0.513       19.857       17.955       12.270      394.298      322.381      150.552        0.223        0.043       59.992        8.695        0.021      340.086       13.863      860.916
08/23/2013  07:14:00      -26.086      -12.576       -0.520       18.703       15.359        8.426      349.817      235.897       71.000        0.075        0.033       28.959        5.178        0.032      340.134       13.944      860.923
08/23/2013  07:15:00       -0.895      -17.472        5.661        8.851       14.110       10.635       78.334      199.101      113.106        0.036        0.020       17.495        8.029        0.211      340.227       14.100      860.923
08/23/2013  07:16:00      -31.973      -10.551        1.639       19.343       18.973       10.430      374.138      359.985      108.785        0.099        0.042       33.669        6.124        0.033      340.249       14.138      860.923
08/23/2013  07:17:00      -45.344       -8.219       -7.690        9.261       12.865        7.808       85.770      165.510       60.963        0.125        0.016       46.083        5.894        0.016      340.268       14.171      860.928
08/23/2013  07:18:00      -40.290      -26.733        2.508       17.116       13.969        9.318      292.967      195.128       86.833        0.146        0.029       48.352        9.241        0.037      340.332       14.279      860.935
08/23/2013  07:19:00      -14.239      -12.790        6.193       15.650       13.090        9.363      244.935      171.346       87.674        0.045        0.025       19.140        8.207        0.184      340.387       14.372      860.938
08/23/2013  07:20:00      -20.095      -24.248        0.855       16.464       15.115       13.151      271.073      228.455      172.941        0.083        0.034       31.492        8.236        0.068      340.277       14.187      860.929
08/23/2013  07:21:00      -51.266      -29.213        6.359       25.513       14.246       12.629      650.906      202.938      159.483        0.227        0.051       59.005       13.224        0.050      340.241       14.125      860.925
08/23/2013  07:22:00      -53.346      -24.063      -11.931       18.841       16.653        9.380      354.976      277.329       87.993        0.214        0.036       58.522        6.317        0.012      340.244       14.129      860.920
08/23/2013  07:23:00      -47.581      -22.469      -12.093       16.558       11.112       10.599      274.173      123.472      112.333        0.171        0.025       52.619        8.859        0.028      340.298       14.223      860.903
08/23/2013  07:24:00      -55.292      -15.057       -6.008       10.531       10.727        6.609      110.912      115.076       43.674        0.179        0.013       57.306        5.288        0.009      340.280       14.189      860.887
08/23/2013  07:25:00      -50.768      -22.209       -7.506        6.665        5.585        4.355       44.423       31.194       18.967        0.161        0.005       55.413        3.262        0.003      340.335       14.281      860.889
08/23/2013  07:26:00      -40.903      -21.225       -0.594       11.317       10.840       10.639      128.080      117.516      113.179        0.124        0.018       46.082        4.526        0.010      340.348       14.308      860.884
08/23/2013  07:27:00       -8.860       -3.847        2.098        7.684        6.515        4.987       59.049       42.451       24.870        0.011        0.006        9.659        3.242        0.113      340.427       14.440      860.888
08/23/2013  07:28:00       18.550      -47.424       -2.867       41.542       25.845       22.061     1725.704      667.955      486.667        0.274        0.144       50.923        7.159        0.020      340.093       13.876      860.880
08/23/2013  07:29:00       39.321      -51.422       -1.662       33.757       23.825       24.207     1139.530      567.608      585.958        0.324        0.115       64.733       11.465        0.031      340.138       13.952      860.877
08/23/2013  07:30:00        8.369      -10.818       -8.426       23.749       25.720       18.829      564.016      661.502      354.531        0.092        0.079       13.677       11.983        0.768      340.253       14.146      860.869
08/23/2013  07:31:00       24.768      -18.683       -5.648       15.535       20.291       16.052      241.333      411.728      257.671        0.095        0.046       31.024       10.984        0.125      340.227       14.102      860.879
08/23/2013  07:32:00        9.680       -9.613       -4.435       15.823       21.035       13.634      250.360      442.456      185.878        0.054        0.044       13.642        4.908        0.129      340.433       14.450      860.868
08/23/2013  07:33:00       12.062        8.223      -12.091       13.569       23.255       11.907      184.123      540.785      141.769        0.061        0.043       14.598        7.187        0.242      340.382       14.365      860.878
08/23/2013  07:34:00       38.861        6.588       -0.164       25.142       20.900       16.920      632.116      436.827      286.281        0.145        0.068       39.415       12.387        0.099      340.378       14.359      860.883
08/23/2013  07:35:00       27.390        1.904       19.294       21.060       14.570       20.841      443.525      212.280      434.338        0.111        0.055       27.456       16.784        0.374      340.472       14.516      860.894
08/23/2013  07:36:00       33.779      -27.768       11.259       26.719       32.561       26.556      713.897     1060.224      705.244        0.226        0.124       43.727       11.436        0.068      340.082       13.856      860.895
08/23/2013  07:37:00       16.500       35.453       50.840       24.525       31.549       13.902      601.472      995.310      193.275        0.295        0.090       39.105       14.844        0.144      340.465       14.505      860.901
08/23/2013  07:38:00       14.417       26.945       45.546       31.624       29.866       20.477     1000.091      891.989      419.298        0.266        0.116       30.560        8.929        0.085      340.536       14.623      860.905
08/23/2013  07:39:00       22.377       36.224       25.188       26.227       28.497       22.257      687.833      812.055      495.369        0.222        0.100       42.578       11.646        0.075      340.500       14.562      860.907
08/23/2013  07:40:00       39.396       39.802       28.148       26.101       28.094       18.872      681.282      789.246      356.167        0.288        0.091       56.002        8.337        0.022      340.470       14.513      860.908
08/23/2013  07:41:00       -0.875       -6.843        0.788       16.758       16.817       15.665      280.822      282.813      245.386        0.043        0.040        6.899        7.306        1.121      340.322       14.263      860.903
08/23/2013  07:42:00       -9.023       -6.401        2.588        8.341        6.430        7.061       69.572       41.349       49.862        0.014        0.008       11.063        2.459        0.049      340.378       14.358      860.905
08/23/2013  07:43:00       27.264       13.374       10.061       18.584       14.329       13.454      345.347      205.316      181.004        0.088        0.037       30.368        9.529        0.098      340.557       14.659      860.903
08/23/2013  07:44:00       22.288       15.328        2.709       10.061       10.027       10.690      101.231      100.541      114.269        0.053        0.016       27.050        5.666        0.044      340.486       14.540      860.901
08/23/2013  07:45:00       41.729       25.836        7.484       14.326       13.356       13.190      205.248      178.371      173.984        0.151        0.028       49.080        3.606        0.005      340.511       14.582      860.885
08/23/2013  07:46:00       42.726       23.515       11.543       19.875       18.045       19.810      395.002      325.619      392.425        0.181        0.056       48.769        8.929        0.034      340.494       14.553      860.889
08/23/2013  07:47:00       54.963       32.307       12.910       17.190       13.118       15.181      295.486      172.087      230.458        0.246        0.035       63.755        5.671        0.008      340.459       14.494      860.880
08/23/2013  07:48:00       30.804      -40.966        6.299       22.601       43.001       23.898      510.822     1849.065      571.112        0.280        0.147       51.255       18.706        0.133      340.174       14.012      860.879
08/23/2013  07:49:00       -0.121      -30.228       17.817       16.013       27.845       19.504      256.425      775.370      380.420        0.132        0.071       30.229       16.405        0.295      340.398       14.390      860.864
08/23/2013  07:50:00       23.221      -53.705       -1.133       27.425       17.558       20.368      752.126      308.276      414.854        0.245        0.074       58.510       11.295        0.037      340.171       14.007      860.871
08/23/2013  07:51:00       -0.224      -21.802        6.481       13.909       27.652       22.042      193.460      764.647      485.844        0.098        0.072       21.804       19.872        0.831      340.580       14.697      860.868
08/23/2013  07:52:00       -8.041       -7.071       19.758       10.941       22.235       17.448      119.707      494.406      304.420        0.071        0.046       10.707       12.075        1.272      340.678       14.863      860.881
08/23/2013  07:53:00       18.845        2.110       20.942       19.929       22.817       13.333      397.170      520.618      177.768        0.095        0.055       18.963       10.113        0.284      340.739       14.968      860.893
08/23/2013  07:54:00        3.342       -0.772       19.568       10.387       26.939       10.062      107.891      725.711      101.236        0.066        0.047        3.430        5.431        2.507      340.775       15.028      860.914
08/23/2013  07:55:00       26.283       11.108       24.839       14.983       16.845       15.436      224.476      283.768      238.270        0.109        0.037       28.534       11.026        0.149      340.739       14.968      860.918
08/23/2013  07:56:00       37.454       40.097        8.002       21.287       23.649       15.906      453.135      559.294      253.002        0.217        0.063       54.869       12.971        0.056      340.553       14.653      860.939
08/23/2013  07:57:00        5.363        3.618       12.803       19.631       15.764       17.309      385.390      248.505      299.615        0.057        0.047        6.469        9.557        2.183      340.763       15.009      860.940
08/23/2013  07:58:00        0.220        6.122       11.740       13.763       17.759       15.794      189.425      315.386      249.453        0.046        0.038        6.126        7.057        1.327      340.931       15.293      860.951
08/23/2013  07:59:00       17.789        4.758        9.410       17.219       17.033       15.115      296.506      290.139      228.451        0.062        0.041       18.414        9.942        0.291      340.844       15.146      860.950
08/23/2013  08:00:00       44.337      -14.654       16.172       35.761       21.296       18.797     1278.874      453.501      353.338        0.226        0.104       46.696       18.981        0.165      340.727       14.947      860.947
08/23/2013  08:01:00       21.347       13.344        4.298       13.114       15.952       17.964      171.974      254.461      322.702        0.070        0.037       25.175        8.841        0.123      340.745       14.978      860.941
08/23/2013  08:02:00       33.606      -24.727        3.477       32.347       25.073       19.553     1046.358      628.654      382.322        0.190        0.103       41.723       14.183        0.116      340.914       15.262      860.928
08/23/2013  08:03:00       -6.459      -11.219       18.718       10.831       18.299       10.313      117.312      334.840      106.360        0.054        0.028       12.945        6.991        0.292      341.133       15.635      860.929
08/23/2013  08:04:00       14.838        4.479       22.737       26.378       17.551       18.123      695.804      308.028      328.455        0.104        0.067       15.499       10.514        0.460      340.998       15.406      860.939
08/23/2013  08:05:00       27.256       -7.502        7.237       16.555       12.271       17.797      274.065      150.567      316.751        0.080        0.037       28.270        6.585        0.054      340.910       15.257      860.946
08/23/2013  08:06:00       26.175      -12.393       23.366       21.415       18.510       18.893      458.591      342.607      356.958        0.127        0.058       28.960       16.264        0.315      340.989       15.390      860.954
08/23/2013  08:07:00       21.707       -1.796       -7.220       14.420       20.838       21.812      207.951      434.205      475.765        0.082        0.056       21.781        8.817        0.164      340.889       15.223      860.963
08/23/2013  08:08:00       28.527      -42.183      -18.956       20.745       30.690       18.722      430.355      941.883      350.510        0.234        0.086       50.924       16.568        0.106      340.726       14.945      860.976
08/23/2013  08:09:00        1.210      -11.506       -4.772       19.725       28.000       18.790      389.066      783.976      353.069        0.084        0.076       11.569       15.782        1.861      340.841       15.140      860.980
08/23/2013  08:10:00       16.238      -47.683       -9.157       30.094       30.464       18.316      905.658      928.035      335.482        0.239        0.108       50.372       11.049        0.048      340.893       15.228      860.994
08/23/2013  08:11:00      -20.858      -26.889       -5.005       16.031       17.362       13.525      256.995      301.450      182.935        0.096        0.037       34.030        8.496        0.062      341.020       15.444      861.006
08/23/2013  08:12:00      -22.028      -52.762       -9.017       25.710       21.895       16.879      661.018      479.402      284.895        0.239        0.071       57.175       12.151        0.045      341.075       15.536      861.022
08/23/2013  08:13:00      -44.544      -62.603        3.495       52.855       49.474       23.216     2793.656     2447.664      538.974        0.585        0.289       76.833       23.404        0.093      341.049       15.491      861.023
08/23/2013  08:14:00      -58.657      -97.559        3.520       36.925       37.940       22.051     1363.468     1439.410      486.247        0.813        0.164      113.835       18.274        0.026      340.907       15.252      861.035
08/23/2013  08:15:00      -39.234      -37.410       14.199       49.488       45.694       25.335     2449.070     2087.919      641.876        0.416        0.259       54.211       29.787        0.302      341.004       15.415      861.035
08/23/2013  08:16:00      -96.184      -58.648       -5.852       44.881       42.979       23.854     2014.272     1847.157      568.996        0.858        0.222      112.654       25.123        0.050      340.886       15.216      861.034
08/23/2013  08:17:00     -114.812      -94.923       -6.925       21.503       29.301       19.062      462.359      858.529      363.355        1.196        0.084      148.970       15.917        0.011      340.823       15.111      861.028
08/23/2013  08:18:00      -73.012      -81.121       -3.242       45.075       35.339       28.491     2031.725     1248.846      811.710        0.801        0.205      109.139       25.425        0.054      340.901       15.241      861.023
08/23/2013  08:19:00      -85.659      -66.338       -4.437       52.093       28.880       22.496     2713.658      834.046      506.056        0.791        0.203      108.342       25.742        0.056      340.925       15.283      861.015
08/23/2013  08:20:00      -85.681      -45.799        4.106       53.839       28.130       23.966     2898.652      791.308      574.381        0.686        0.213       97.153       19.731        0.041      340.982       15.379      861.016
08/23/2013  08:21:00      -68.639      -49.338        2.343       58.671       31.977       29.870     3442.318     1022.515      892.217        0.625        0.268       84.531       25.731        0.093      341.024       15.449      861.018
08/23/2013  08:22:00      -58.433      -78.217        6.815       56.163       32.512       27.935     3154.294     1057.028      780.363        0.728        0.250       97.633       27.288        0.078      341.059       15.509      861.011
08/23/2013  08:23:00     -101.057      -69.462       -8.220       31.944       45.146       19.689     1020.428     2038.140      387.676        0.928        0.172      122.628       22.623        0.034      340.972       15.361      861.012
08/23/2013  08:24:00      -62.906      -64.521        0.000       41.634       39.566       24.923     1733.423     1565.488      621.142        0.602        0.196       90.112       26.611        0.087      341.077       15.540      861.007
08/23/2013  08:25:00      -58.879      -54.835        0.447       27.191       41.164       16.170      739.337     1694.443      261.484        0.458        0.135       80.459       11.971        0.022      341.039       15.475      861.005
08/23/2013  08:26:00      -40.284      -43.436       11.649       35.684       34.383       20.144     1273.376     1182.206      405.774        0.325        0.143       59.241       22.645        0.146      341.221       15.783      861.000
08/23/2013  08:27:00      -66.161      -78.376       -4.544       40.739       27.852       23.934     1659.670      775.749      572.825        0.677        0.150      102.568       23.077        0.051      341.069       15.525      861.001
08/23/2013  08:28:00      -42.961      -99.066        0.253       25.652       29.685       17.579      658.007      881.213      309.032        0.675        0.092      107.980       15.540        0.021      341.109       15.596      861.000
08/23/2013  08:29:00      -49.853      -37.817       -2.137       30.586       33.508       19.584      935.524     1122.780      383.552        0.318        0.122       62.573       13.049        0.043      341.225       15.790      860.999
08/23/2013  08:30:00      -77.607      -66.450       -5.495       31.488       22.349       21.577      991.516      499.460      465.578        0.621        0.098      102.169        8.480        0.007      341.149       15.660      861.006
08/23/2013  08:31:00      -29.115      -33.716        3.540       34.014       28.675       19.050     1156.922      822.282      362.912        0.217        0.117       44.547       11.779        0.070      341.221       15.784      861.011
08/23/2013  08:32:00      -50.583      -67.920        5.661       34.594       44.789       26.850     1196.770     2006.053      720.939        0.556        0.196       84.687       25.696        0.092      341.241       15.817      861.025
08/23/2013  08:33:00      -47.425      -60.669       11.148       49.420       19.980       23.665     2442.324      399.217      560.015        0.473        0.170       77.006       24.093        0.098      341.287       15.895      861.032
08/23/2013  08:34:00      -53.048      -61.615       -1.209       36.941       35.572       18.459     1364.641     1265.393      340.738        0.479        0.149       81.305       18.094        0.050      341.289       15.898      861.048
08/23/2013  08:35:00      -72.565      -16.070       11.472       35.513       39.762       23.255     1261.141     1580.978      540.801        0.452        0.169       74.323       21.450        0.083      341.397       16.082      861.052
08/23/2013  08:36:00      -67.328      -33.740       -2.393       32.149       19.374       16.276     1033.588      375.362      264.919        0.368        0.084       75.309       12.032        0.026      341.375       16.043      861.053
08/23/2013  08:37:00      -38.476      -14.153       -1.371       26.925       15.825       14.934      724.962      250.436      223.012        0.144        0.060       40.997       14.102        0.118      341.483       16.228      861.053
08/23/2013  08:38:00      -36.701      -14.213       -4.910       26.053       28.706       15.235      678.758      824.008      232.100        0.165        0.087       39.357       13.772        0.122      341.480       16.221      861.043
08/23/2013  08:39:00      -16.224      -16.169       13.029       32.277       21.658       20.386     1041.804      469.062      415.579        0.131        0.096       22.905       20.908        0.833      341.712       16.615      861.039
08/23/2013  08:40:00      -49.685      -38.068       -1.215       26.033       20.372       13.540      677.713      415.008      183.344        0.260        0.064       62.592       12.477        0.040      341.453       16.175      861.015
08/23/2013  08:41:00      -71.481      -28.917       -9.344       23.669       12.897        7.410      560.241      166.324       54.905        0.341        0.039       77.109        5.302        0.005      341.406       16.095      861.000
08/23/2013  08:42:00      -39.653       -8.488       -5.274       24.063       19.011       13.118      579.043      361.437      172.082        0.139        0.056       40.551       12.305        0.092      341.572       16.377      860.973
08/23/2013  08:43:00       -5.387      -49.815        1.181       18.163       29.379       20.180      329.882      863.117      407.240        0.206        0.080       50.106       16.227        0.105      341.521       16.292      860.961
08/23/2013  08:44:00      -23.634      -27.771      -11.869       12.374       19.401       11.783      153.112      376.380      138.840        0.107        0.033       36.466        6.373        0.031      341.495       16.248      860.959
08/23/2013  08:45:00      -18.364      -20.092      -14.422       16.547       12.988       15.233      273.793      168.679      232.057        0.081        0.034       27.220       11.390        0.175      341.604       16.432      860.947
08/23/2013  08:46:00      -29.134       13.228       -7.623        6.818        6.665       10.044       46.478       44.417      100.885        0.064        0.010       31.996        6.056        0.036      341.541       16.323      860.940
08/23/2013  08:47:00      -19.304       10.372        0.442       11.421       10.878       12.504      130.432      118.335      156.338        0.044        0.020       21.914       10.672        0.237      341.723       16.634      860.936
08/23/2013  08:48:00       10.265       12.587        4.839       15.763       14.199       15.099      248.476      201.599      227.981        0.048        0.034       16.242        9.396        0.335      341.874       16.890      860.926
08/23/2013  08:49:00       52.180       34.099        9.747       12.338       11.010       17.313      152.225      121.218      299.735        0.228        0.029       62.334        8.834        0.020      341.798       16.761      860.931
08/23/2013  08:50:00       29.739       15.355        5.867       11.417       15.549       14.894      130.346      241.779      221.835        0.087        0.030       33.470        6.944        0.043      341.718       16.626      860.924
08/23/2013  08:51:00       12.536        7.608        6.970       19.425       14.465       19.060      377.335      209.233      363.280        0.061        0.047       14.664       15.475        1.114      341.650       16.511      860.931
08/23/2013  08:52:00        0.786       11.478       -5.197       14.421       13.255       13.498      207.976      175.683      182.202        0.036        0.028       11.505        5.850        0.259      341.791       16.749      860.925
08/23/2013  08:53:00        8.662       10.115        1.063       10.764       10.125       11.430      115.854      102.515      130.655        0.026        0.017       13.317        5.882        0.195      341.981       17.072      860.923
08/23/2013  08:54:00       15.868        0.679       -6.193       10.383        9.163        8.248      107.815       83.961       68.025        0.028        0.013       15.883        5.531        0.121      341.827       16.811      860.922
08/23/2013  08:55:00       20.633       12.693       -7.172       11.490       14.522       12.381      132.015      210.879      153.280        0.057        0.025       24.225       10.643        0.193      341.876       16.893      860.917
08/23/2013  08:56:00       13.763        6.494      -13.316       10.121       14.287       12.686      102.445      204.132      160.927        0.044        0.023       15.219        7.557        0.247      341.770       16.713      860.912
08/23/2013  08:57:00        2.081       34.519       -1.983       13.424       23.797       11.109      180.200      566.311      123.418        0.103        0.043       34.582       12.858        0.138      342.043       17.178      860.910
08/23/2013  08:58:00       -5.179       73.088       -5.937       16.544       20.934       18.436      273.697      438.213      339.868        0.323        0.053       73.271       13.401        0.033      341.985       17.077      860.902
08/23/2013  08:59:00       25.446       31.980       12.032       21.022       28.945       20.469      441.904      837.841      418.969        0.176        0.085       40.868       16.341        0.160      342.245       17.521      860.897
08/23/2013  09:00:00       43.980       24.817       12.084       18.212       18.420       19.636      331.693      339.292      385.582        0.188        0.053       50.499       12.177        0.058      342.053       17.194      860.891
08/23/2013  09:01:00       40.924       33.132       -3.293       24.902       21.788       17.205      620.121      474.716      296.004        0.209        0.070       52.655       10.283        0.038      341.991       17.088      860.875
08/23/2013  09:02:00       13.890       30.216        1.855       24.342       19.159       19.148      592.516      367.071      366.647        0.122        0.066       33.255       12.259        0.136      342.213       17.467      860.865
08/23/2013  09:03:00       21.879       10.344       13.078       27.567       17.287       21.390      759.924      298.836      457.540        0.114        0.076       24.201       19.028        0.618      342.465       17.894      860.862
08/23/2013  09:04:00       30.025       28.703        2.362       14.270       18.256       20.584      203.625      333.278      423.700        0.135        0.048       41.537       11.703        0.079      342.090       17.257      860.853
08/23/2013  09:05:00        0.384       25.368        0.911       18.786       18.380       12.433      352.918      337.813      154.574        0.074        0.042       25.371        8.995        0.126      342.222       17.481      860.850
08/23/2013  09:06:00       -9.916       12.341        8.489       17.870       13.552       12.602      319.326      183.650      158.804        0.049        0.033       15.832       12.766        0.650      342.574       18.079      860.848
08/23/2013  09:07:00      -14.507        2.230        4.907       16.363       14.220       10.913      267.754      202.215      119.095        0.041        0.029       14.677        8.608        0.344      342.372       17.737      860.851
08/23/2013  09:08:00      -17.959       19.547       -9.342       20.084       11.092       18.382      403.347      123.043      337.910        0.083        0.043       26.545       11.085        0.174      342.118       17.304      860.860
08/23/2013  09:09:00      -12.742        3.888       -5.562       12.496       15.536       10.574      156.141      241.374      111.812        0.036        0.025       13.322        8.253        0.384      342.030       17.154      860.859
08/23/2013  09:10:00      -16.065       -9.807      -10.436        9.520       13.485       10.465       90.625      181.858      109.527        0.042        0.019       18.822        6.993        0.138      341.988       17.084      860.864
08/23/2013  09:11:00       16.895        3.995       25.493       24.085       15.056       17.141      580.074      226.697      293.827        0.103        0.055       17.361       10.369        0.357      342.291       17.597      860.866
08/23/2013  09:12:00       12.527        6.308        5.197       15.372       20.104       17.428      236.306      404.184      303.721        0.058        0.047       14.025       13.728        0.958      342.265       17.553      860.855
08/23/2013  09:13:00       30.459       19.449        8.068       26.522       19.900       16.316      703.415      396.025      266.214        0.137        0.068       36.139       14.176        0.154      342.379       17.747      860.842
08/23/2013  09:14:00       -4.316       61.535        0.707       16.019       20.424       19.164      256.605      417.146      367.248        0.242        0.052       61.686        8.188        0.018      342.574       18.079      860.831
08/23/2013  09:15:00        3.454       43.895       18.929       18.295       32.478       19.595      334.725     1054.841      383.979        0.203        0.089       44.031       18.795        0.182      342.937       18.698      860.810
08/23/2013  09:16:00       31.080       38.157       -8.054       26.275       18.519       15.504      690.385      342.946      240.376        0.188        0.064       49.213       11.861        0.058      342.480       17.920      860.810
08/23/2013  09:17:00       35.690       60.323        1.214       22.732       26.854       21.126      516.723      721.132      446.323        0.330        0.084       70.090       16.530        0.056      342.622       18.160      860.801
08/23/2013  09:18:00       19.454       70.453       -2.702       26.885       24.442       24.246      722.815      597.433      587.847        0.363        0.095       73.089       17.117        0.055      342.607       18.136      860.793
08/23/2013  09:19:00       11.362       28.763        9.098       23.345       30.660       23.669      544.989      940.039      560.205        0.154        0.102       30.926       20.178        0.426      342.815       18.490      860.794
08/23/2013  09:20:00       22.091       22.376        7.711       15.876       17.110       21.550      252.056      292.758      464.418        0.103        0.050       31.443       15.926        0.257      342.684       18.266      860.790
08/23/2013  09:21:00       32.292       30.241        0.021       11.477       17.473       13.276      131.714      305.322      176.259        0.129        0.031       44.241        7.341        0.028      342.419       17.815      860.784
08/23/2013  09:22:00        9.658       -5.960        5.787       13.351       16.264       16.001      178.261      264.514      256.030        0.043        0.035       11.349        9.934        0.766      342.619       18.156      860.776
08/23/2013  09:23:00       31.120       36.649       10.628       26.985       26.275       17.524      728.192      690.378      307.088        0.207        0.086       48.079       12.834        0.071      342.507       17.965      860.770
08/23/2013  09:24:00       54.671       47.526        5.593       15.966       14.738       21.003      254.902      217.213      441.145        0.310        0.046       72.441        9.101        0.016      342.464       17.892      860.769
08/23/2013  09:25:00       46.138       36.729       -2.374       17.358       23.256       19.315      301.286      540.844      373.053        0.235        0.061       58.972       15.042        0.065      342.257       17.540      860.760
08/23/2013  09:26:00       46.401       40.656       19.387       20.719       22.384       22.531      429.284      501.039      507.655        0.281        0.072       61.692       10.259        0.028      342.465       17.894      860.761
08/23/2013  09:27:00       40.892       21.506       -2.386       20.974       25.523       20.221      439.928      651.434      408.877        0.182        0.075       46.203        7.603        0.027      342.419       17.817      860.767
08/23/2013  09:28:00       26.405       -2.511       -1.610       18.609       15.072       12.642      346.299      227.165      159.814        0.072        0.037       26.524       10.732        0.164      342.345       17.688      860.768
08/23/2013  09:29:00       18.150       15.391        8.935       30.987       23.067       23.879      960.205      532.065      570.207        0.135        0.103       23.797       18.680        0.616      342.922       18.671      860.775
08/23/2013  09:30:00       36.718       37.975       12.440       28.327       25.841       16.235      802.405      667.742      263.578        0.234        0.087       52.823       13.986        0.070      342.854       18.556      860.774
08/23/2013  09:31:00       27.121       30.585       21.384       23.992       22.891       14.378      575.637      524.018      206.740        0.172        0.065       40.878       14.714        0.130      343.205       19.152      860.778
08/23/2013  09:32:00       24.813       16.276        1.563       22.904       19.457       20.818      524.604      378.587      433.369        0.111        0.067       29.675       16.251        0.300      343.095       18.966      860.786
08/23/2013  09:33:00       54.116       51.588       29.456       22.643       22.789       21.824      512.692      519.334      476.277        0.398        0.075       74.766       18.121        0.059      342.881       18.601      860.777
08/23/2013  09:34:00       52.990       44.412       43.379       29.517       18.855       21.613      871.247      355.513      467.136        0.418        0.085       69.140       14.871        0.046      342.755       18.386      860.775
08/23/2013  09:35:00       52.419       26.539       -1.208       15.803       18.333       14.752      249.724      336.085      217.631        0.213        0.040       58.754        1.454        0.001      342.536       18.014      860.764
08/23/2013  09:36:00       59.892       40.513        4.909       28.435       23.050       20.866      808.548      531.297      435.388        0.351        0.089       72.308       12.880        0.032      342.872       18.585      860.738
08/23/2013  09:37:00        4.501        8.903       29.927       15.752       13.831       13.312      248.112      191.295      177.203        0.081        0.031        9.976        6.687        0.449      343.536       19.718      860.728
08/23/2013  09:38:00       53.249       30.378       16.918       25.543       22.522       23.531      652.456      507.247      553.731        0.288        0.086       61.305       12.187        0.040      342.953       18.723      860.716
08/23/2013  09:39:00       57.173       49.973       31.805       33.006       23.876       23.935     1089.413      570.064      572.886        0.450        0.112       75.935       13.794        0.033      342.679       18.258      860.710
08/23/2013  09:40:00       57.023       51.838       11.869       26.481       16.309       19.715      701.266      265.990      388.676        0.372        0.068       77.064       12.186        0.025      342.663       18.231      860.695
08/23/2013  09:41:00       37.853       21.638       20.479       32.684       23.096       19.577     1068.244      533.403      383.273        0.215        0.099       43.601       10.969        0.063      342.921       18.669      860.682
08/23/2013  09:42:00       20.976       19.230       26.710       29.781       35.955       24.648      886.934     1292.747      607.531        0.215        0.139       28.457       16.761        0.347      343.149       19.058      860.680
08/23/2013  09:43:00        3.405       -0.136       21.958       24.177       33.669       29.937      584.508     1133.603      896.237        0.155        0.131        3.408       22.289       42.767      342.910       18.651      860.672
08/23/2013  09:44:00       49.835       31.084       10.671       42.068       44.259       31.515     1769.736     1958.873      993.191        0.414        0.236       58.734       20.161        0.118      342.922       18.671      860.668
08/23/2013  09:45:00       33.639      -11.377       21.893       40.312       41.858       23.099     1625.018     1752.107      533.566        0.282        0.196       35.511       21.138        0.354      343.123       19.013      860.667
08/23/2013  09:46:00       21.042       17.748       17.712       35.367       28.940       26.903     1250.815      837.547      723.786        0.194        0.141       27.528        9.479        0.119      343.332       19.369      860.652
08/23/2013  09:47:00       30.647       85.205       -4.654       24.033       43.399       29.264      577.596     1883.508      856.372        0.577        0.166       90.549       26.250        0.084      343.015       18.830      860.636
08/23/2013  09:48:00        8.951       37.268        8.490       18.208       31.514       18.614      331.521      993.137      346.471        0.161        0.084       38.328       18.895        0.243      343.277       19.276      860.624
08/23/2013  09:49:00       12.594       12.405       10.078       27.848       22.227       20.599      775.508      494.036      424.339        0.105        0.085       17.677       14.191        0.644      343.327       19.361      860.621
08/23/2013  09:50:00       20.473       20.945       39.196       40.755       43.836       21.810     1660.971     1921.581      475.680        0.323        0.203       29.289       15.477        0.279      343.197       19.141      860.614
08/23/2013  09:51:00       19.772       37.961       51.811       30.833       34.311       21.681      950.659     1177.214      470.046        0.356        0.130       42.802       23.734        0.307      343.287       19.292      860.612
08/23/2013  09:52:00       35.495       28.181       56.415       35.382       47.234       37.856     1251.869     2231.060     1433.115        0.508        0.246       45.321       30.561        0.455      343.154       19.067      860.617
08/23/2013  09:53:00       44.556       51.451       30.623       50.945       30.086       35.173     2595.437      905.151     1237.110        0.515        0.237       68.062       19.540        0.082      343.089       18.956      860.626
08/23/2013  09:54:00       70.055       60.842       21.058       28.561       41.966       21.939      815.732     1761.110      481.333        0.605        0.153       92.787       12.966        0.020      342.879       18.597      860.627
08/23/2013  09:55:00       18.381       -1.388        8.711       20.765       23.256       17.336      431.201      540.860      300.524        0.084        0.064       18.433        6.156        0.112      343.041       18.874      860.644
08/23/2013  09:56:00       19.516      -37.882       -0.071       26.246       26.566       27.604      688.837      705.747      761.991        0.199        0.108       42.614       16.406        0.148      342.719       18.326      860.644
08/23/2013  09:57:00       35.763       -6.889        3.187       23.959       37.754       26.765      574.015     1425.362      716.373        0.203        0.136       36.420       21.810        0.359      342.598       18.119      860.645
08/23/2013  09:58:00       71.258       40.560       34.790       44.026       47.500       29.323     1938.294     2256.240      859.850        0.649        0.253       81.993       32.377        0.156      342.963       18.741      860.639
08/23/2013  09:59:00      110.537       67.474       11.381       61.900       44.119       39.582     3831.569     1946.446     1566.704        1.212        0.367      129.504       17.050        0.017      343.235       19.205      860.631
08/23/2013  10:00:00      113.429       78.631       27.309       48.467       32.705       40.576     2349.055     1069.609     1646.381        1.243        0.253      138.018       22.395        0.026      343.232       19.198      860.634
08/23/2013  10:01:00      132.899       80.165       20.676       45.848       40.220       36.039     2102.082     1617.660     1298.819        1.477        0.251      155.205       23.496        0.023      343.132       19.028      860.632
08/23/2013  10:02:00      114.255       86.583       38.060       35.765       29.033       32.351     1279.126      842.914     1046.581        1.258        0.158      143.355       13.717        0.009      343.026       18.848      860.636
08/23/2013  10:03:00       61.397       40.488        5.198       35.917       39.201       26.391     1290.008     1536.687      696.481        0.448        0.176       73.545       12.982        0.031      343.182       19.113      860.649
08/23/2013  10:04:00       62.844       33.295       16.789       43.177       39.881       32.603     1864.222     1590.533     1062.931        0.493        0.226       71.119       13.720        0.037      343.474       19.613      860.647
08/23/2013  10:05:00      133.934       99.878       46.365       49.722       38.874       36.221     2472.272     1511.193     1311.931        1.768        0.265      167.075       20.822        0.016      343.219       19.176      860.649
08/23/2013  10:06:00       74.591       78.431       51.084       26.111       24.746       31.787      681.767      612.365     1010.397        0.831        0.115      108.237       11.272        0.011      343.268       19.261      860.649
08/23/2013  10:07:00       42.288        6.603       17.046       34.979       61.112       40.988     1223.521     3734.732     1680.044        0.438        0.332       42.800       40.335        0.888      343.152       19.062      860.647
08/23/2013  10:08:00       23.372      -20.520        6.463       27.533       37.484       21.016      758.091     1405.079      441.664        0.181        0.130       31.102       13.360        0.185      342.981       18.771      860.631
08/23/2013  10:09:00       22.262      -29.919      -13.869       22.993       37.281       19.700      528.666     1389.839      388.104        0.194        0.115       37.292       10.886        0.085      343.074       18.930      860.634
08/23/2013  10:10:00       28.669      -58.413       -2.426       27.654       40.056       20.470      764.765     1604.469      419.010        0.351        0.139       65.069       17.015        0.068      343.197       19.140      860.627
08/23/2013  10:11:00       18.315      -64.334       -3.311       28.349       27.712       23.766      803.688      767.942      564.828        0.331        0.107       66.891       14.696        0.048      343.024       18.844      860.629
08/23/2013  10:12:00       43.039      -14.554       12.034       29.379       33.953       30.953      863.118     1152.812      958.090        0.259        0.149       45.434       21.868        0.232      343.246       19.223      860.626
08/23/2013  10:13:00       22.149        9.567       10.478       22.572       18.584       25.412      509.516      345.380      645.790        0.110        0.075       24.127       15.958        0.437      343.560       19.759      860.621
08/23/2013  10:14:00       25.371        9.727       16.879       27.332       19.719       18.200      747.018      388.854      331.233        0.124        0.073       27.172       12.674        0.218      343.884       20.311      860.626
08/23/2013  10:15:00       42.123      -13.389        5.736       25.772       17.973       20.017      664.178      323.041      400.667        0.169        0.069       44.200        6.719        0.023      343.401       19.486      860.626
08/23/2013  10:16:00        1.954      -19.230       19.588       31.959       36.312       27.894     1021.388     1318.583      778.082        0.194        0.156       19.329       21.108        1.192      343.446       19.564      860.628
08/23/2013  10:17:00       52.808       11.824       15.905       47.636       56.969       40.682     2269.171     3245.463     1655.053        0.517        0.358       54.116       37.523        0.481      343.520       19.689      860.634
08/23/2013  10:18:00       36.177      -11.978       23.310       19.924       32.892       25.864      396.960     1081.861      668.969        0.207        0.107       38.108       25.895        0.462      343.708       20.012      860.637
08/23/2013  10:19:00       43.554      -10.611       15.301       23.073       22.199       22.974      532.355      492.813      527.801        0.190        0.078       44.828       15.063        0.113      343.584       19.799      860.631
08/23/2013  10:20:00      110.579       78.198       41.450       40.933       33.641       26.498     1675.506     1131.726      702.121        1.178        0.175      135.434       10.749        0.006      343.455       19.580      860.628
08/23/2013  10:21:00       81.296       77.441       20.825       46.618       30.096       40.570     2173.235      905.786     1645.931        0.888        0.236      112.277       24.618        0.048      343.733       20.053      860.616
08/23/2013  10:22:00       59.435       20.270       36.554       61.901       39.446       31.583     3831.690     1555.959      997.481        0.583        0.319       62.796       17.474        0.077      344.106       20.689      860.617
08/23/2013  10:23:00      117.736       78.841       15.503       51.816       35.303       34.202     2684.893     1246.330     1169.761        1.271        0.255      141.696       13.138        0.009      343.787       20.145      860.618
08/23/2013  10:24:00       73.829       68.203       41.927       42.705       28.741       20.519     1823.698      826.017      421.022        0.747        0.154      100.511       20.606        0.042      343.776       20.125      860.619
08/23/2013  10:25:00       34.234       26.245       38.604       25.670       25.228       33.433      658.930      636.461     1117.742        0.288        0.121       43.136       17.372        0.162      343.963       20.444      860.623
08/23/2013  10:26:00       42.417       22.016        9.646       33.888       27.268       26.356     1148.380      743.546      694.614        0.248        0.129       47.790       15.038        0.099      344.120       20.714      860.630
08/23/2013  10:27:00       -8.710        8.226        5.984       34.808       40.273       25.572     1211.586     1621.945      653.929        0.183        0.174       11.980       17.661        2.173      344.013       20.530      860.637
08/23/2013  10:28:00       26.303       47.235       46.299       67.061       46.169       35.722     4497.124     2131.592     1276.081        0.648        0.395       54.064       31.609        0.342      344.233       20.908      860.646
08/23/2013  10:29:00       39.110       30.652       26.478       55.993       47.730       29.518     3135.227     2278.137      871.332        0.473        0.314       49.691       15.482        0.097      344.128       20.728      860.648
08/23/2013  10:30:00      110.281       56.837       35.764       59.192       40.172       32.339     3503.736     1613.796     1045.818        1.142        0.308      124.066       32.741        0.070      343.873       20.292      860.657
08/23/2013  10:31:00       93.625       62.091       13.367       24.833       20.346       25.151      616.692      413.948      632.570        0.723        0.083      112.343       11.410        0.010      343.740       20.063      860.649
08/23/2013  10:32:00       91.631       59.932        8.349       50.109       33.313       32.129     2510.958     1109.746     1032.242        0.835        0.233      109.490       18.211        0.028      343.884       20.310      860.645
08/23/2013  10:33:00       91.676       79.443       14.589       36.388       44.409       36.417     1324.079     1972.150     1326.172        0.977        0.231      121.309       10.382        0.007      344.009       20.524      860.635
08/23/2013  10:34:00       78.720       59.835        6.124       57.721       30.852       23.864     3331.700      951.851      569.512        0.733        0.243       98.879       19.702        0.040      344.102       20.683      860.634
08/23/2013  10:35:00       72.171       52.565       15.784       35.591       31.717       28.304     1266.685     1005.972      801.118        0.565        0.154       89.285       23.246        0.068      344.103       20.684      860.636
08/23/2013  10:36:00      105.419       45.840       11.405       36.690       27.901       36.334     1346.163      778.485     1320.151        0.839        0.172      114.954       17.374        0.023      343.910       20.355      860.623
08/23/2013  10:37:00       67.460       60.572        9.481       32.407       28.773       31.744     1050.218      827.902     1007.676        0.560        0.144       90.664       12.001        0.018      344.069       20.626      860.617
08/23/2013  10:38:00       96.389       76.685       13.984       24.970       23.744       24.528      623.507      563.776      601.601        0.858        0.089      123.172       17.949        0.021      343.844       20.242      860.597
08/23/2013  10:39:00       69.749       36.570       19.964       38.576       28.815       27.545     1488.073      830.279      758.723        0.484        0.154       78.754       18.081        0.053      344.023       20.548      860.584
08/23/2013  10:40:00       -0.238       50.296        2.434       21.417       37.034       19.115      458.686     1371.524      365.371        0.237        0.110       50.297       14.040        0.078      344.358       21.122      860.563
08/23/2013  10:41:00       11.466       40.688        8.047       17.075       30.633       22.492      291.541      938.401      505.897        0.179        0.087       42.273       21.803        0.266      344.524       21.403      860.552
08/23/2013  10:42:00        9.114       25.124       22.375       19.418       28.226       14.637      377.056      796.716      214.255        0.130        0.069       26.726        9.815        0.135      344.628       21.583      860.535
08/23/2013  10:43:00        8.652       23.307       33.484       28.323       20.053       21.443      802.202      402.113      459.790        0.170        0.083       24.861       21.648        0.758      344.670       21.654      860.523
08/23/2013  10:44:00      -27.766       11.802        9.553       17.860       17.912       16.832      318.993      320.842      283.326        0.096        0.046       30.170       11.374        0.142      344.412       21.212      860.514
08/23/2013  10:45:00      -31.407       16.174       -1.952       12.221       28.138       11.709      149.343      791.772      137.091        0.116        0.054       35.327        8.048        0.052      344.216       20.877      860.510
08/23/2013  10:46:00      -22.553       -4.076       -0.988       16.682       10.637       10.509      278.291      113.140      110.443        0.051        0.025       22.918        5.106        0.050      344.405       21.199      860.498
08/23/2013  10:47:00       24.137      -15.927        1.627       24.988       19.411       17.920      624.383      376.800      321.118        0.108        0.066       28.918       15.440        0.285      344.282       20.991      860.503
08/23/2013  10:48:00       15.328       14.302       18.022       19.569       21.293       19.820      382.949      453.405      392.841        0.100        0.061       20.964       14.266        0.463      344.339       21.087      860.493
08/23/2013  10:49:00       31.336       -6.818       31.707       33.033       33.255       20.581     1091.182     1105.905      423.589        0.233        0.131       32.070       22.756        0.503      344.193       20.837      860.502
08/23/2013  10:50:00       53.272       -7.092       26.368       36.036       25.166       26.414     1298.572      633.304      697.718        0.311        0.131       53.742       14.768        0.076      343.971       20.458      860.496
08/23/2013  10:51:00       20.223      -42.844       14.525       21.681       23.395       29.330      470.051      547.342      860.254        0.217        0.094       47.377       19.258        0.165      343.824       20.208      860.495
08/23/2013  10:52:00       54.877      -15.774       36.969       26.666       23.907       23.811      711.076      571.549      566.957        0.324        0.092       57.099       11.226        0.039      344.122       20.718      860.480
08/23/2013  10:53:00       25.150       31.974       22.478       39.177       40.255       25.903     1534.825     1620.435      670.950        0.299        0.191       40.680       26.891        0.437      344.749       21.789      860.473
08/23/2013  10:54:00       41.386       42.904       22.662       44.844       36.759       26.368     2010.995     1351.229      695.270        0.406        0.203       59.612       20.871        0.123      344.762       21.810      860.461
08/23/2013  10:55:00      101.909       67.278       23.755       42.865       23.571       33.051     1837.388      555.611     1092.347        0.948        0.174      122.114        6.670        0.003      344.379       21.157      860.461
08/23/2013  10:56:00      100.802       35.058       17.773       39.691       39.783       29.165     1575.364     1582.701      850.619        0.786        0.200      106.724       13.973        0.017      344.399       21.189      860.444
08/23/2013  10:57:00      112.407       64.843        7.553       33.821       33.921       32.528     1143.869     1150.640     1058.077        1.012        0.168      129.769        3.383        0.001      344.523       21.401      860.444
08/23/2013  10:58:00       84.008       66.233       12.285       38.898       32.245       39.730     1513.055     1039.721     1578.465        0.786        0.207      106.978       19.657        0.034      344.452       21.280      860.427
08/23/2013  10:59:00       78.346       44.044        5.170       23.530       21.944       19.543      553.658      481.549      381.944        0.476        0.071       89.878       15.863        0.031      344.313       21.043      860.427
08/23/2013  11:00:00       24.211       37.699       15.795       22.951       25.020       25.621      526.766      626.023      656.426        0.203        0.090       44.804       12.954        0.084      344.517       21.392      860.414
08/23/2013  11:01:00       -2.007       29.456      -11.015       21.443       26.674       17.159      459.787      711.483      294.424        0.123        0.073       29.525       16.150        0.299      344.581       21.502      860.409
08/23/2013  11:02:00      -53.723        7.245       -4.907       20.870       19.700       18.829      435.556      388.089      354.538        0.207        0.059       54.210       10.173        0.035      344.449       21.275      860.392
08/23/2013  11:03:00      -38.928       -4.527      -15.639       16.635       18.788       17.049      276.736      352.976      290.673        0.135        0.046       39.190       14.846        0.144      344.460       21.293      860.382
08/23/2013  11:04:00       43.241      -12.096       -1.284       33.061       28.666       33.102     1093.016      821.743     1095.769        0.251        0.151       44.901       17.613        0.154      344.316       21.048      860.364
08/23/2013  11:05:00      -14.422      -19.473       -6.830       25.512       16.544       15.189      650.859      273.705      230.711        0.089        0.058       24.232       12.445        0.264      344.527       21.409      860.355
08/23/2013  11:06:00       11.126      -80.198       -2.351       38.460       41.290       24.035     1479.191     1704.824      577.666        0.516        0.188       80.966       20.341        0.063      344.637       21.596      860.328
08/23/2013  11:07:00      -10.961      -30.299       19.668       27.545       47.870       18.695      758.736     2291.548      349.496        0.241        0.170       32.220       15.284        0.225      344.861       21.981      860.318
08/23/2013  11:08:00       24.387      -51.322       16.177       21.638       43.402       28.012      468.204     1883.711      784.683        0.331        0.157       56.822       26.657        0.220      344.859       21.977      860.297
08/23/2013  11:09:00       32.735        9.219       27.280       41.479       31.474       26.859     1720.524      990.638      721.402        0.267        0.172       34.008       23.451        0.476      344.965       22.158      860.285
08/23/2013  11:10:00       15.957       -1.217       35.907       28.612       37.108       22.992      818.667     1376.977      528.614        0.213        0.136       16.004       24.788        2.399      345.023       22.258      860.272
08/23/2013  11:11:00        5.541       15.950       41.148       22.742       37.891       28.301      517.199     1435.715      800.951        0.237        0.138       16.885       27.812        2.713      344.882       22.016      860.261
08/23/2013  11:12:00       45.108      -37.500       13.315       25.923       28.135       18.633      671.992      791.606      347.207        0.271        0.091       58.660       15.999        0.074      344.548       21.444      860.238
08/23/2013  11:13:00       35.347      -66.665      -18.628       23.606       29.115       26.344      557.264      847.659      694.011        0.407        0.105       75.456       16.221        0.046      344.636       21.596      860.216
08/23/2013  11:14:00       -6.892      -69.512       -3.069       44.918       28.600       31.014     2017.613      817.938      961.851        0.434        0.190       69.853       25.419        0.132      344.789       21.858      860.197
08/23/2013  11:15:00      -40.807      -13.420      -25.872       16.757       25.477       17.191      280.799      649.088      295.517        0.187        0.061       42.957       14.733        0.118      344.627       21.580      860.172
08/23/2013  11:16:00      -28.948        0.121      -17.541       17.271       10.898        8.016      298.300      118.761       64.260        0.081        0.024       28.948        8.780        0.092      344.767       21.818      860.158
08/23/2013  11:17:00        0.007       19.388        1.815       20.900       25.676       19.125      436.821      659.253      365.757        0.092        0.073       19.388       14.469        0.557      345.002       22.222      860.132
08/23/2013  11:18:00      -12.560       11.624      -16.567       16.614       20.570       10.371      276.018      423.120      107.551        0.069        0.040       17.114        3.065        0.032      344.819       21.910      860.120
08/23/2013  11:19:00      -31.836       20.492      -17.535       13.010       15.794       10.659      169.256      249.436      113.619        0.114        0.027       37.861        9.921        0.069      344.762       21.812      860.108
08/23/2013  11:20:00      -30.947       31.163       12.859       36.589       23.360       21.504     1338.721      545.687      462.402        0.222        0.117       43.918       21.927        0.249      345.239       22.627      860.101
08/23/2013  11:21:00       -5.473       35.703       14.362       15.139       35.411       20.008      229.187     1253.971      400.303        0.170        0.094       36.120       23.280        0.415      345.552       23.164      860.102
08/23/2013  11:22:00       29.051       30.334       18.515       26.574       31.906       20.023      706.164     1018.018      400.939        0.212        0.106       42.001        9.827        0.055      345.346       22.809      860.094
08/23/2013  11:23:00       44.776       36.387       29.364       35.940       30.698       29.571     1291.654      942.358      874.433        0.365        0.155       57.697       16.862        0.085      345.391       22.888      860.088
08/23/2013  11:24:00       95.344       62.258       29.323       53.695       37.225       38.740     2883.122     1385.688     1500.750        0.980        0.288      113.871       27.920        0.060      345.102       22.393      860.072
08/23/2013  11:25:00        5.194       50.172       65.688       29.676       39.304       41.691      880.691     1544.774     1738.147        0.551        0.208       50.440       28.248        0.314      345.400       22.903      860.078
08/23/2013  11:26:00       16.300      -59.072      -13.514       60.196       85.028       32.062     3623.514     7229.845     1027.956        0.791        0.594       61.280       33.132        0.292      345.304       22.739      860.069
08/23/2013  11:27:00       90.653     -119.592      -14.357       63.677       64.032       39.869     4054.801     4100.035     1589.563        1.623        0.487      150.067       31.165        0.043      345.171       22.509      860.067
08/23/2013  11:28:00      102.064     -147.021      -32.235       45.666       37.350       27.570     2085.422     1395.008      760.116        1.866        0.212      178.976       26.371        0.022      344.966       22.159      860.061
08/23/2013  11:29:00      109.581     -143.582      -27.469       49.561       45.138       33.397     2456.274     2037.468     1115.379        1.949        0.280      180.621       25.381        0.020      345.129       22.440      860.057
08/23/2013  11:30:00       45.659     -121.754      -16.238       29.756       39.461       22.501      885.431     1557.176      506.281        1.006        0.147      130.033       16.456        0.016      344.939       22.115      860.053
08/23/2013  11:31:00       57.375     -108.037       -6.491       47.795       44.690       26.898     2284.360     1997.199      723.498        1.000        0.250      122.327       23.072        0.036      345.153       22.480      860.045
08/23/2013  11:32:00       23.188        4.307       39.774       39.070       72.625       50.897     1526.455     5274.370     2590.549        0.576        0.470       23.585       53.552        5.156      345.410       22.921      860.046
08/23/2013  11:33:00       64.710     -103.986      -21.827       42.075       32.165       25.156     1770.265     1034.611      632.829        0.946        0.172      122.477       14.881        0.015      344.960       22.149      860.029
08/23/2013  11:34:00       47.988      -84.389      -15.365       43.835       37.745       28.276     1921.495     1424.668      799.533        0.690        0.207       97.079       25.619        0.070      345.065       22.329      860.019
08/23/2013  11:35:00       97.657     -122.123      -26.120       26.445       38.114       20.121      699.315     1452.709      404.842        1.384        0.128      156.368       11.218        0.005      345.187       22.540      860.002
08/23/2013  11:36:00       77.541     -110.207       -6.345       30.817       30.917       21.856      949.674      955.875      477.705        1.029        0.119      134.752       18.715        0.019      345.255       22.654      859.986
08/23/2013  11:37:00       23.552        4.333       48.584       37.965       41.144       30.468     1441.351     1692.803      928.329        0.350        0.203       23.948       25.308        1.117      345.660       23.348      859.983
08/23/2013  11:38:00       67.624       59.778       80.438       62.971       52.516       43.561     3965.384     2757.937     1897.568        1.162        0.431       90.257       35.491        0.155      345.413       22.926      859.986
08/23/2013  11:39:00       43.943       90.492      108.121       61.120       46.684       28.688     3735.709     2179.404      823.016        1.427        0.337      100.597       27.312        0.074      345.316       22.759      859.974
08/23/2013  11:40:00       74.260      101.199       72.597       78.335       51.955       63.177     6136.375     2699.344     3991.356        1.692        0.641      125.523       54.065        0.186      345.503       23.078      859.980
08/23/2013  11:41:00       45.089       85.311       95.911       58.809       65.370       57.738     3458.531     4273.187     3333.645        1.479        0.553       96.493       48.575        0.253      345.533       23.131      859.975
08/23/2013  11:42:00      110.323       65.396       41.257       38.030       30.651       37.714     1446.254      939.481     1422.320        1.098        0.190      128.249       22.290        0.030      345.170       22.510      859.975
08/23/2013  11:43:00       91.356       72.625       84.244       97.526       78.864       78.667     9511.276     6219.499     6188.503        2.131        1.096      116.706       65.071        0.311      345.472       23.026      859.972
08/23/2013  11:44:00      184.235       70.499       75.161       96.023       84.352       59.878     9220.459     7115.291     3585.358        3.224        0.996      197.263       49.765        0.064      345.291       22.713      859.964
08/23/2013  11:45:00      113.112       74.521       73.539       78.814       71.915       53.119     6211.686     5171.766     2821.676        1.898        0.710      135.454       41.974        0.096      345.431       22.955      859.965
08/23/2013  11:46:00      106.876       61.554       40.165       64.562       55.519       45.452     4168.238     3082.412     2065.920        1.307        0.466      123.334       37.724        0.094      345.546       23.153      859.968
08/23/2013  11:47:00       55.737       20.011       20.244       64.043       59.523       43.594     4101.462     3543.014     1900.447        0.673        0.477       59.220       29.583        0.250      345.798       23.586      859.971
08/23/2013  11:48:00      108.357       53.548       29.395       95.373       60.418       44.747     9096.002     3650.313     2002.275        1.511        0.737      120.866       24.610        0.041      345.927       23.805      859.956
08/23/2013  11:49:00      110.956       99.061       48.578       59.533       45.169       49.667     3544.119     2040.271     2466.790        1.627        0.403      148.742       34.769        0.055      345.683       23.388      859.956
08/23/2013  11:50:00       44.996       65.482       51.167       59.882       47.781       49.241     3585.875     2282.992     2424.667        0.861        0.415       79.451       45.643        0.330      345.787       23.568      859.951
08/23/2013  11:51:00       26.841       70.763       82.036       49.905       57.722       39.001     2490.538     3331.812     1521.081        0.990        0.367       75.682       32.637        0.186      345.845       23.667      859.944
08/23/2013  11:52:00      195.683      107.798       35.234      125.955       77.982       73.474    15864.663     6081.203     5398.436        3.924        1.367      223.410       71.636        0.103      345.388       22.880      859.914
08/23/2013  11:53:00      196.532       94.645       48.537       74.979       59.195       59.278     5621.811     3504.010     3513.872        3.129        0.632      218.134       44.809        0.042      345.369       22.846      859.917
08/23/2013  11:54:00       39.022       46.852       58.612       69.192       76.247       55.503     4787.539     5813.673     3080.549        1.042        0.684       60.974       47.936        0.618      345.667       23.360      859.909
08/23/2013  11:55:00        5.424       34.059       57.565       44.924       59.112       48.789     2018.197     3494.203     2380.326        0.620        0.395       34.488       39.624        1.320      345.762       23.524      859.898
08/23/2013  11:56:00       41.715      -22.677       44.797       49.203       66.447       35.390     2420.957     4415.192     1252.466        0.617        0.404       47.480       33.928        0.511      345.879       23.726      859.883
08/23/2013  11:57:00       89.245       42.491       15.853       62.009       54.852       35.234     3845.166     3008.754     1241.432        0.906        0.405       98.845       11.347        0.013      345.659       23.348      859.885
08/23/2013  11:58:00       85.129       57.873       20.849       74.409       54.595       41.151     5536.709     2980.667     1693.436        1.062        0.511      102.939       31.178        0.092      345.847       23.671      859.872
08/23/2013  11:59:00        9.537       60.587       69.515       43.406       58.193       41.609     1884.115     3386.428     1731.324        0.780        0.350       61.333       37.829        0.380      346.118       24.136      859.874
08/23/2013  12:00:00       33.061       -1.790       33.479       49.715       47.763       41.332     2471.606     2281.312     1708.308        0.434        0.323       33.110       37.630        1.292      345.863       23.698      859.863
08/23/2013  12:01:00       54.066      -75.664        1.966       53.524       60.761       24.528     2864.842     3691.857      601.605        0.790        0.358       92.996       20.380        0.048      345.516       23.102      859.852
08/23/2013  12:02:00      123.065      -44.585        8.536       43.251      105.292       57.560     1870.638    11086.468     3313.101        1.674        0.814      130.893       64.425        0.242      345.749       23.502      859.841
08/23/2013  12:03:00       91.926       74.513       36.325       51.335       51.990       41.944     2635.243     2702.994     1759.264        1.121        0.355      118.333       35.766        0.091      345.604       23.253      859.835
08/23/2013  12:04:00       23.173        6.418       33.855       31.729       43.998       37.764     1006.758     1935.818     1426.114        0.305        0.218       24.045       37.187        2.392      346.174       24.233      859.826
08/23/2013  12:05:00       28.933        2.885       42.167       39.965       49.643       36.685     1597.225     2464.419     1345.755        0.401        0.270       29.076       37.752        1.686      345.904       23.768      859.813
08/23/2013  12:06:00       -0.825       22.264       11.034       34.666       50.845       33.134     1201.701     2585.237     1097.895        0.275        0.244       22.279       14.623        0.431      346.098       24.101      859.778
08/23/2013  12:07:00       66.344       51.184       22.918       91.923       65.010       36.945     8449.749     4226.295     1364.935        1.079        0.702       83.794       24.097        0.083      346.074       24.059      859.768
08/23/2013  12:08:00      119.900       58.011       24.172       58.806       45.636       44.181     3458.149     2082.650     1951.931        1.291        0.375      133.196       24.958        0.035      345.716       23.444      859.770
08/23/2013  12:09:00      127.490       94.749       21.741       52.029       38.237       35.634     2706.984     1462.060     1269.813        1.557        0.272      158.843       21.527        0.018      345.694       23.407      859.764
08/23/2013  12:10:00       94.680       30.914       29.757       63.775       47.603       42.846     4067.293     2266.030     1835.797        0.949        0.408       99.599       34.948        0.123      346.223       24.316      859.743
08/23/2013  12:11:00       76.064       86.306       87.533       63.331       59.944       48.907     4010.840     3593.239     2391.873        1.544        0.500      115.041       41.755        0.132      345.921       23.797      859.732
08/23/2013  12:12:00       51.240        7.747       52.403       63.136       78.739       55.359     3986.180     6199.819     3064.650        0.934        0.663       51.822       57.864        1.247      345.938       23.827      859.722
08/23/2013  12:13:00       71.624      -89.284        7.425       52.414       74.559       41.999     2747.207     5559.063     1763.919        1.161        0.504      114.462       38.639        0.114      345.788       23.568      859.702
08/23/2013  12:14:00       32.020      -71.673        2.193       44.659       39.127       31.854     1994.443     1530.897     1014.687        0.535        0.227       78.500       17.304        0.049      346.060       24.036      859.687
08/23/2013  12:15:00       17.777        2.273       27.639       36.266       47.686       29.461     1315.188     2273.996      867.938        0.277        0.223       17.922       25.693        2.055      346.402       24.624      859.677
08/23/2013  12:16:00       41.004       77.120       79.559       65.201       52.327       27.571     4251.131     2738.095      760.160        1.085        0.387       87.343       26.352        0.091      346.335       24.508      859.673
08/23/2013  12:17:00       64.658       -3.907       14.194       50.297       79.344       29.160     2529.824     6295.534      850.300        0.703        0.484       64.776       22.124        0.117      345.735       23.478      859.674
08/23/2013  12:18:00       34.556       -7.447       40.689       40.123       69.629       43.650     1609.852     4848.202     1905.301        0.563        0.418       35.349       45.903        1.686      346.132       24.160      859.649
08/23/2013  12:19:00       22.441       17.262       56.711       33.145       28.672       24.689     1098.613      822.071      609.535        0.327        0.127       28.312       12.164        0.185      346.211       24.295      859.632
08/23/2013  12:20:00       50.037       40.077       27.818       37.712       31.352       26.944     1422.168      982.944      725.956        0.401        0.157       64.108       19.345        0.091      346.090       24.087      859.614
08/23/2013  12:21:00      156.149      111.855       13.769       37.639       42.824       35.407     1416.702     1833.923     1253.687        2.079        0.225      192.078       15.140        0.006      345.841       23.658      859.612
08/23/2013  12:22:00      148.015       90.882       18.703       55.207       45.208       36.323     3047.833     2043.801     1319.327        1.846        0.321      173.689       28.101        0.026      345.946       23.838      859.583
08/23/2013  12:23:00       74.713       94.459       32.738       70.693       62.748       58.120     4997.438     3937.363     3377.974        1.394        0.616      120.434       28.363        0.055      346.095       24.095      859.555
08/23/2013  12:24:00       42.180       46.467       70.526       35.876       37.869       25.827     1287.098     1434.036      667.052        0.615        0.169       62.756        8.696        0.019      346.422       24.657      859.548
08/23/2013  12:25:00       23.598       -2.352       36.184       28.701       23.429       35.081      823.774      548.897     1230.703        0.224        0.130       23.715       14.496        0.374      346.450       24.706      859.531
08/23/2013  12:26:00       52.226      -31.331       44.552       70.779       71.864       46.177     5009.693     5164.500     2132.300        0.900        0.615       60.903       56.188        0.851      346.421       24.655      859.500
08/23/2013  12:27:00       69.403      -22.537       43.227       53.341       64.460       52.063     2845.249     4155.114     2710.542        0.845        0.486       72.970       43.176        0.350      346.313       24.471      859.481
08/23/2013  12:28:00       63.461      -20.041       20.585       48.543       89.529       48.446     2356.453     8015.491     2347.037        0.878        0.636       66.550       56.147        0.712      346.222       24.315      859.480
08/23/2013  12:29:00       69.662      -58.026        6.006       49.687       46.975       29.842     2468.777     2206.620      890.562        0.691        0.278       90.663       20.812        0.053      346.152       24.193      859.459
08/23/2013  12:30:00       60.275      -64.981       11.119       41.865       44.806       25.302     1752.663     2007.576      640.207        0.619        0.220       88.631       15.829        0.032      346.257       24.374      859.431
08/23/2013  12:31:00       33.899      -33.573       13.863       45.387       69.417       48.103     2059.984     4818.671     2313.938        0.583        0.460       47.710       43.014        0.813      346.500       24.793      859.419
08/23/2013  12:32:00       62.378       43.236       68.136       57.360       53.496       44.454     3290.164     2861.806     1976.135        0.926        0.406       75.897       40.703        0.288      346.247       24.356      859.403
08/23/2013  12:33:00       37.938       50.200       83.239       55.530       66.023       49.630     3083.536     4359.067     2463.173        1.040        0.495       62.923       52.219        0.689      346.337       24.511      859.378
08/23/2013  12:34:00       52.064      -52.282       27.121       41.923       84.562       45.696     1757.564     7150.781     2088.120        0.859        0.550       73.784       54.324        0.542      346.441       24.690      859.357
08/23/2013  12:35:00       58.330      -53.994       21.190       59.727       90.208       42.095     3567.338     8137.441     1771.961        1.012        0.674       79.484       57.814        0.529      346.495       24.781      859.341
08/23/2013  12:36:00       78.871      -83.355        6.887       46.155       76.802       38.886     2130.286     5898.580     1512.130        1.138        0.477      114.755       50.086        0.190      346.427       24.667      859.323
08/23/2013  12:37:00       79.868       43.666       35.204       65.640       42.046       38.748     4308.549     1767.859     1501.385        0.855        0.379       91.025       20.396        0.050      346.541       24.864      859.325
08/23/2013  12:38:00      108.464       79.687       13.778       61.101       39.677       35.905     3733.329     1574.298     1289.161        1.245        0.330      134.590       28.837        0.046      346.508       24.804      859.319
08/23/2013  12:39:00       42.853       44.773       20.572       55.904       40.829       23.267     3125.286     1666.979      541.367        0.480        0.267       61.975       18.942        0.093      346.736       25.199      859.303
08/23/2013  12:40:00       -0.187       15.252       22.903       25.409       26.918       16.684      645.608      724.561      278.348        0.120        0.082       15.254        9.389        0.379      347.079       25.788      859.291
08/23/2013  12:41:00       27.435       29.618       23.739       32.816       25.869       30.093     1076.887      669.190      905.593        0.242        0.133       40.372       20.372        0.255      347.032       25.708      859.281
08/23/2013  12:42:00       14.804       36.095        7.703       25.118       33.745       24.323      630.928     1138.753      591.609        0.197        0.118       39.013       18.736        0.231      346.903       25.485      859.260
08/23/2013  12:43:00       89.995       60.562       40.042       54.757       42.245       29.792     2998.348     1784.668      887.564        0.952        0.284      108.475       20.941        0.037      346.765       25.247      859.241
08/23/2013  12:44:00       48.492       29.717       35.474       73.188       68.752       36.418     5356.453     4726.772     1326.281        0.795        0.570       56.874       28.613        0.253      346.868       25.426      859.218
08/23/2013  12:45:00       75.458      -40.271       28.586       57.734       54.072       52.211     3333.181     2923.802     2726.020        0.856        0.449       85.531       32.676        0.146      346.647       25.045      859.194
08/23/2013  12:46:00       44.269       33.432       54.135       55.131       54.214       51.999     3039.380     2939.158     2703.896        0.734        0.434       55.475       40.410        0.531      346.700       25.135      859.185
08/23/2013  12:47:00       75.590       56.058       84.846       69.162       58.654       55.926     4783.349     3440.245     3127.674        1.370        0.568       94.108       53.494        0.323      346.602       24.967      859.181
08/23/2013  12:48:00       50.580       27.833        5.353       46.869       26.747       27.666     2196.705      715.420      765.388        0.352        0.184       57.732       14.527        0.063      346.644       25.038      859.158
08/23/2013  12:49:00       41.015     -117.595      -12.161       47.365       61.163       33.617     2243.410     3740.915     1130.121        1.139        0.356      124.543       28.546        0.053      346.838       25.373      859.149
08/23/2013  12:50:00       43.688      -45.771       19.330       47.649       65.465       39.987     2270.435     4285.720     1598.930        0.626        0.408       63.275       43.716        0.477      347.204       26.003      859.139
08/23/2013  12:51:00       19.463        5.188       54.751       40.932       44.296       26.959     1675.445     1962.117      726.774        0.388        0.218       20.142       16.941        0.707      347.369       26.287      859.121
08/23/2013  12:52:00       17.804       -5.529       12.885       46.693       84.337       38.866     2180.225     7112.706     1510.578        0.566        0.540       18.643       18.015        0.934      347.030       25.705      859.101
08/23/2013  12:53:00       -3.142      -69.740      -10.292       42.509       34.988       33.114     1807.028     1224.194     1096.542        0.455        0.206       69.811       19.438        0.078      347.029       25.703      859.095
08/23/2013  12:54:00       35.819      -71.128       -0.070       42.024       53.513       35.319     1766.031     2863.676     1247.434        0.611        0.294       79.638       33.371        0.176      347.029       25.702      859.070
08/23/2013  12:55:00        0.449        6.007       55.716       35.023       56.672       41.485     1226.597     3211.678     1721.019        0.465        0.308        6.023       35.736       35.198      347.177       25.957      859.053
08/23/2013  12:56:00       22.741       -7.905       49.632       47.153       42.283       33.815     2223.378     1787.851     1143.485        0.410        0.258       24.076       27.770        1.330      347.284       26.143      859.045
08/23/2013  12:57:00       27.957       66.757       32.831       52.677       37.388       38.741     2774.916     1397.853     1500.833        0.599        0.284       72.375       10.325        0.020      347.111       25.844      859.029
08/23/2013  12:58:00      171.588       92.138       14.352       54.862       40.874       40.261     3009.876     1670.662     1620.965        2.222        0.315      194.761       18.953        0.009      346.855       25.401      859.018
08/23/2013  12:59:00      120.270       77.926       12.645       31.994       39.553       33.295     1023.640     1564.412     1108.585        1.220        0.185      143.309       20.166        0.020      346.818       25.340      859.013
08/23/2013  13:00:00      133.853      100.399       19.290       42.388       33.221       28.483     1796.752     1103.611      811.275        1.604        0.186      167.322       14.018        0.007      346.680       25.103      859.001
08/23/2013  13:01:00       99.716       99.731       23.334       81.429       67.063       53.688     6630.661     4497.495     2882.421        1.722        0.701      141.031       41.729        0.088      346.947       25.560      858.980
08/23/2013  13:02:00      108.755       81.605       33.364       93.376       63.152       56.740     8719.123     3988.218     3219.421        1.776        0.796      135.967       19.191        0.020      347.228       26.043      858.972
08/23/2013  13:03:00       96.623       87.820       52.627       63.749       49.176       61.670     4063.954     2418.238     3803.184        1.505        0.514      130.570       44.227        0.115      346.920       25.513      858.961
08/23/2013  13:04:00       84.543       39.225       13.146       33.806       31.585       24.491     1142.824      997.602      599.802        0.580        0.137       93.199       17.267        0.034      346.805       25.316      858.944
08/23/2013  13:05:00      107.987       60.676       24.296       56.677       53.864       37.461     3212.234     2901.306     1403.316        1.172        0.376      123.866       23.417        0.036      347.046       25.731      858.921
08/23/2013  13:06:00      121.640       43.302       10.127       59.412       62.674       39.502     3529.764     3928.026     1560.379        1.289        0.451      129.118       35.185        0.074      347.127       25.869      858.901
08/23/2013  13:07:00       48.812       34.343       41.837       56.417       42.782       32.341     3182.902     1830.297     1045.957        0.568        0.303       59.683       32.066        0.289      347.293       26.157      858.895
08/23/2013  13:08:00       71.830        7.024       47.108       47.919       46.196       37.373     2296.220     2134.062     1396.778        0.663        0.291       72.173       28.016        0.151      347.141       25.894      858.880
08/23/2013  13:09:00       41.202        9.574       30.732       40.247       51.402       46.817     1619.852     2642.203     2191.829        0.459        0.323       42.299       44.506        1.107      347.101       25.828      858.865
08/23/2013  13:10:00       73.744       36.061       34.612       67.876       34.306       34.895     4607.089     1176.871     1217.629        0.747        0.350       82.089       25.107        0.094      347.394       26.333      858.853
08/23/2013  13:11:00       69.612       59.680       64.710       56.370       48.842       38.456     3177.610     2385.527     1478.835        0.982        0.352       91.693       22.957        0.063      347.573       26.642      858.835
08/23/2013  13:12:00        8.688       20.256       57.333       34.230       28.891       23.662     1171.659      834.692      559.870        0.317        0.128       22.041       18.948        0.739      347.880       27.170      858.825
08/23/2013  13:13:00       12.412       36.171       28.293       45.271       38.088       41.161     2049.442     1450.703     1694.212        0.373        0.260       38.242       29.383        0.590      347.500       26.514      858.813
08/23/2013  13:14:00       89.740       83.847       43.109       75.860       53.564       67.529     5754.792     2869.115     4560.116        1.506        0.659      122.815       50.064        0.166      347.366       26.284      858.788
08/23/2013  13:15:00       78.322       55.702       36.455       54.841       35.625       48.088     3007.558     1269.156     2312.436        0.858        0.329       96.109       22.018        0.052      347.336       26.232      858.776
08/23/2013  13:16:00       92.790       67.749       39.851       70.698       50.106       60.311     4998.266     2510.572     3637.469        1.297        0.557      114.891       44.904        0.153      347.264       26.106      858.764
08/23/2013  13:17:00       92.005       56.787       24.326       45.017       38.229       41.441     2026.498     1461.463     1717.384        0.874        0.260      108.119       13.966        0.017      347.414       26.365      858.737
08/23/2013  13:18:00      117.024       68.368       23.162       40.352       24.272       32.814     1628.270      589.133     1076.745        1.110        0.165      135.531       20.130        0.022      347.119       25.858      858.722
08/23/2013  13:19:00       84.971       71.895       17.298       44.875       38.931       30.832     2013.726     1515.603      950.609        0.858        0.224      111.305       17.304        0.024      347.148       25.906      858.704
08/23/2013  13:20:00       37.408       25.729       -1.495       29.943       55.484       20.496      896.560     3078.423      420.074        0.323        0.220       45.402       23.382        0.265      347.275       26.126      858.685
08/23/2013  13:21:00       52.083      -81.904       14.627       58.695       72.299       35.874     3445.131     5227.167     1286.938        0.980        0.498       97.062       39.230        0.163      347.341       26.240      858.662
08/23/2013  13:22:00       22.058       44.685       81.717       41.229       49.485       34.724     1699.829     2448.777     1205.763        0.726        0.268       49.833       32.771        0.432      347.633       26.743      858.636
08/23/2013  13:23:00       46.431       -9.736       22.507       52.821       36.365       33.105     2790.081     1322.410     1095.939        0.398        0.260       47.441       23.030        0.236      347.327       26.217      858.623
08/23/2013  13:24:00      114.318       48.340       66.950       72.584       59.486       49.603     5268.377     3538.525     2460.497        1.558        0.563      124.119       40.231        0.105      347.379       26.305      858.611
08/23/2013  13:25:00       15.107       36.393       66.363       35.523       49.957       36.875     1261.899     2495.653     1359.746        0.554        0.256       39.404       32.032        0.661      347.564       26.624      858.592
08/23/2013  13:26:00       34.650       11.771       22.925       53.771       32.481       31.666     2891.324     1055.013     1002.744        0.341        0.247       36.595       31.166        0.725      347.675       26.816      858.589
08/23/2013  13:27:00      110.841       57.304       29.764       71.453       65.241       37.315     5105.598     4256.334     1392.445        1.360        0.538      124.778       34.845        0.078      347.531       26.567      858.574
08/23/2013  13:28:00      105.971      120.455      129.198       95.523       70.974       64.346     9124.588     5037.252     4140.440        3.036        0.915      160.434       47.325        0.087      347.463       26.449      858.575
08/23/2013  13:29:00      110.771       93.813       59.105       49.622       50.099       41.838     2462.354     2509.869     1750.419        1.564        0.336      145.159       28.178        0.038      347.263       26.104      858.578
08/23/2013  13:30:00       24.354       49.228       42.856       34.687       26.691       29.095     1203.180      712.397      846.541        0.381        0.138       54.923       17.961        0.107      347.308       26.183      858.565
08/23/2013  13:31:00       39.005       44.893       25.329       42.888       47.746       27.862     1839.386     2279.646      776.316        0.454        0.245       59.471       16.048        0.073      347.404       26.349      858.550
08/23/2013  13:32:00       41.831       48.937        0.355       39.801       37.070       35.796     1584.083     1374.212     1281.364        0.419        0.212       64.379       24.879        0.149      347.620       26.722      858.536
08/23/2013  13:33:00       20.249      129.489      -21.748       43.496       53.234       24.323     1891.869     2833.840      591.598        1.148        0.266      131.063       24.363        0.035      347.453       26.433      858.540
08/23/2013  13:34:00      -26.036       86.395       -4.312       34.201       42.161       28.516     1169.710     1777.583      813.166        0.596        0.188       90.233       24.351        0.073      347.809       27.048      858.525
08/23/2013  13:35:00       25.290       73.626        8.186       47.975       65.957       32.439     2301.569     4350.315     1052.283        0.691        0.385       77.848       30.833        0.157      347.736       26.921      858.519
08/23/2013  13:36:00      127.159       80.375       39.156       71.180       49.297       46.053     5066.594     2430.217     2120.898        1.689        0.481      150.431       17.192        0.013      347.724       26.899      858.512
08/23/2013  13:37:00       29.806       69.673       68.451       48.557       45.437       27.810     2357.813     2064.517      773.421        0.781        0.260       75.781       19.475        0.066      348.192       27.709      858.515
08/23/2013  13:38:00       31.666       29.111       70.449       63.905      103.602       56.912     4083.812    10733.317     3238.975        1.243        0.903       43.013       59.850        1.936      347.901       27.206      858.509
08/23/2013  13:39:00       66.628       64.162       49.459       84.044       59.581       45.086     7063.376     3549.867     2032.720        1.182        0.632       92.499       39.333        0.181      347.583       26.658      858.490
08/23/2013  13:40:00       33.572       -1.967       12.850       51.845       41.755       21.138     2687.901     1743.443      446.836        0.309        0.244       33.629        7.570        0.051      347.941       27.275      858.501
08/23/2013  13:41:00       17.860      -12.648       28.293       41.097       54.963       37.652     1688.946     3020.882     1417.658        0.370        0.306       21.885       31.472        2.068      347.681       26.828      858.488
08/23/2013  13:42:00      128.710       75.990       28.094       71.356       67.490       32.519     5091.613     4554.926     1057.484        1.692        0.535      149.468       28.270        0.036      347.632       26.740      858.480
08/23/2013  13:43:00       24.538      -16.894       11.536       50.877       39.032       28.722     2588.479     1523.503      824.982        0.298        0.247       29.791       22.142        0.552      347.874       27.159      858.475
08/23/2013  13:44:00       24.308       13.312       42.637       49.238       65.750       50.193     2424.426     4323.117     2519.348        0.592        0.463       27.715       44.052        2.526      347.842       27.104      858.466
08/23/2013  13:45:00       57.541       40.420       59.339       38.497       56.359       51.524     1482.049     3176.392     2654.688        0.789        0.366       70.319       42.491        0.365      347.605       26.696      858.473
08/23/2013  13:46:00      -28.409      -39.674        1.954       43.942       30.311       22.574     1930.908      918.756      509.594        0.287        0.168       48.796       19.342        0.157      347.683       26.832      858.442
08/23/2013  13:47:00      -39.187       -4.030        4.518       44.638       36.184       25.750     1992.521     1309.257      663.069        0.277        0.198       39.394       26.408        0.449      348.183       27.695      858.433
08/23/2013  13:48:00      -10.715      -90.786        7.071       39.638       77.940       45.244     1571.148     6074.612     2047.043        0.905        0.485       91.416       43.832        0.230      347.805       27.041      858.427
08/23/2013  13:49:00       48.369      -74.884        6.933       53.515       80.961       53.758     2863.829     6554.627     2889.959        1.015        0.615       89.146       52.066        0.341      347.994       27.366      858.420
08/23/2013  13:50:00       71.503      -79.766      -18.081       75.853      110.770       55.217     5753.698    12269.941     3048.930        1.643        1.054      107.122       59.097        0.304      347.903       27.207      858.424
08/23/2013  13:51:00       13.025       23.870       52.519       52.263       36.559       30.292     2731.468     1336.589      917.612        0.424        0.249       27.192       32.925        1.466      348.019       27.410      858.441
08/23/2013  13:52:00      -16.511       75.892       10.377       57.761       55.227       60.597     3336.383     3049.992     3671.999        0.810        0.503       77.667       45.858        0.349      347.695       26.851      858.431
08/23/2013  13:53:00      -37.737      104.469       -7.495       55.977       79.856       47.573     3133.471     6376.923     2263.150        1.208        0.589      111.076       33.168        0.089      347.705       26.867      858.415
08/23/2013  13:54:00      -33.502       30.853        9.141       40.822       30.652       32.428     1666.416      939.518     1051.601        0.291        0.183       45.544       15.655        0.118      347.959       27.306      858.399
08/23/2013  13:55:00       39.277       31.148       20.866       53.265       30.299       22.472     2837.151      918.016      505.004        0.360        0.213       50.128       29.170        0.339      348.140       27.618      858.388
08/23/2013  13:56:00       71.405       33.498       10.013       53.447       32.854       26.646     2856.623     1079.405      710.026        0.548        0.232       78.872       28.572        0.131      347.796       27.026      858.364
08/23/2013  13:57:00       50.785       67.578        5.986       71.442       44.684       38.690     5103.901     1996.623     1496.894        0.789        0.430       84.533       21.556        0.065      347.891       27.190      858.362
08/23/2013  13:58:00       56.180      148.313      -10.422       83.053      109.840       60.725     6897.879    12064.728     3687.584        2.395        1.133      158.597       67.252        0.180      347.774       26.983      858.354
08/23/2013  13:59:00       60.026      174.939      -26.289       49.849      104.572       46.734     2484.930    10935.257     2184.053        2.525        0.780      184.951       50.806        0.075      347.633       26.741      858.339
08/23/2013  14:00:00       -7.630      175.628      -18.043       28.294       38.519       20.354      800.537     1483.683      414.296        1.696        0.135      175.794       13.491        0.006      347.501       26.516      858.308
08/23/2013  14:01:00       59.401       68.236       -1.840       46.837       38.072       30.079     2193.701     1449.483      904.776        0.637        0.227       90.469       21.714        0.058      347.786       27.008      858.296
08/23/2013  14:02:00       63.139       29.729       29.266       60.438       49.123       39.253     3652.810     2413.110     1540.824        0.667        0.380       69.788       19.001        0.074      347.755       26.954      858.294
08/23/2013  14:03:00       45.652      -93.444       -4.070       51.376       77.127       39.982     2639.468     5948.611     1598.547        1.051        0.509      103.999       35.181        0.114      347.782       26.999      858.296
08/23/2013  14:04:00       94.641     -118.183       26.298       80.593      109.425       70.701     6495.192    11973.866     4998.612        2.354        1.173      151.407       62.919        0.173      347.831       27.082      858.270
08/23/2013  14:05:00       68.394      -64.621       17.549       62.366       87.788       71.298     3889.561     7706.744     5083.385        1.292        0.834       94.093       62.806        0.446      348.017       27.405      858.246
08/23/2013  14:06:00       89.406     -122.996        1.009       58.634       80.525       53.725     3437.952     6484.334     2886.358        1.796        0.640      152.057       57.144        0.141      347.813       27.052      858.240
08/23/2013  14:07:00       71.428       -8.850       50.174       71.872       89.919       70.065     5165.574     8085.343     4909.124        1.293        0.908       71.974       75.485        1.100      347.844       27.107      858.224
08/23/2013  14:08:00       52.026      -30.856       56.809       58.681       90.872       54.995     3443.475     8257.637     3024.406        1.080        0.736       60.488       64.894        1.151      347.872       27.157      858.217
08/23/2013  14:09:00      142.928      -57.437       17.180      105.306      112.255       59.268    11089.333    12601.161     3512.744        2.561        1.360      154.037       69.754        0.205      347.659       26.787      858.209
08/23/2013  14:10:00       38.612        3.627       57.005       56.730       60.656       44.289     3218.314     3679.204     1961.494        0.680        0.443       38.782       31.596        0.664      347.812       27.052      858.198
08/23/2013  14:11:00       74.213      -32.897       19.918       66.053       41.735       32.969     4363.011     1741.785     1086.961        0.709        0.360       81.178       38.112        0.220      347.958       27.305      858.197
08/23/2013  14:12:00       -4.436     -125.375      -13.999       77.570       95.348       40.216     6017.042     9091.161     1617.317        1.633        0.836      125.453       25.329        0.041      347.701       26.859      858.206
08/23/2013  14:13:00     -262.603     -176.166      -29.478      162.729      125.261       67.508    26480.640    15690.343     4557.359        7.379        2.336      316.219       88.364        0.078      347.744       26.934      858.169
08/23/2013  14:14:00     -220.014     -142.790      -22.969      113.425      114.737       55.904    12865.319    13164.656     3125.212        4.923        1.458      262.288       65.657        0.063      347.653       26.776      858.160
08/23/2013  14:15:00      -81.233      -42.134       22.083       83.552       53.493       35.980     6980.995     2861.453     1294.591        1.000        0.557       91.510       31.386        0.118      347.934       27.263      858.154
08/23/2013  14:16:00       10.346       26.538       33.368       21.567       27.203       20.335      465.122      740.022      413.525        0.177        0.081       28.484       15.166        0.284      348.018       27.409      858.147
08/23/2013  14:17:00       13.162      -21.666       -1.249       27.050       24.785       17.661      731.705      614.297      311.893        0.115        0.083       25.351       15.584        0.378      347.829       27.083      858.148
08/23/2013  14:18:00       28.020      -36.907        6.345       40.342       35.624       34.512     1627.444     1269.061     1191.109        0.314        0.204       46.339       26.471        0.326      348.127       27.596      858.138
08/23/2013  14:19:00       33.438      -34.000       10.592       43.268       48.637       42.539     1872.103     2365.522     1809.549        0.422        0.302       47.688       34.654        0.528      348.114       27.574      858.124
08/23/2013  14:20:00       15.246      -40.274       11.607       43.070       55.264       45.287     1855.015     3054.102     2050.897        0.447        0.348       43.063       31.062        0.520      348.212       27.743      858.105
08/23/2013  14:21:00      -22.972      -93.509       14.702       73.734       57.983       33.261     5436.710     3362.007     1106.269        0.969        0.495       96.290       34.676        0.130      347.968       27.321      858.087
08/23/2013  14:22:00        8.380      -39.610       17.242       38.609       47.326       29.883     1490.616     2239.748      893.014        0.328        0.231       40.487       29.282        0.523      348.286       27.871      858.066
08/23/2013  14:23:00      -23.286     -101.779      -18.251       97.310       67.208       44.512     9469.288     4516.849     1981.319        1.360        0.798      104.409       49.339        0.223      348.003       27.382      858.060
08/23/2013  14:24:00      -58.750      -89.689        9.218       46.653       58.275       41.197     2176.541     3396.006     1697.193        0.942        0.363      107.218       35.443        0.109      348.021       27.413      858.061
08/23/2013  14:25:00      -35.797      -44.347       11.002       39.258       46.292       30.557     1541.205     2142.909      933.723        0.399        0.231       56.992       20.030        0.124      348.139       27.617      858.026
08/23/2013  14:26:00     -118.144     -120.557       -8.092       98.136       75.278       42.553     9630.629     5666.830     1810.796        2.283        0.855      168.795       46.321        0.075      347.972       27.326      858.031
08/23/2013  14:27:00     -195.037     -105.476       -1.498       86.855       62.111       40.616     7543.836     3857.785     1649.665        3.111        0.653      221.731       43.501        0.038      347.834       27.086      858.012
08/23/2013  14:28:00     -118.521     -151.260      -11.388       47.662       74.013       27.468     2271.671     5477.977      754.509        2.278        0.425      192.163       17.704        0.008      347.690       26.840      857.996
08/23/2013  14:29:00      -37.841      -55.130       22.143       65.275       43.096       34.921     4260.848     1857.302     1219.454        0.615        0.367       66.868       34.600        0.268      348.196       27.716      857.980
08/23/2013  14:30:00       12.826       20.037       47.063       34.822       40.332       28.182     1212.564     1626.648      794.243        0.321        0.182       23.790       25.272        1.128      348.060       27.479      857.964
08/23/2013  14:31:00      -24.828       -6.722       32.201       33.760       33.930       28.205     1139.723     1151.241      795.517        0.239        0.154       25.722       25.417        0.976      348.275       27.852      857.947
08/23/2013  14:32:00      -14.629       74.190       -1.822       44.797       26.240       31.306     2006.741      688.548      980.036        0.470        0.184       75.618       27.236        0.130      348.005       27.386      857.938
08/23/2013  14:33:00      -41.873       37.832       21.048       85.074       66.546       49.066     7237.581     4428.309     2407.446        0.885        0.704       56.432       34.154        0.366      348.338       27.960      857.916
08/23/2013  14:34:00      -78.355      126.641      -35.540       59.814       89.952       27.345     3577.708     8091.294      747.734        1.793        0.621      148.921       13.091        0.008      347.775       26.986      857.911
08/23/2013  14:35:00       12.432       42.131        0.160       34.324       24.940       19.063     1178.112      622.012      363.406        0.205        0.108       43.927       10.348        0.055      348.088       27.528      857.900
08/23/2013  14:36:00      -73.469       50.442      -15.221       68.768       52.197       28.623     4729.014     2724.562      819.281        0.822        0.414       89.118       35.137        0.155      348.087       27.526      857.881
08/23/2013  14:37:00      -87.882       46.687      -15.370       41.039       41.864       27.471     1684.220     1752.593      754.682        0.716        0.210       99.514       20.421        0.042      348.082       27.518      857.852
08/23/2013  14:38:00      -67.353       19.741        0.781       45.412       42.401       30.033     2062.269     1797.856      901.962        0.484        0.238       70.186       26.716        0.145      348.280       27.860      857.820
08/23/2013  14:39:00     -128.766      -13.279       -4.645       70.409       57.140       31.878     4957.370     3265.012     1016.178        1.301        0.462      129.449       19.896        0.024      348.222       27.760      857.813
08/23/2013  14:40:00      -45.391       31.211        3.759       43.472       32.919       22.872     1889.847     1083.631      523.126        0.327        0.175       55.086       11.256        0.042      348.357       27.994      857.800
08/23/2013  14:41:00       45.326       65.267       19.362       63.244       48.201       33.359     3999.760     2323.330     1112.793        0.706        0.372       79.462       28.271        0.127      348.401       28.070      857.779
08/23/2013  14:42:00       86.557       84.772       79.840       59.557       62.429       62.103     3547.050     3897.403     3856.824        1.618        0.565      121.154       40.555        0.112      348.254       27.814      857.738
08/23/2013  14:43:00       91.030      -94.870       28.253       60.745       71.436       61.209     3689.972     5103.108     3746.562        1.531        0.627      131.479       55.089        0.176      348.273       27.849      857.753
08/23/2013  14:44:00      -68.079      -57.942      -10.407       93.600       51.347       30.943     8761.013     2636.531      957.465        1.023        0.618       89.398       16.238        0.033      348.279       27.859      857.750
08/23/2013  14:45:00      -78.844       37.233       11.049       52.285       31.090       34.248     2733.735      966.616     1172.903        0.630        0.244       87.193       30.544        0.123      348.249       27.806      857.730
08/23/2013  14:46:00       13.097       43.422       18.783       31.756       38.485       32.051     1008.451     1481.064     1027.292        0.296        0.176       45.354       24.112        0.283      348.280       27.861      857.721
08/23/2013  14:47:00      -28.381      -43.231        2.636       88.927       72.686       37.920     7907.955     5283.239     1437.952        0.865        0.731       51.715       49.111        0.902      348.072       27.501      857.696
08/23/2013  14:48:00      -13.050      -52.485       15.526       31.431       50.500       24.565      987.889     2550.232      603.460        0.365        0.207       54.083       21.464        0.158      348.518       28.272      857.674
08/23/2013  14:49:00       -6.373      -19.325       15.213       56.659       38.487       28.774     3210.214     1481.247      827.965        0.308        0.276       20.349       27.283        1.798      348.329       27.945      857.661
08/23/2013  14:50:00     -135.996      -65.746      -13.025       66.358       41.240       31.326     4403.326     1700.743      981.313        1.504        0.354      151.054       31.321        0.043      348.060       27.481      857.652
08/23/2013  14:51:00      -14.386      -21.890       21.044       40.268       45.620       33.374     1621.492     2081.177     1113.800        0.297        0.241       26.194       16.574        0.400      348.334       27.953      857.640
08/23/2013  14:52:00      -59.608      -64.132       -2.541      106.188       53.018       38.205    11275.947     2810.941     1459.592        1.161        0.777       87.556       27.803        0.101      348.220       27.756      857.632
08/23/2013  14:53:00     -121.243      -37.489      -23.275       70.499       34.846       22.401     4970.148     1214.239      501.793        1.167        0.334      126.907       28.117        0.049      348.090       27.532      857.616
08/23/2013  14:54:00       -2.745      -78.367       12.082       39.175       61.614       31.898     1534.671     3796.334     1017.484        0.632        0.317       78.415       34.646        0.195      348.605       28.423      857.617
08/23/2013  14:55:00       25.871     -145.350      -22.897       71.788       65.084       36.745     5153.537     4235.931     1350.178        1.653        0.537      147.635       19.902        0.018      348.505       28.248      857.608
08/23/2013  14:56:00       -4.449      -48.067        8.569       43.898       43.850       38.176     1927.031     1922.847     1457.431        0.385        0.265       48.272       20.723        0.184      348.604       28.421      857.605
08/23/2013  14:57:00       16.718      -52.232        7.611       58.148       52.576       24.878     3381.165     2764.239      618.912        0.491        0.338       54.842       15.445        0.079      348.490       28.224      857.593
08/23/2013  14:58:00        4.058      -15.490       30.575       27.315       71.850       29.727      746.113     5162.421      883.707        0.399        0.340       16.013       38.314        5.725      348.415       28.095      857.569
08/23/2013  14:59:00      -12.198        0.095       54.753       26.500       42.241       28.934      702.250     1784.304      837.167        0.323        0.166       12.198       11.715        0.922      348.324       27.937      857.539
08/23/2013  15:00:00       52.437      -49.673       35.496       83.558      108.259       68.128     6981.981    11719.958     4641.378        1.491        1.167       72.229       82.415        1.302      348.599       28.412      857.531
08/23/2013  15:01:00       37.206       48.999       57.146       44.003       64.607       56.467     1936.302     4174.028     3188.562        0.817        0.465       61.524       55.063        0.801      347.940       27.274      857.531
08/23/2013  15:02:00      -45.543      -32.198        8.631       63.417       45.051       27.986     4021.725     2029.604      783.239        0.501        0.342       55.775       24.367        0.191      348.696       28.580      857.536
08/23/2013  15:03:00     -159.568      -93.817       -1.948      134.127       65.229       45.840    17990.003     4254.860     2101.334        2.930        1.217      185.105       64.471        0.121      348.365       28.006      857.529
08/23/2013  15:04:00     -113.481     -141.865      -18.260      108.281       61.490       33.269    11724.867     3781.024     1106.838        2.497        0.831      181.669       28.503        0.025      348.056       27.470      857.527
08/23/2013  15:05:00       -8.414       20.146       22.831       29.830       55.446       27.721      889.804     3074.296      768.428        0.286        0.237       21.833       32.292        2.188      348.203       27.728      857.524
08/23/2013  15:06:00      -33.210        8.782        1.219       40.927       31.835       25.819     1675.002     1013.468      666.608        0.227        0.168       34.352       23.382        0.463      348.268       27.840      857.514
08/23/2013  15:07:00       12.999       -4.114       12.977       34.414       26.887       21.820     1184.311      722.901      476.117        0.137        0.119       13.634       17.094        1.572      348.342       27.967      857.506
08/23/2013  15:08:00        5.018       12.708       28.385       19.917       22.907       23.527      396.704      524.744      553.513        0.123        0.074       13.663        9.846        0.519      348.523       28.281      857.485
08/23/2013  15:09:00        8.350      -26.343       33.510       51.979       56.064       36.857     2701.855     3143.187     1358.474        0.454        0.360       27.635       37.408        1.832      348.428       28.118      857.460
08/23/2013  15:10:00      -49.307      -28.630       18.461       44.393       31.374       24.571     1970.737      984.350      603.710        0.357        0.178       57.017       16.178        0.081      348.739       28.655      857.449
08/23/2013  15:11:00       32.368      -43.288       20.266       49.746       49.593       24.277     2474.646     2459.483      589.386        0.443        0.276       54.052       24.985        0.214      348.572       28.365      857.436
08/23/2013  15:12:00        5.662      -47.358       10.381       73.228       65.370       33.698     5362.358     4273.207     1135.557        0.658        0.539       47.695       36.217        0.577      348.459       28.172      857.406
08/23/2013  15:13:00      -88.550      -64.742      -19.759       77.343       33.725       25.312     5981.915     1137.347      640.713        1.009        0.388      109.693       22.352        0.042      348.210       27.739      857.406
08/23/2013  15:14:00      -22.855     -116.533        1.215       49.557       43.593       20.993     2455.847     1900.372      440.708        0.945        0.240      118.753       19.118        0.026      348.178       27.683      857.374
08/23/2013  15:15:00      -45.052      -76.120        3.379       64.783       46.320       26.010     4196.793     2145.545      676.503        0.743        0.351       88.453       24.372        0.076      348.466       28.184      857.357
08/23/2013  15:16:00      -42.653     -138.722       -6.397       34.767       41.028       22.665     1208.768     1683.272      513.695        1.225        0.170      145.131       19.514        0.018      348.190       27.705      857.351
08/23/2013  15:17:00      -29.541      -44.055      -14.006       27.169       40.814       18.696      738.130     1665.767      349.550        0.288        0.138       53.043       15.406        0.084      348.270       27.844      857.340
08/23/2013  15:18:00      -10.984      -10.562        3.004       22.267       27.553       22.509      495.828      759.188      506.652        0.100        0.088       15.238       18.969        1.550      348.265       27.835      857.321
08/23/2013  15:19:00       36.261      -16.978       -0.427       33.305       20.989       15.156     1109.236      440.537      229.708        0.169        0.089       40.039       15.136        0.143      347.616       26.715      857.328
08/23/2013  15:20:00       18.066      -65.806       17.966       67.564       87.726       56.593     4564.838     7695.814     3202.732        1.022        0.773       68.241       49.763        0.532      348.338       27.961      857.320
08/23/2013  15:21:00       10.609      -75.789      -10.059      102.508       67.770       51.701    10507.956     4592.726     2672.954        1.186        0.889       76.528       44.349        0.336      348.607       28.427      857.310
08/23/2013  15:22:00        7.279      -50.945        9.366       56.252       50.773       31.204     3164.301     2577.936      973.706        0.472        0.336       51.462       25.922        0.254      348.530       28.292      857.320
08/23/2013  15:23:00        5.869      -49.767       -3.004       44.085       41.835       30.814     1943.501     1750.181      949.497        0.358        0.232       50.112       31.470        0.394      348.475       28.196      857.318
08/23/2013  15:24:00        6.335      -94.909       -8.916       48.632       60.228       26.921     2365.104     3627.452      724.742        0.792        0.336       95.120       26.601        0.078      348.509       28.258      857.331
08/23/2013  15:25:00      -90.447      -38.351       -4.555       41.538       33.782       26.627     1725.419     1141.240      709.000        0.662        0.179       98.242       19.880        0.041      348.495       28.232      857.343
08/23/2013  15:26:00     -170.656     -100.329        8.703      108.094       69.799       38.835    11684.286     4871.948     1508.176        2.866        0.903      197.963       33.849        0.029      348.702       28.587      857.372
08/23/2013  15:27:00     -266.531      -12.635      -27.099      203.949      176.440       62.699    41595.039    31131.113     3931.221        7.428        3.833      266.831       41.668        0.024      348.337       27.957      857.380
08/23/2013  15:28:00      -36.393      102.362        8.061      102.857       70.433       57.959    10579.484     4960.847     3359.256        1.538        0.945      108.639       58.926        0.294      348.377       28.028      857.324
08/23/2013  15:29:00     -153.378      -45.057        3.064      106.471      100.124       46.332    11336.054    10024.725     2146.627        2.453        1.175      159.859       41.682        0.068      348.601       28.414      857.289
08/23/2013  15:30:00     -295.179     -138.032      -18.805      141.913      106.833       62.567    20139.412    11413.322     3914.634        7.100        1.773      325.858       70.820        0.047      348.444       28.140      857.293
08/23/2013  15:31:00     -357.505     -246.851       -3.788      201.338      139.541       92.582    40536.952    19471.623     8571.456       12.866        3.429      434.448      112.691        0.067      348.406       28.076      857.359
08/23/2013  15:32:00     -228.072     -178.342      -14.572      129.384       96.080       63.242    16740.255     9231.353     3999.521        5.700        1.499      289.521       51.887        0.032      348.256       27.817      857.381
08/23/2013  15:33:00     -185.726     -180.949        0.859      127.155      104.932       62.191    16168.505    11010.758     3867.711        4.914        1.552      259.301       60.162        0.054      348.412       28.088      857.375
08/23/2013  15:34:00     -182.031     -247.858        9.643      140.594      111.382       72.762    19766.712    12405.883     5294.313        6.606        1.873      307.521       70.311        0.052      348.277       27.851      857.376
08/23/2013  15:35:00     -145.109     -113.341        5.610      114.629      100.217       55.974    13139.899    10043.491     3133.138        3.012        1.316      184.127       58.527        0.101      348.527       28.285      857.328
08/23/2013  15:36:00     -158.301     -161.750        2.504      166.671      139.461       89.079    27779.270    19449.489     7935.036        5.319        2.758      226.323       95.190        0.177      348.550       28.324      857.341
08/23/2013  15:37:00     -138.204      -62.031       -1.869      133.970       98.915       84.216    17947.972     9784.200     7092.368        2.888        1.741      151.486       76.559        0.255      348.679       28.549      857.344
08/23/2013  15:38:00     -288.530     -111.345        3.526      120.177       88.956       58.730    14442.423     7913.199     3449.264        6.073        1.290      309.269       49.263        0.025      348.545       28.315      857.336
08/23/2013  15:39:00     -401.932     -151.324      -14.213      132.760      118.270       70.526    17625.157    13987.696     4973.942       11.061        1.829      429.475       71.114        0.027      348.344       27.969      857.337
08/23/2013  15:40:00     -284.907     -125.378      -16.936      189.195      122.748       57.443    35794.842    15067.145     3299.693        7.566        2.708      311.274       83.546        0.072      348.407       28.078      857.330
08/23/2013  15:41:00     -273.716      -83.836      -10.027      160.395      121.106       58.662    25726.700    14666.696     3441.173        6.293        2.192      286.267       71.964        0.063      348.428       28.115      857.301
08/23/2013  15:42:00     -222.925      -50.732       -5.019       97.800       79.064       50.133     9564.834     6251.118     2513.366        3.531        0.916      228.624       48.435        0.045      348.447       28.148      857.288
08/23/2013  15:43:00     -274.765      -76.787        0.754       99.536       90.631       62.588     9907.471     8214.051     3917.208        5.171        1.102      285.293       56.119        0.039      348.449       28.150      857.274
08/23/2013  15:44:00     -150.177      -40.993       -7.111      111.544       91.679       55.197    12442.171     8405.069     3046.761        2.409        1.195      155.671       58.028        0.139      348.417       28.096      857.261
08/23/2013  15:45:00     -326.206     -157.499       -0.891      228.593      108.226       64.120    52254.614    11712.864     4111.326        9.964        3.404      362.238       86.153        0.057      348.300       27.893      857.245
08/23/2013  15:46:00     -164.606      -92.507      -16.474      118.634       43.781       49.908    14073.980     1916.811     2490.789        2.720        0.924      188.819       61.565        0.106      348.335       27.954      857.223
08/23/2013  15:47:00     -206.895     -198.131        3.505      125.784      165.299       66.638    15821.583    27323.639     4440.661        6.482        2.379      286.463       74.845        0.068      348.400       28.065      857.212
08/23/2013  15:48:00     -242.791     -150.839        0.350      112.431      100.457       58.599    12640.816    10091.612     3433.880        5.393        1.308      285.832       47.592        0.028      348.468       28.182      857.189
08/23/2013  15:49:00     -252.224     -178.362       -2.279      147.556      149.379       67.304    21772.751    22314.137     4529.818        7.202        2.431      308.917       84.341        0.075      348.457       28.164      857.220
08/23/2013  15:50:00     -266.417     -126.423       18.031      190.609      156.055       77.938    36331.940    24353.284     6074.407        7.701        3.338      294.891       91.750        0.097      348.493       28.225      857.236
08/23/2013  15:51:00     -273.547      -70.056       -0.150      167.649      109.274       65.580    28106.177    11940.864     4300.779        6.203        2.217      282.375       70.030        0.062      348.573       28.364      857.211
08/23/2013  15:52:00     -187.220     -130.838        5.675      173.511      118.726       81.013    30106.136    14095.761     6563.105        5.148        2.538      228.408       84.311        0.136      348.632       28.466      857.184
08/23/2013  15:53:00     -200.105      -96.804        0.376      110.722       92.880       59.658    12259.276     8626.674     3559.020        3.692        1.222      222.290       56.994        0.066      348.672       28.536      857.198
08/23/2013  15:54:00     -328.937       22.647      -21.790      143.662      127.800       57.509    20638.686    16332.873     3307.335        7.473        2.014      329.716       57.706        0.031      348.654       28.503      857.180
08/23/2013  15:55:00      -94.481       26.587       -0.229      111.854       93.381       59.758    12511.277     8719.954     3571.067        1.721        1.240       98.151       59.231        0.364      348.803       28.765      857.175
08/23/2013  15:56:00     -178.179      -67.113       11.157      160.024      108.552       66.867    25607.555    11783.569     4471.157        3.911        2.093      190.400       77.318        0.165      348.736       28.648      857.175
08/23/2013  15:57:00     -396.328      -88.604      -15.229      117.678      102.279       65.494    13848.103    10461.089     4289.418        9.687        1.430      406.111       48.381        0.014      348.525       28.280      857.180
08/23/2013  15:58:00     -190.319       -2.182       -1.366      120.924       81.249       54.171    14622.551     6601.417     2934.492        3.019        1.208      190.332       55.594        0.085      348.563       28.349      857.190
08/23/2013  15:59:00     -192.158      -18.890       -3.893      100.858       57.419       34.317    10172.340     3296.890     1177.681        2.597        0.732      193.085       47.393        0.060      348.377       28.026      857.155
08/23/2013  16:00:00      -78.574        7.829        6.130       87.878       49.690       28.300     7722.492     2469.106      800.912        0.863        0.550       78.963       31.806        0.162      348.679       28.549      857.150
08/23/2013  16:01:00     -150.518      -52.707       -5.316       96.733       80.143       44.916     9357.248     6422.901     2017.420        2.163        0.890      159.480       52.601        0.109      348.686       28.560      857.128
08/23/2013  16:02:00     -149.982     -108.483       14.578      202.113      130.136       74.670    40849.732    16935.257     5575.572        4.891        3.168      185.103       95.870        0.268      348.686       28.560      857.063
08/23/2013  16:03:00     -178.599     -105.998       -0.517      112.837      101.654       59.631    12732.165    10333.610     3555.826        3.487        1.331      207.685       60.278        0.084      348.624       28.453      857.093
08/23/2013  16:04:00     -198.685     -185.278       18.943      129.229      110.515       67.352    16700.021    12213.602     4536.248        5.380        1.672      271.668       70.581        0.067      348.641       28.483      857.112
08/23/2013  16:05:00     -266.551     -186.590       -1.094      204.109      139.476      100.865    41660.680    19453.450    10173.677        8.857        3.564      325.370      120.164        0.136      348.590       28.395      857.134
08/23/2013  16:06:00     -234.257     -113.038      -15.736      166.879      175.617       68.799    27848.477    30841.327     4733.324        6.565        3.171      260.104       65.729        0.064      348.706       28.593      857.107
08/23/2013  16:07:00     -437.204      -39.658      -26.403      185.500      130.561       84.141    34410.278    17046.055     7079.667       12.597        2.927      438.999       94.743        0.047      348.574       28.365      857.087
08/23/2013  16:08:00     -316.255     -230.597       -7.061      189.932      188.114       87.782    36074.245    35387.023     7705.594       11.619        3.958      391.397       94.602        0.058      348.576       28.370      857.157
08/23/2013  16:09:00     -343.111     -153.698       -5.558      192.589      159.465       72.500    37090.507    25429.176     5256.203       10.457        3.389      375.963       84.621        0.051      348.434       28.125      857.154
08/23/2013  16:10:00     -341.084     -182.160       -9.110      197.724      149.090       90.836    39094.652    22227.824     8251.151       10.958        3.479      386.679       99.816        0.067      348.404       28.071      857.124
08/23/2013  16:11:00     -349.123     -255.035      -13.075      154.490      135.710       70.719    23867.264    18417.192     5001.146       11.719        2.364      432.353       76.193        0.031      348.254       27.812      857.098
08/23/2013  16:12:00     -295.562     -118.205       -6.037      112.622      124.614       67.508    12683.658    15528.575     4557.369        6.706        1.638      318.323       65.415        0.042      348.401       28.067      857.100
08/23/2013  16:13:00     -351.190      -45.758      -14.578      179.291      135.305       74.114    32145.429    18307.414     5492.825        9.078        2.797      354.158       92.407        0.068      348.502       28.242      857.110
08/23/2013  16:14:00     -426.993     -111.757      -19.311      120.895      123.718       54.702    14615.528    15306.172     2992.278       11.404        1.646      441.375       52.210        0.014      348.304       27.898      857.123
08/23/2013  16:15:00     -277.199      -59.910      -14.190      168.203       90.767       61.016    28292.348     8238.581     3722.977        6.044        2.013      283.599       62.847        0.049      348.497       28.234      857.108
08/23/2013  16:16:00     -235.490      -68.299       -8.365      140.752       93.566       51.392    19811.091     8754.527     2641.100        4.569        1.560      245.195       58.638        0.057      348.549       28.323      857.100
08/23/2013  16:17:00     -289.235      -78.347       -5.440      112.783       97.049       61.741    12720.103     9418.540     3811.983        5.788        1.298      299.658       67.916        0.051      348.473       28.190      857.080
08/23/2013  16:18:00     -280.381       36.510      -32.749       71.674       81.688       40.806     5137.207     6672.971     1665.112        4.724        0.674      282.748       31.742        0.013      348.605       28.419      857.081
08/23/2013  16:19:00     -321.733       45.281      -24.293      107.686      109.555       58.834    11596.302    12002.380     3461.421        6.660        1.353      324.903       55.921        0.030      348.545       28.315      857.071
08/23/2013  16:20:00     -220.158      -41.850        6.802      151.178       72.671       52.548    22854.649     5281.107     2761.249        4.058        1.545      224.100       64.621        0.083      348.611       28.429      857.050
08/23/2013  16:21:00     -114.993      -36.477       13.119      145.212       96.591       44.012    21086.655     9329.794     1937.092        2.353        1.618      120.640       51.410        0.182      348.750       28.674      857.052
08/23/2013  16:22:00     -310.308      -88.523      -33.212       98.125       77.368       54.682     9628.533     5985.816     2990.109        6.191        0.930      322.687       50.785        0.025      348.596       28.403      857.063
08/23/2013  16:23:00     -217.174      -65.995      -24.966      104.212       93.743       42.709    10860.138     8787.768     1824.058        3.680        1.074      226.980       52.041        0.053      348.608       28.426      857.051
08/23/2013  16:24:00     -159.859      -88.592        4.253      129.841       86.408       46.016    16858.772     7466.318     2117.461        2.993        1.322      182.766       53.027        0.084      348.715       28.611      857.049
08/23/2013  16:25:00     -179.563        0.605       -3.566      123.257       92.961       50.598    15192.401     8641.820     2560.135        2.932        1.320      179.564       55.464        0.095      348.647       28.493      857.048
08/23/2013  16:26:00     -137.360        0.193        9.305       95.364       85.724       47.331     9094.250     7348.640     2240.232        1.882        0.934      137.360       48.657        0.125      348.652       28.504      857.050
08/23/2013  16:27:00      -74.780      -85.525       32.219      132.308      104.744       56.760    17505.494    10971.270     3221.722        2.282        1.585      113.607       64.285        0.320      348.524       28.282      857.049
08/23/2013  16:28:00     -148.515      -51.515       10.396      159.016       98.416       48.626    25286.100     9685.795     2364.485        3.107        1.867      157.195       60.832        0.150      348.569       28.358      857.028
08/23/2013  16:29:00     -243.198     -198.443      -11.048      160.680       81.378       52.928    25818.176     6622.426     2801.358        6.694        1.762      313.886       51.688        0.027      348.428       28.113      857.011
08/23/2013  16:30:00     -336.916     -248.541      -22.305      155.031      117.667       79.927    24034.488    13845.547     6388.336       11.002        2.213      418.670       79.844        0.036      348.505       28.247      857.008
08/23/2013  16:31:00     -272.713     -196.068      -11.995      149.126      109.084       70.795    22238.560    11899.313     5011.901        7.605        1.957      335.880       57.113        0.029      348.473       28.189      857.045
08/23/2013  16:32:00     -119.586     -143.327       24.075      166.330      127.419      104.893    27665.688    16235.500    11002.640        4.515        2.745      186.664      110.150        0.348      348.512       28.258      857.036
08/23/2013  16:33:00      -39.616      -60.091       11.586       83.548       81.630       51.442     6980.205     6663.481     2646.243        1.080        0.814       71.975       49.225        0.468      348.608       28.428      857.041
08/23/2013  16:34:00     -118.328      -78.404        7.374      137.022       80.447       52.790    18775.132     6471.645     2786.832        2.411        1.402      141.946       72.891        0.264      348.464       28.179      857.018
08/23/2013  16:35:00      -53.885        0.497        3.700       71.486       67.845       40.485     5110.221     4602.879     1639.014        0.713        0.568       53.888       38.674        0.515      348.452       28.158      857.005
08/23/2013  16:36:00     -150.269      -75.225        8.553      141.761       90.911       52.747    20096.122     8264.771     2782.232        2.972        1.557      168.046       60.392        0.129      348.436       28.129      856.979
08/23/2013  16:37:00     -140.061        0.709       12.289      157.525      109.357       49.649    24814.117    11958.896     2465.043        2.950        1.962      140.063       66.461        0.225      348.510       28.256      856.947
08/23/2013  16:38:00     -222.689       25.107      -16.572      218.520      150.621       71.046    47751.181    22686.585     5047.475        6.298        3.774      224.100       42.167        0.035      348.449       28.151      856.840
08/23/2013  16:39:00     -188.629     -165.927        8.331      131.227      150.554       72.419    17220.519    22666.488     5244.564        5.415        2.257      251.222       70.359        0.078      348.489       28.219      856.888
08/23/2013  16:40:00     -299.939     -144.175        1.752      152.176      105.881       68.172    23157.640    11210.724     4647.390        7.488        1.951      332.791       71.793        0.047      348.536       28.302      856.913
08/23/2013  16:41:00     -284.991     -169.780      -11.854      171.164      115.548       74.766    29297.176    13351.398     5589.891        7.920        2.412      331.731       75.250        0.051      348.478       28.198      856.929
08/23/2013  16:42:00     -288.873     -217.530        2.136      183.373      125.774       77.791    33625.705    15819.025     6051.506        9.312        2.775      361.617       89.569        0.061      348.309       27.906      856.925
08/23/2013  16:43:00     -316.161     -226.137       -6.689      135.882      132.506       78.464    18463.934    17557.792     6156.656        9.665        2.109      388.710       74.062        0.036      348.288       27.868      856.908
08/23/2013  16:44:00     -317.814     -158.660      -12.464      132.946      112.838       64.201    17674.727    12732.346     4121.761        8.043        1.726      355.216       71.365        0.040      348.322       27.931      856.923
08/23/2013  16:45:00     -295.538      -64.407      -10.323      126.542      134.777       65.453    16012.955    18164.924     4284.041        6.502        1.923      302.475       54.489        0.032      348.411       28.084      856.929
08/23/2013  16:46:00     -307.481       40.399      -10.659      154.729       80.382       44.772    23941.001     6461.326     2004.509        6.434        1.620      310.123       59.057        0.036      348.327       27.939      856.920
08/23/2013  16:47:00     -219.060      -14.562       -8.405      134.873      121.713       61.154    18190.638    14814.030     3739.815        4.250        1.837      219.543       65.584        0.089      348.381       28.033      856.898
08/23/2013  16:48:00     -211.348      -19.675      -17.071      181.666       84.388       64.107    33002.520     7121.254     4109.694        4.478        2.212      212.262       89.301        0.177      348.355       27.987      856.886
08/23/2013  16:49:00     -399.052      -80.091      -14.671      173.201       97.120       60.520    29998.617     9432.346     3662.723       10.448        2.155      407.009       72.112        0.031      348.421       28.101      856.880
08/23/2013  16:50:00     -300.112     -143.840       -1.641      195.096      127.390       67.994    38062.442    16228.314     4623.132        8.483        2.946      332.802       82.762        0.062      348.374       28.019      856.866
08/23/2013  16:51:00     -439.845      -31.898      -27.959      191.086      146.126       65.551    36513.944    21352.769     4296.896       12.870        3.108      441.000       80.067        0.033      348.332       27.946      856.887
08/23/2013  16:52:00     -369.206     -171.731       -7.171      173.922      121.653       76.565    30248.717    14799.484     5862.275       10.837        2.546      407.191       83.488        0.042      348.339       27.959      856.878
08/23/2013  16:53:00     -195.748      -68.228       -7.651      138.956      104.983       64.019    19308.810    11021.344     4098.453        3.872        1.721      207.298       64.581        0.097      348.438       28.132      856.895
08/23/2013  16:54:00     -187.791      -28.156       -5.702      108.282       75.985       53.861    11724.959     5773.745     2901.028        2.824        1.020      189.890       50.481        0.071      348.434       28.124      856.886
08/23/2013  16:55:00     -207.245       61.530      -22.424       88.438       75.999       43.345     7821.238     5775.836     1878.829        3.135        0.774      216.186       47.879        0.049      348.369       28.011      856.874
08/23/2013  16:56:00     -168.031      -90.987       -6.465       80.576       70.232       43.670     6492.546     4932.492     1907.046        2.494        0.667      191.084       45.221        0.056      348.437       28.129      856.867
08/23/2013  16:57:00     -334.630      -20.107      -13.259      114.493       88.130       57.961    13108.701     7766.954     3359.445        6.839        1.212      335.234       60.486        0.033      348.364       28.003      856.872
08/23/2013  16:58:00     -295.365      -35.573      -13.421      153.753      122.634       60.426    23639.959    15039.159     3651.255        6.550        2.117      297.499       61.271        0.042      348.313       27.914      856.861
08/23/2013  16:59:00     -318.224      -60.609      -15.985      116.930      104.631       56.181    13672.624    10947.615     3156.304        6.648        1.389      323.945       53.057        0.027      348.259       27.819      856.865
08/23/2013  17:00:00     -189.162     -102.411        8.222      157.794      160.478       84.249    24899.100    25753.032     7097.901        5.203        2.888      215.105       93.051        0.187      348.296       27.887      856.865
08/23/2013  17:01:00     -495.800      -77.087      -29.732      168.881      136.263       75.232    28520.644    18567.732     5659.901       15.269        2.637      501.757       86.348        0.030      348.218       27.749      856.889
08/23/2013  17:02:00     -436.259     -161.280      -16.377      148.194      102.246       60.451    21961.403    10454.289     3654.306       12.633        1.803      465.116       56.575        0.015      348.202       27.724      856.863
08/23/2013  17:03:00     -313.331      -63.839      -11.868      110.247       78.178       42.966    12154.402     6111.856     1846.077        6.125        1.006      319.769       44.164        0.019      348.288       27.871      856.849
08/23/2013  17:04:00     -287.434     -122.199      -18.860      106.379       83.729       52.578    11316.490     7010.536     2764.397        5.950        1.055      312.332       51.393        0.027      348.285       27.865      856.837
08/23/2013  17:05:00     -354.603      -68.537        0.468      130.604      106.891       61.307    17057.518    11425.751     3758.603        8.134        1.612      361.165       67.409        0.035      348.234       27.776      856.837
08/23/2013  17:06:00     -214.347      -98.136      -23.774      136.232       88.495       38.973    18559.143     7831.303     1518.883        4.202        1.395      235.744       34.164        0.021      348.237       27.783      856.825
08/23/2013  17:07:00     -305.917      -73.008      -30.172      103.294      101.119       59.005    10669.683    10225.135     3481.584        6.210        1.219      314.508       48.315        0.024      348.304       27.898      856.824
08/23/2013  17:08:00     -251.103      -81.960        0.311      162.723      125.763       66.336    26478.820    15816.271     4400.408        5.822        2.335      264.140       68.965        0.068      348.374       28.021      856.826
08/23/2013  17:09:00     -208.189     -125.721       -4.254      102.239       85.557       50.749    10452.903     7320.047     2575.462        3.975        1.017      243.205       51.568        0.045      348.314       27.915      856.829
08/23/2013  17:10:00     -184.059      -90.489        7.305      115.663      116.319       60.841    13377.879    13530.152     3701.631        3.636        1.530      205.099       63.059        0.095      348.293       27.880      856.810
08/23/2013  17:11:00     -218.690      -89.676       -8.762      140.530      125.896       60.963    19748.710    15849.920     3716.540        4.762        1.966      236.362       57.420        0.059      348.316       27.920      856.816
08/23/2013  17:12:00     -104.734     -110.187       21.756      137.539      116.108       70.645    18917.102    13480.969     4990.720        3.048        1.869      152.021       81.947        0.291      348.344       27.970      856.810
08/23/2013  17:13:00     -309.383      -28.468      -29.742      161.231      104.139       53.514    25995.311    10844.953     2863.705        6.855        1.985      310.690       73.572        0.056      348.266       27.833      856.795
08/23/2013  17:14:00     -329.704      -85.667      -10.411      228.735      127.194       78.470    52319.769    16178.299     6157.545        9.539        3.733      340.652       94.511        0.077      348.303       27.899      856.812
08/23/2013  17:15:00     -336.352     -157.019      -14.998      241.112      141.954       96.655    58134.808    20150.832     9342.194       11.281        4.381      371.197      103.597        0.078      348.207       27.733      856.842
08/23/2013  17:16:00     -456.963      -98.696       -3.879      277.022      173.268       92.192    76741.180    30021.687     8499.306       16.690        5.763      467.500      123.211        0.069      348.164       27.655      856.832
08/23/2013  17:17:00     -388.542      -83.892      -34.686      148.764      132.613       69.022    22130.685    17586.257     4764.059       10.184        2.224      397.496       70.324        0.031      348.065       27.486      856.829
08/23/2013  17:18:00     -407.469      -63.207      -33.636      128.564      139.258       66.094    16528.744    19392.862     4368.351       10.572        2.014      412.343       62.625        0.023      348.072       27.498      856.826
08/23/2013  17:19:00     -349.545      -73.173      -16.995      156.301      129.684       83.083    24429.905    16818.051     6902.702        8.798        2.408      357.122       87.581        0.060      348.122       27.584      856.818
08/23/2013  17:20:00     -288.634      -89.661      -16.112      140.982      140.591       67.889    19875.811    19765.805     4608.879        6.792        2.213      302.239       76.014        0.063      348.122       27.584      856.813
08/23/2013  17:21:00     -233.277       38.721      -13.464      140.022      103.579       57.658    19606.267    10728.527     3324.438        4.487        1.683      236.468       62.189        0.069      348.147       27.628      856.827
08/23/2013  17:22:00     -348.058       -6.180      -37.714      155.183      117.937       47.846    24081.731    13909.086     2289.286        8.144        2.014      348.113       50.775        0.021      348.199       27.716      856.828
08/23/2013  17:23:00     -373.351      -34.917      -20.773      122.647      107.194       64.187    15042.404    11490.468     4119.993        8.584        1.533      374.980       60.870        0.026      348.163       27.654      856.824
08/23/2013  17:24:00     -403.305     -100.624      -23.965      234.454      156.649       81.039    54968.871    24538.890     6567.267       12.970        4.304      415.668       92.718        0.050      348.099       27.545      856.823
08/23/2013  17:25:00     -288.744      -29.250      -12.638      135.853      127.575       50.659    18456.062    16275.436     2566.318        6.084        1.865      290.222       45.622        0.025      348.164       27.656      856.844
08/23/2013  17:26:00     -306.954      -20.359       -9.553      177.946      101.904       66.559    31664.663    10384.491     4430.038        7.060        2.324      307.628       66.131        0.046      348.122       27.585      856.841
08/23/2013  17:27:00     -203.176       -7.558        1.188      153.490       93.999       57.413    23559.173     8835.796     3296.201        3.851        1.785      203.317       65.151        0.103      348.149       27.632      856.838
08/23/2013  17:28:00     -418.069      -93.469      -23.973      154.378      131.009       61.916    23832.605    17163.373     3833.638       11.445        2.241      428.390       62.565        0.021      348.123       27.587      856.829
08/23/2013  17:29:00     -319.201      -35.315      -20.985      174.132       96.546       56.901    30321.865     9321.188     3237.730        7.322        2.144      321.149       78.258        0.059      348.113       27.567      856.829
08/23/2013  17:30:00      -90.470       -5.998       12.948      104.418       76.474       56.645    10903.048     5848.269     3208.614        1.417        0.998       90.668       56.742        0.392      348.063       27.485      856.805
08/23/2013  17:31:00     -284.357      -67.954      -20.358       73.964       71.544       36.298     5470.692     5118.534     1317.512        4.890        0.595      292.364       27.753        0.009      348.091       27.529      856.797
08/23/2013  17:32:00     -406.668      -33.817      -11.139      182.267      135.118       63.039    33221.280    18256.896     3973.918       11.104        2.773      408.072       70.438        0.030      348.105       27.553      856.810
08/23/2013  17:33:00     -373.975      -79.945      -10.427      189.269      147.025       86.600    35822.649    21616.251     7499.609       10.564        3.247      382.424       88.787        0.054      348.033       27.430      856.783
08/23/2013  17:34:00     -480.279     -117.476      -29.599      135.411      125.019       65.709    18336.070    15629.714     4317.711       14.181        1.914      494.438       56.530        0.013      348.037       27.436      856.783
08/23/2013  17:35:00     -344.020      -74.567      -25.674      122.235      112.064       68.365    14941.448    12558.422     4673.774        7.837        1.609      352.008       59.773        0.029      348.073       27.499      856.800
08/23/2013  17:36:00     -421.929      -72.955      -23.942      167.001       99.530       71.771    27889.224     9906.246     5151.120       11.343        2.147      428.190       84.280        0.039      347.995       27.367      856.795
08/23/2013  17:37:00     -423.006     -113.706      -18.706      127.939      127.276       65.470    16368.294    16199.243     4286.374       11.453        1.843      438.022       59.919        0.019      348.023       27.414      856.787
08/23/2013  17:38:00     -366.890      -46.123      -14.025      204.995      124.955       70.566    42023.077    15613.750     4979.537        9.976        3.131      369.777       84.845        0.053      347.995       27.364      856.802
08/23/2013  17:39:00     -447.452     -102.171       -0.193      190.714      116.562       73.667    36371.682    13586.716     5426.843       13.301        2.769      458.969       92.817        0.041      347.995       27.365      856.800
08/23/2013  17:40:00     -414.633     -151.575      -27.668      175.291      117.575       78.245    30726.965    13823.931     6122.253       12.316        2.534      441.470       81.275        0.034      347.995       27.364      856.804
08/23/2013  17:41:00     -380.200      -90.137      -15.303      193.857      128.181       76.515    37580.352    16430.295     5854.564       10.638        2.993      390.738       92.128        0.056      347.942       27.274      856.808
08/23/2013  17:42:00     -284.536     -117.346        9.865      216.300      172.925       72.695    46785.835    29903.117     5284.514        8.839        4.099      307.784       98.907        0.103      347.940       27.270      856.823
08/23/2013  17:43:00     -381.899     -104.739      -26.279      190.622      148.248       80.470    36336.624    21977.430     6475.346       11.114        3.239      396.001       85.401        0.047      347.900       27.201      856.790
08/23/2013  17:44:00     -325.428        5.640      -26.640      200.490      153.484       77.866    40196.156    23557.188     6063.142        8.822        3.491      325.476       76.159        0.055      347.874       27.156      856.798
08/23/2013  17:45:00     -378.786     -110.092       -9.077      173.742      160.292       78.528    30186.270    25693.422     6166.638       10.885        3.102      394.461       78.642        0.040      347.878       27.163      856.784
08/23/2013  17:46:00     -382.363     -136.778      -19.086      175.520      138.251       82.395    30807.150    19113.356     6788.963       11.098        2.835      406.091       95.480        0.055      347.877       27.162      856.815
08/23/2013  17:47:00     -222.830     -197.701       16.572      182.014      175.523       88.491    33129.211    30808.287     7830.636        8.038        3.588      297.891       94.429        0.100      347.838       27.094      856.826
08/23/2013  17:48:00     -233.687      -63.521       -6.336      198.421      124.453       76.752    39370.914    15488.571     5890.892        5.971        3.038      242.166       88.906        0.135      347.855       27.123      856.828
08/23/2013  17:49:00     -267.146     -115.221        5.768      186.650      123.499       70.298    34838.338    15251.961     4941.825        6.984        2.752      290.934       74.545        0.066      347.822       27.066      856.818
08/23/2013  17:50:00     -234.056      -67.671      -11.268      131.310      111.154       62.154    17242.244    12355.142     3863.092        4.647        1.673      243.642       64.692        0.071      347.861       27.132      856.839
08/23/2013  17:51:00     -291.172     -137.470       -6.231      153.466      162.717       69.065    23551.853    26476.742     4769.916        7.925        2.740      321.992       78.709        0.060      347.814       27.053      856.832
08/23/2013  17:52:00     -436.265     -102.994      -26.778      214.399      135.594       70.903    45967.067    18385.826     5027.261       13.550        3.469      448.257       86.888        0.038      347.766       26.971      856.848
08/23/2013  17:53:00     -377.160     -137.241      -12.970      178.021      139.881       79.040    31691.554    19566.642     6247.321       10.937        2.875      401.354       83.178        0.043      347.751       26.945      856.832
08/23/2013  17:54:00     -351.794     -184.196        9.769      234.052      168.798      100.398    54780.365    28492.851    10079.753       12.555        4.668      397.098      115.377        0.084      347.682       26.825      856.811
08/23/2013  17:55:00     -388.367     -277.094      -36.637      230.698      212.664      103.626    53221.609    45225.852    10738.335       16.905        5.459      477.084      120.114        0.063      347.646       26.763      856.803
08/23/2013  17:56:00     -458.615     -268.339       -5.990      223.714      196.560       99.620    50047.955    38635.691     9924.190       19.047        4.930      531.351      109.500        0.042      347.615       26.708      856.804
08/23/2013  17:57:00     -460.238     -153.222      -39.869      225.032      174.794       84.371    50639.379    30552.926     7118.427       16.258        4.416      485.073       94.710        0.038      347.607       26.696      856.799
08/23/2013  17:58:00     -382.151     -282.283       -9.046      199.354      164.460       99.728    39742.138    27047.058     9945.628       15.126        3.837      475.103      110.925        0.055      347.554       26.604      856.789
08/23/2013  17:59:00     -271.413     -168.063        5.943      220.822      173.505      109.789    48762.487    30104.132    12053.596        9.642        4.546      319.233      126.394        0.157      347.563       26.621      856.775
08/23/2013  18:00:00     -350.098     -144.920        0.848      185.902      165.707       83.927    34559.422    27458.781     7043.664       10.630        3.453      378.907       90.264        0.057      347.559       26.613      856.803
08/23/2013  18:01:00     -272.190     -126.827        0.205      183.229      141.403      102.212    33573.028    19994.783    10447.342        7.708        3.201      300.287      106.714        0.126      347.548       26.594      856.829
08/23/2013  18:02:00     -364.503     -154.081      -14.561      215.579      220.609       96.841    46474.270    48668.427     9378.145       13.065        5.226      395.731      112.210        0.080      347.509       26.527      856.818
08/23/2013  18:03:00     -523.202     -246.500      -25.471      227.286      200.872       93.485    51659.002    40349.559     8739.419       21.793        5.037      578.362      105.157        0.033      347.459       26.439      856.796
08/23/2013  18:04:00     -354.123     -187.381       -6.045      188.370      150.486       90.005    35483.130    22645.887     8100.827       11.338        3.311      400.643       98.645        0.061      347.474       26.464      856.813
08/23/2013  18:05:00     -305.696      -67.701      -11.849      143.428      191.489       76.353    20571.721    36668.187     5829.770        8.061        3.153      313.103       78.758        0.063      347.488       26.490      856.808
08/23/2013  18:06:00     -342.776     -106.836       -4.144      123.090      159.411       71.036    15151.075    25411.714     5046.153        8.726        2.280      359.040       67.345        0.035      347.502       26.513      856.824
08/23/2013  18:07:00     -351.956      -81.381      -11.270      114.824      113.935       60.390    13184.494    12981.192     3646.973        8.021        1.491      361.242       56.499        0.024      347.489       26.490      856.812
08/23/2013  18:08:00     -401.243     -185.137      -16.058      203.434      156.652       87.648    41385.310    24539.905     7682.101       13.456        3.680      441.896      102.351        0.054      347.460       26.440      856.805
08/23/2013  18:09:00     -106.872      -62.653       23.815      175.427      132.136       82.478    30774.467    17459.910     6802.599        3.547        2.752      123.883      101.630        0.673      347.474       26.466      856.792
08/23/2013  18:10:00     -199.899      -73.604       28.558      173.406      105.667       85.581    30069.555    11165.415     7324.037        4.737        2.428      213.019      101.119        0.225      347.465       26.450      856.775
08/23/2013  18:11:00     -281.694     -191.099      -13.043      139.105      108.142       72.721    19350.239    11694.703     5288.341        7.618        1.817      340.397       69.712        0.042      347.435       26.397      856.773
08/23/2013  18:12:00     -102.134     -107.614       -1.273      124.975      129.329       63.950    15618.699    16725.915     4089.659        2.922        1.822      148.365       48.879        0.109      347.432       26.394      856.759
08/23/2013  18:13:00     -385.592     -195.503       -1.041      305.938      202.820      112.991    93597.947    41135.880    12766.909       16.718        7.375      432.322      149.658        0.120      347.377       26.299      856.734
08/23/2013  18:14:00     -452.160     -277.063       -3.469      288.845      189.155      104.632    83431.169    35779.750    10947.858       20.567        6.508      530.295      119.917        0.051      347.349       26.250      856.731
08/23/2013  18:15:00     -394.822     -143.141       -7.429      203.499      212.808      104.232    41411.668    45287.151    10864.404       13.698        4.878      419.969      116.794        0.077      347.342       26.238      856.731
08/23/2013  18:16:00     -283.901     -140.708        4.311      220.114      186.382       86.943    48450.148    34738.340     7559.144        9.557        4.537      316.858       86.936        0.075      347.350       26.252      856.719
08/23/2013  18:17:00     -438.245     -244.391       -4.369      295.313      200.316      115.117    87209.900    40126.322    13251.944       19.617        7.029      501.783      142.992        0.081      347.306       26.176      856.704
08/23/2013  18:18:00     -494.493     -233.384      -14.881      231.600      166.300       99.517    53638.615    27655.654     9903.685       19.519        4.560      546.801      114.677        0.044      347.300       26.165      856.710
08/23/2013  18:19:00     -389.304     -278.714      -20.543      210.520      162.172       96.316    44318.826    26299.823     9276.717       15.476        3.995      478.789      101.727        0.045      347.300       26.165      856.706
08/23/2013  18:20:00     -268.770     -172.238       -1.490      247.356      188.537      103.302    61185.073    35546.064    10671.296       10.464        5.370      319.223      120.908        0.143      347.298       26.165      856.709
08/23/2013  18:21:00     -287.580     -129.200       10.477      230.034      167.530       92.811    52915.726    28066.149     8613.814        9.454        4.480      315.269      104.541        0.110      347.290       26.150      856.689
08/23/2013  18:22:00     -460.211     -143.548      -12.297      220.324      234.973       91.172    48542.825    55212.127     8312.320       17.229        5.603      482.079       90.692        0.035      347.274       26.120      856.702
08/23/2013  18:23:00     -480.075      -95.609      -17.805      207.052      163.839      104.010    42870.597    26843.357    10818.168       16.022        4.027      489.503      110.970        0.051      347.259       26.093      856.707
08/23/2013  18:24:00     -410.768     -195.959      -23.497      229.682      157.918       83.990    52753.988    24938.045     7054.341       14.620        4.237      455.116       84.535        0.035      347.248       26.075      856.694
08/23/2013  18:25:00     -474.852     -151.090      -48.487      236.732      161.486       89.295    56042.264    26077.760     7973.646       17.036        4.505      498.310       99.569        0.040      347.240       26.062      856.721
08/23/2013  18:26:00     -505.094     -195.869      -35.644      288.084      168.997       79.219    82992.184    28560.005     6275.627       20.627        5.891      541.742      114.325        0.045      347.229       26.043      856.706
08/23/2013  18:27:00     -274.887     -179.273        4.056      283.684      156.433      116.275    80476.798    24471.231    13519.972       11.307        5.923      328.179      134.795        0.169      347.209       26.009      856.696
08/23/2013  18:28:00     -405.379     -172.284       -4.187      215.779      209.557       92.314    46560.481    43914.217     8521.911       14.650        4.950      440.470      100.964        0.053      347.201       25.995      856.707
08/23/2013  18:29:00     -368.427     -160.235       10.327      293.618      190.224      101.024    86211.394    36185.011    10205.944       14.704        6.630      401.764      120.049        0.089      347.188       25.974      856.713
08/23/2013  18:30:00     -331.520     -209.758      -20.275      228.456      172.523       95.531    52191.972    29764.255     9126.111       12.268        4.554      392.306       86.371        0.048      347.181       25.963      856.700
08/23/2013  18:31:00     -153.445      -96.859       12.617      146.207      115.472       67.318    21376.554    13333.850     4531.660        3.616        1.962      181.459       60.346        0.111      347.179       25.958      856.734
08/23/2013  18:32:00     -531.460     -116.976      -30.250      213.282      158.198       92.343    45489.048    25026.507     8527.275       18.803        3.952      544.181      101.430        0.035      347.147       25.902      856.713
08/23/2013  18:33:00     -353.538      -77.531      -17.147      157.691      163.056       79.859    24866.472    26587.302     6377.397        9.455        2.892      361.939       78.499        0.047      347.141       25.893      856.693
08/23/2013  18:34:00     -531.682      -44.814      -18.196      170.803      169.351       92.002    29173.655    28679.849     8464.284       17.566        3.316      533.567       90.770        0.029      347.125       25.864      856.678
08/23/2013  18:35:00     -262.822     -134.873       -4.002      172.703      168.507       77.736    29826.413    28394.466     6042.961        7.576        3.213      295.408       87.567        0.088      347.128       25.870      856.706
08/23/2013  18:36:00     -210.894     -113.298       -6.470      189.338      148.415       89.700    35848.865    22026.987     8046.120        6.163        3.296      239.401       85.650        0.128      347.121       25.858      856.690
08/23/2013  18:37:00     -558.038     -160.969      -37.664      209.102      210.716      101.740    43723.501    44401.398    10350.952       21.859        4.924      580.790      101.866        0.031      347.102       25.824      856.664
08/23/2013  18:38:00     -452.370     -133.716        1.603      208.850      217.992       90.404    43618.138    47520.636     8172.877       16.090        4.966      471.719       96.191        0.042      347.087       25.798      856.695
08/23/2013  18:39:00     -257.162      -76.525       -3.573      193.715      116.476       62.293    37525.567    13566.713     3880.387        6.348        2.749      268.306       69.548        0.067      347.076       25.779      856.720
08/23/2013  18:40:00     -269.361     -207.291        1.459      257.234      167.744      109.555    66169.464    28138.120    12002.259       11.090        5.315      339.890      130.467        0.147      347.071       25.772      856.720
08/23/2013  18:41:00     -225.735      -53.340        2.585      181.687      166.306       75.846    33010.257    27657.631     5752.592        6.010        3.321      231.951       66.533        0.082      347.058       25.751      856.723
08/23/2013  18:42:00     -251.273      -88.686        6.523      179.163      127.112       96.344    32099.216    16157.567     9282.176        6.428        2.877      266.465      105.866        0.158      347.053       25.739      856.701
08/23/2013  18:43:00     -216.565     -200.641       -6.937      197.810      124.549       77.738    39128.850    15512.501     6043.165        7.393        3.034      295.224       95.545        0.105      347.034       25.708      856.689
08/23/2013  18:44:00     -365.875     -166.160        0.644      282.431      213.353       99.416    79767.452    45519.370     9883.579       14.830        6.759      401.838      130.853        0.106      347.013       25.672      856.653
08/23/2013  18:45:00     -479.049     -230.622       11.660      298.640      228.611      132.746    89186.137    52263.133    17621.517       22.091        7.954      531.671      164.979        0.096      346.980       25.615      856.648
08/23/2013  18:46:00     -318.558      -71.143      -13.498      186.208      136.437       69.148    34673.462    18615.185     4781.445        8.239        2.904      326.405       67.472        0.043      347.000       25.649      856.684
08/23/2013  18:47:00     -342.093     -221.732        1.458      208.607      170.333       90.280    43516.988    29013.269     8150.390       12.342        4.034      407.667       98.293        0.058      346.977       25.610      856.713
08/23/2013  18:48:00     -305.242     -153.960      -10.629      169.328      132.094       82.860    28671.822    17448.868     6865.738        8.498        2.649      341.872       90.239        0.070      346.961       25.582      856.724
08/23/2013  18:49:00     -190.643      -20.369        8.872      160.826      109.436       61.860    25864.977    11976.178     3826.653        3.925        2.083      191.728       70.467        0.135      346.914       25.503      856.727
08/23/2013  18:50:00     -270.716     -137.580        5.746      180.579      168.062       98.417    32608.617    28244.999     9685.940        8.138        3.527      303.669      100.594        0.110      346.941       25.547      856.720
08/23/2013  18:51:00     -615.305     -157.795      -21.309      218.977      193.323      103.782    47950.820    37373.840    10770.780       25.001        4.805      635.216       99.671        0.025      346.913       25.498      856.696
08/23/2013  18:52:00     -543.261     -147.039      -40.356      219.930      190.347      103.405    48369.122    36232.044    10692.591       20.682        4.765      562.808      101.123        0.032      346.903       25.481      856.721
08/23/2013  18:53:00     -350.449     -228.056        9.156      190.794      156.799      100.753    36402.237    24585.982    10151.235       12.301        3.557      418.120      107.402        0.066      346.893       25.464      856.714
08/23/2013  18:54:00     -244.463     -194.952       -7.614      222.793      165.290       97.361    49636.898    27320.672     9479.227        9.212        4.322      312.679      108.757        0.121      346.894       25.465      856.713
08/23/2013  18:55:00     -360.081     -198.383      -13.311      250.848      158.738       94.819    62924.831    25197.665     8990.589       13.314        4.856      411.114      114.545        0.078      346.877       25.437      856.728
08/23/2013  18:56:00     -324.027     -108.260       -6.181      262.304      164.781      103.169    68803.459    27152.866    10643.795       11.166        5.330      341.634      109.801        0.103      346.862       25.410      856.741
08/23/2013  18:57:00     -459.273     -142.813      -35.887      186.404      159.520       68.745    34746.571    25446.733     4725.943       14.876        3.246      480.965       78.670        0.027      346.881       25.444      856.764
08/23/2013  18:58:00     -340.045      -70.790      -19.989      169.868      110.255       67.054    28855.022    12156.070     4496.194        8.327        2.275      347.336       75.934        0.048      346.863       25.413      856.779
08/23/2013  18:59:00     -268.615     -194.529        7.006      198.935      138.736       80.809    39575.164    19247.662     6530.163        8.769        3.268      331.656       95.937        0.084      346.838       25.372      856.768
08/23/2013  19:00:00     -496.945     -212.234       -0.919      306.365      209.326      127.089    93859.753    43817.178    16151.677       22.289        7.691      540.368      146.992        0.074      346.832       25.360      856.718
08/23/2013  19:01:00     -445.677      -45.997      -29.657      153.214      137.973       76.614    23474.458    19036.560     5869.654       12.499        2.419      448.044       51.278        0.013      346.821       25.342      856.740
08/23/2013  19:02:00     -346.967     -117.993      -12.845      209.223      156.188       88.028    43774.160    24394.651     7748.864       10.518        3.796      366.481      113.993        0.097      346.817       25.335      856.729
08/23/2013  19:03:00      -90.277      -91.295       41.653      239.637      141.572       91.828    57426.105    20042.606     8432.435        5.205        4.295      128.392      126.210        0.966      346.777       25.266      856.708
08/23/2013  19:04:00     -357.988     -101.864      -24.956      190.603      138.710       81.371    36329.331    19240.456     6621.248       10.066        3.110      372.198       85.199        0.052      346.787       25.283      856.725
08/23/2013  19:05:00     -373.678     -231.404      -11.101      200.246      169.940       76.454    40098.273    28879.611     5845.141       13.405        3.741      439.526       86.481        0.039      346.776       25.263      856.718
08/23/2013  19:06:00     -505.616     -152.825      -29.284      215.872      153.874      103.250    46600.583    23677.116    10660.606       18.039        4.047      528.207      101.130        0.037      346.773       25.257      856.710
08/23/2013  19:07:00     -397.003     -134.708      -27.354      162.317      163.972       96.165    26346.813    26886.921     9247.674       11.948        3.124      419.235       88.907        0.045      346.758       25.232      856.710
08/23/2013  19:08:00     -321.459     -149.813      -14.687      194.333      149.911       93.548    37765.508    22473.438     8751.232        9.748        3.450      354.655       90.263        0.065      346.758       25.234      856.719
08/23/2013  19:09:00     -383.881      -32.478      -19.295      178.331      130.633       84.738    31801.842    17065.066     7180.536       10.241        2.802      385.253       82.997        0.046      346.718       25.161      856.733
08/23/2013  19:10:00     -412.339      -53.545      -21.199      196.153      162.958       80.268    38476.156    26555.263     6442.939       12.240        3.574      415.801       88.610        0.045      346.692       25.119      856.707
08/23/2013  19:11:00     -418.335      -95.978      -23.324      167.656      146.844       90.781    28108.479    21563.019     8241.256       12.133        2.896      429.204       98.149        0.052      346.681       25.098      856.737
08/23/2013  19:12:00     -344.869      -32.663       -8.023      197.242      137.185       71.883    38904.591    18819.666     5167.183        9.147        3.145      346.412       90.585        0.068      346.657       25.059      856.757
08/23/2013  19:13:00     -265.188     -161.062      -22.680      138.154      138.265       59.380    19086.577    19117.235     3525.987        6.925        2.086      310.268       63.204        0.041      346.671       25.083      856.765
08/23/2013  19:14:00     -220.309     -107.644       -5.348      150.060       86.701       66.673    22518.027     7517.092     4445.323        4.731        1.724      245.201       65.150        0.071      346.658       25.060      856.776
08/23/2013  19:15:00     -336.503     -104.119       -9.776      169.212      134.213       86.085    28632.830    18013.216     7410.660        8.910        2.703      352.243       83.025        0.056      346.628       25.010      856.758
08/23/2013  19:16:00     -307.552      -52.490        9.986      252.016      123.998       74.310    63512.089    15375.490     5521.937        9.091        4.220      311.999       94.555        0.092      346.604       24.967      856.764
08/23/2013  19:17:00     -702.763     -180.016      -38.390      238.459      193.636      105.879    56862.827    37494.708    11210.389       31.664        5.278      725.453      100.889        0.019      346.599       24.957      856.738
08/23/2013  19:18:00     -455.434     -147.886       -8.328      233.438      168.793      100.103    54493.254    28491.046    10020.583       16.117        4.650      478.843      115.055        0.058      346.573       24.914      856.748
08/23/2013  19:19:00     -294.891      -40.138       13.610      197.889      135.288       82.092    39159.902    18302.788     6739.042        7.647        3.210      297.610       90.004        0.091      346.535       24.848      856.765
08/23/2013  19:20:00     -450.501     -115.449      -29.618      159.540      143.218       81.648    25452.858    20511.406     6666.406       13.488        2.632      465.058       80.435        0.030      346.555       24.882      856.726
08/23/2013  19:21:00     -441.269      -48.750      -23.605      299.339      131.019      103.310    89603.761    17166.077    10673.001       15.753        5.872      443.953      133.038        0.090      346.521       24.825      856.760
08/23/2013  19:22:00     -329.660     -152.971        8.037      203.833      181.268       87.475    41547.831    32858.086     7651.867       10.709        4.103      363.422       93.477        0.066      346.511       24.808      856.779
08/23/2013  19:23:00     -243.326      -96.259       23.723      205.604      148.468       93.601    42273.039    22042.611     8761.134        7.104        3.654      261.674      105.564        0.163      346.519       24.822      856.810
08/23/2013  19:24:00     -327.866      -68.377       -1.372      181.765      144.677       78.848    33038.518    20931.579     6216.935        8.617        3.009      334.920       89.536        0.071      346.498       24.785      856.808
08/23/2013  19:25:00     -543.552      -98.822      -22.266      286.328      179.155       99.728    81983.483    32096.387     9945.729       21.485        6.201      552.463      127.346        0.053      346.503       24.796      856.797
08/23/2013  19:26:00     -378.136     -137.901      -14.865      158.809      158.891       83.047    25220.233    25246.396     6896.853       10.978        2.868      402.496       87.113        0.047      346.469       24.736      856.831
08/23/2013  19:27:00     -425.100      -82.776      -26.810      157.259      120.195       76.819    24730.541    14446.792     5901.183       11.667        2.254      433.084       76.391        0.031      346.486       24.765      856.841
08/23/2013  19:28:00     -263.494      -84.069        3.822      115.024       88.321       48.197    13230.453     7800.594     2322.946        4.993        1.168      276.581       52.458        0.036      346.442       24.688      856.813
08/23/2013  19:29:00     -421.170      -81.244       -9.655      149.492      160.507       72.357    22347.727    25762.530     5235.569       11.870        2.667      428.934       71.944        0.028      346.423       24.656      856.807
08/23/2013  19:30:00     -382.241      -66.611      -22.049      159.771      123.385       75.676    25526.821    15223.941     5726.932        9.875        2.324      388.002       78.471        0.041      346.408       24.630      856.815
08/23/2013  19:31:00     -402.625     -105.409       -6.001      175.491      120.731       73.454    30796.934    14575.941     5395.468       11.200        2.538      416.195       72.032        0.030      346.407       24.627      856.830
08/23/2013  19:32:00     -342.940     -131.240      -10.663      180.564      131.957       72.122    32603.382    17412.525     5201.593        9.507        2.761      367.195       75.433        0.042      346.391       24.600      856.832
08/23/2013  19:33:00     -291.886       -4.321      -11.549      117.029       95.973       56.890    13695.894     9210.890     3236.467        5.574        1.307      291.918       58.305        0.040      346.353       24.536      856.835
08/23/2013  19:34:00     -394.825      -25.791        4.510      184.072      128.421       80.540    33882.359    16491.854     6486.613       10.671        2.843      395.666       80.667        0.042      346.339       24.512      856.832
08/23/2013  19:35:00     -314.072     -158.063       -5.588      179.179      125.001       77.166    32105.272    15625.189     5954.584        8.866        2.684      351.604       92.689        0.069      346.347       24.525      856.867
08/23/2013  19:36:00     -397.834     -182.372       -1.683      270.415      179.709      111.766    73124.168    32295.268    12491.722       15.470        5.896      437.643      125.498        0.082      346.333       24.502      856.850
08/23/2013  19:37:00     -297.442      -69.755       -4.606      183.063      162.193       80.366    33512.134    26306.492     6458.735        7.981        3.314      305.511       76.886        0.063      346.298       24.443      856.882
08/23/2013  19:38:00     -557.137      -50.790      -43.253      215.913      162.279       99.570    46618.274    26334.502     9914.191       19.885        4.143      559.447       97.388        0.030      346.310       24.461      856.925
08/23/2013  19:39:00     -261.930      -46.657       -2.172      145.929      147.456       69.616    21295.271    21743.279     4846.391        5.933        2.394      266.053       66.635        0.063      346.275       24.403      856.947
08/23/2013  19:40:00     -209.549      -54.042        5.109      159.303      120.362       89.959    25377.372    14487.121     8092.624        4.740        2.398      216.406       86.993        0.162      346.277       24.404      856.957
08/23/2013  19:41:00     -384.132      -93.744      -13.776      156.156      145.551       72.395    24384.788    21185.036     5241.001       10.366        2.541      395.406       76.174        0.037      346.261       24.376      856.984
08/23/2013  19:42:00     -294.347      -97.045        8.012      224.939      171.843       98.437    50597.583    29529.976     9689.767        9.295        4.491      309.932      116.026        0.140      346.253       24.363      856.987
08/23/2013  19:43:00     -258.354      -38.966       -1.277      130.858      134.956       70.035    17123.800    18213.190     4904.941        5.425        2.012      261.276       66.394        0.065      346.243       24.346      857.013
08/23/2013  19:44:00     -366.307       -7.565      -19.753      153.076      120.676       65.559    23432.250    14562.731     4298.040        8.845        2.115      366.385       67.095        0.034      346.239       24.339      857.018
08/23/2013  19:45:00     -265.770      -96.498      -18.098      142.818      110.280       70.091    20396.938    12161.654     4912.695        5.887        1.874      282.746       68.159        0.058      346.202       24.275      857.021
08/23/2013  19:46:00     -303.714      -26.428      -17.071      173.894      119.239       69.485    30239.278    14217.913     4828.136        7.125        2.464      304.862       81.734        0.072      346.194       24.264      857.042
08/23/2013  19:47:00     -248.277      -69.241      -15.355      229.248      142.169       62.025    52554.559    20212.071     3847.089        7.163        3.831      257.751       64.331        0.062      346.201       24.275      857.028
08/23/2013  19:48:00     -279.450      -85.931        2.668       97.158      111.109       63.595     9439.596    12345.150     4044.367        5.565        1.291      292.363       55.973        0.037      346.165       24.212      857.053
08/23/2013  19:49:00     -193.405      -51.715       -0.665      131.542       99.154       59.363    17303.214     9831.531     3523.932        3.536        1.533      200.200       68.895        0.118      346.151       24.188      857.069
08/23/2013  19:50:00     -155.979      -69.059        6.030      120.961       92.346       55.354    14631.584     8527.865     3064.016        2.767        1.311      170.583       54.262        0.101      346.126       24.148      857.079
08/23/2013  19:51:00     -171.967     -108.830       -2.308      156.949       71.880       53.024    24632.864     5166.675     2811.553        3.701        1.631      203.510       59.835        0.086      346.132       24.158      857.104
08/23/2013  19:52:00     -451.957     -153.387      -16.822      163.302      154.600       66.064    26667.430    23901.229     4364.491       14.150        2.747      477.276       70.407        0.022      346.175       24.229      857.105
08/23/2013  19:53:00     -402.455      -31.594      -29.993      133.897      153.437       76.938    17928.275    23542.805     5919.427       10.562        2.370      403.693       59.850        0.022      346.140       24.170      857.115
08/23/2013  19:54:00     -441.943      -83.265      -32.130      189.691      142.981       78.646    35982.676    20443.550     6185.129       13.293        3.131      449.718       97.761        0.047      346.151       24.188      857.107
08/23/2013  19:55:00     -357.361      -70.416        1.537      216.791      128.802       85.951    46998.245    16589.965     7387.560       10.181        3.549      364.233       96.620        0.070      346.124       24.142      857.107
08/23/2013  19:56:00     -465.164      -60.374      -29.495      168.374      108.867       72.592    28349.948    11852.132     5269.647       13.317        2.274      469.066       70.380        0.023      346.128       24.150      857.126
08/23/2013  19:57:00     -458.940      -90.548      -12.292      169.933      151.236       75.608    28877.084    22872.254     5716.589       13.821        2.873      467.788       72.199        0.024      346.117       24.130      857.144
08/23/2013  19:58:00     -374.745      -56.788      -16.737      151.627      139.191       71.899    22990.676    19374.198     5169.446        9.573        2.377      379.024       67.605        0.032      346.082       24.069      857.166
08/23/2013  19:59:00     -419.761       -3.827      -20.787      142.101      135.198       68.985    20192.805    18278.387     4758.928       10.993        2.162      419.778       69.758        0.028      346.115       24.127      857.186
08/23/2013  20:00:00     -277.753      -89.568       -2.933      162.334      132.844       74.696    26352.351    17647.640     5579.504        6.737        2.479      291.837       70.939        0.059      346.078       24.063      857.183
08/23/2013  20:01:00     -176.743      -41.847        6.057      115.677      135.243       65.263    13381.128    18290.755     4259.280        3.447        1.797      181.629       49.523        0.074      346.044       24.006      857.188
08/23/2013  20:02:00     -366.063      -78.335       -9.122      129.002      136.795       57.278    16641.559    18712.815     3280.766        8.942        1.932      374.351       55.112        0.022      346.049       24.013      857.208
08/23/2013  20:03:00     -395.913     -128.526      -19.026      200.484      125.330       70.459    40193.726    15707.515     4964.516       11.724        3.043      416.252       80.105        0.037      346.057       24.027      857.200
08/23/2013  20:04:00     -264.904     -107.202      -17.578       97.932      118.722       58.508     9590.752    14094.988     3423.131        5.454        1.355      285.773       54.174        0.036      346.036       23.992      857.217
08/23/2013  20:05:00     -152.660     -114.021        8.078      145.886      118.128       65.027    21282.834    13954.305     4228.534        3.791        1.973      190.541       83.489        0.192      346.016       23.959      857.213
08/23/2013  20:06:00     -129.829      -90.103       -9.315       97.147       82.831       40.441     9437.624     6860.939     1635.501        2.149        0.897      158.032       41.473        0.069      346.006       23.939      857.239
08/23/2013  20:07:00     -209.942      -37.195       -2.588      173.084       83.691       57.921    29958.141     7004.170     3354.840        4.288        2.016      213.211       79.359        0.139      345.949       23.844      857.218
08/23/2013  20:08:00     -461.146      -71.603      -25.356      170.939      151.831       77.197    29220.293    23052.772     5959.384       13.832        2.912      466.672       79.461        0.029      345.979       23.894      857.223
08/23/2013  20:09:00     -464.715      -98.024      -21.842      203.906      152.703       97.851    41577.585    23318.253     9574.753       15.025        3.724      474.941      104.931        0.049      346.014       23.952      857.214
08/23/2013  20:10:00     -372.809      -68.827       -0.338      233.929      144.686       91.159    54722.698    20934.020     8309.984       11.383        4.198      379.109      104.847        0.076      346.012       23.950      857.243
08/23/2013  20:11:00     -378.691      -79.087      -17.155      187.852      154.069       77.972    35288.190    23737.400     6079.673       10.752        3.255      386.861       74.905        0.037      346.023       23.968      857.240
08/23/2013  20:12:00     -626.740     -110.508      -42.527      181.870      174.432       86.730    33076.654    30426.548     7522.065       23.891        3.551      636.408       91.452        0.021      346.084       24.074      857.264
08/23/2013  20:13:00     -396.753      -39.646      -17.844      161.439      159.639       80.917    26062.553    25484.733     6547.534       10.869        2.905      398.729       60.347        0.023      346.046       24.008      857.283
08/23/2013  20:14:00     -401.913      -80.937      -25.664      237.831      135.828       97.391    56563.396    18449.176     9485.018       12.661        4.225      409.982      101.950        0.062      346.052       24.019      857.279
08/23/2013  20:15:00     -438.125     -149.142       12.814      170.771      156.209       78.696    29162.576    24401.183     6193.023       13.705        2.988      462.814       81.044        0.031      346.021       23.967      857.300
08/23/2013  20:16:00     -440.976     -125.642       -7.980      218.027      147.209       99.219    47535.830    21670.354     9844.432       14.467        3.953      458.526      117.585        0.066      346.026       23.975      857.322
08/23/2013  20:17:00     -249.675     -101.294       12.158      230.656      104.824       69.744    53202.320    10987.969     4864.244        7.089        3.453      269.440       92.304        0.117      345.963       23.868      857.323
08/23/2013  20:18:00     -326.891     -126.846      -20.404      194.873      115.749       67.906    37975.610    13397.772     4611.162        8.966        2.799      350.639       81.988        0.055      345.985       23.905      857.287
08/23/2013  20:19:00     -268.054     -143.150       -6.876      140.551      119.535       58.089    19754.460    14288.557     3374.364        6.490        1.871      303.883       60.812        0.040      345.923       23.797      857.287
08/23/2013  20:20:00     -362.880      -33.156       -0.186      186.710      153.137       84.144    34860.576    23450.827     7080.173        9.908        3.270      364.392       92.722        0.065      345.924       23.799      857.315
08/23/2013  20:21:00     -394.525      -66.311      -18.239      141.611      112.438       70.046    20053.772    12642.319     4906.421        9.898        1.880      400.059       76.324        0.036      345.954       23.850      857.334
08/23/2013  20:22:00     -376.995      -44.005      -21.773      137.944      130.678       74.066    19028.523    17076.676     5485.709        9.306        2.080      379.554       67.854        0.032      345.930       23.810      857.373
08/23/2013  20:23:00     -349.272      -77.264        0.787      191.683      165.776       86.786    36742.435    27481.803     7531.795        9.985        3.588      357.716      103.410        0.084      345.925       23.800      857.368
08/23/2013  20:24:00     -213.990     -140.735       -1.912      165.083      118.449       76.115    27252.241    14030.170     5793.499        5.633        2.354      256.121       84.044        0.108      345.924       23.801      857.351
08/23/2013  20:25:00     -212.996      -60.523        5.972      159.283      114.082       69.566    25371.176    13014.663     4839.462        4.614        2.161      221.428       73.160        0.109      345.850       23.674      857.342
08/23/2013  20:26:00     -440.496      -29.133      -27.211      184.773      128.185       80.658    34141.067    16431.455     6505.661       12.634        2.854      441.459       99.622        0.051      345.858       23.686      857.406
08/23/2013  20:27:00     -389.112     -141.409      -19.073      177.221      131.471       83.210    31407.363    17284.738     6923.908       11.368        2.781      414.011       92.243        0.050      345.857       23.685      857.424
08/23/2013  20:28:00     -300.077      -86.172       -9.661      151.174      106.938       64.187    22853.446    11435.655     4120.005        6.798        1.920      312.205       70.283        0.051      345.835       23.647      857.452
08/23/2013  20:29:00     -341.711     -120.985      -18.042      188.954      100.197       72.691    35703.705    10039.486     5284.007        9.137        2.551      362.496       88.550        0.060      345.892       23.743      857.451
08/23/2013  20:30:00      -80.751      -26.161       29.809      104.277       76.131       60.120    10873.609     5795.857     3614.392        1.419        1.014       84.883       62.296        0.539      345.751       23.504      857.457
08/23/2013  20:31:00     -136.280      -79.927        5.346      106.047       94.040       56.210    11245.951     8843.513     3159.524        2.412        1.162      157.989       48.380        0.094      345.808       23.601      857.468
08/23/2013  20:32:00     -197.543      -64.592        1.383      149.710      101.179       65.539    22413.088    10237.183     4295.375        4.007        1.847      207.835       66.059        0.101      345.825       23.632      857.432
08/23/2013  20:33:00     -265.352      -92.748       -8.183      139.933      138.096       65.558    19581.157    19070.505     4297.795        6.101        2.147      281.094       56.228        0.040      345.771       23.537      857.446
08/23/2013  20:34:00     -259.075     -132.330       15.555      214.488      156.038       98.842    46004.888    24347.908     9769.784        8.248        4.006      290.914      105.196        0.131      345.850       23.674      857.470
08/23/2013  20:35:00     -190.791      -50.694       21.908      165.583      131.121       71.132    27417.800    17192.761     5059.718        4.455        2.484      197.410       83.724        0.180      345.797       23.582      857.513
08/23/2013  20:36:00     -287.363     -166.022       -2.762      154.415      146.859       77.576    23843.916    21567.494     6018.008        8.078        2.571      331.875       87.081        0.069      345.853       23.678      857.537
08/23/2013  20:37:00     -202.116      -46.837      -17.037      110.855       69.541       45.228    12288.842     4835.998     2045.553        3.125        0.959      207.472       53.792        0.067      345.843       23.661      857.561
08/23/2013  20:38:00     -121.911      -26.804       -1.473       86.625       76.639       44.553     7503.869     5873.589     1984.926        1.547        0.768      124.823       33.875        0.074      345.799       23.587      857.571
08/23/2013  20:39:00      -44.928      -40.136        7.232       86.910       73.014       44.389     7553.326     5330.984     1970.339        0.927        0.743       60.245       44.284        0.540      345.745       23.495      857.570
08/23/2013  20:40:00      -72.969      -70.894       16.932       80.875      122.582       48.305     6540.748    15026.382     2333.342        1.726        1.195      101.737       48.051        0.223      345.730       23.468      857.584
08/23/2013  20:41:00     -339.878      -38.997      -13.141      209.631      104.562       73.682    43944.949    10933.136     5429.055        8.875        3.015      342.108       89.822        0.069      345.770       23.534      857.582
08/23/2013  20:42:00     -249.795      -66.924       -2.013      150.021      106.203       65.690    22506.237    11279.118     4315.199        5.248        1.905      258.605       68.748        0.071      345.679       23.379      857.600
08/23/2013  20:43:00     -314.773      -40.616      -11.068      119.053       97.200       68.332    14173.731     9447.903     4669.228        6.457        1.415      317.383       63.492        0.040      345.711       23.434      857.610
08/23/2013  20:44:00     -312.226     -119.999       -9.064      165.366      136.047       74.302    27345.901    18508.786     5520.838        8.166        2.569      334.492       87.168        0.068      345.715       23.441      857.627
08/23/2013  20:45:00     -233.968      -76.738       -0.733      120.189      101.330       59.868    14445.413    10267.727     3584.225        4.446        1.415      246.231       49.627        0.041      345.720       23.450      857.633
08/23/2013  20:46:00     -201.203      -37.367       -0.995      110.461      106.465       52.636    12201.675    11334.859     2770.534        3.409        1.315      204.644       58.903        0.083      345.645       23.320      857.642
08/23/2013  20:47:00     -359.644        2.825      -24.856      190.186      117.870       63.416    36170.571    13893.284     4021.637        9.202        2.704      359.656       76.433        0.045      345.692       23.401      857.644
08/23/2013  20:48:00     -379.562      -86.204      -11.744      155.003      115.591       74.346    24026.027    13361.383     5527.268        9.727        2.146      389.228       63.389        0.027      345.679       23.378      857.669
08/23/2013  20:49:00     -397.856      -75.239      -23.853      153.595      129.220       70.902    23591.347    16697.837     5027.032       10.491        2.266      404.908       77.399        0.037      345.747       23.494      857.703
08/23/2013  20:50:00     -310.099       82.793      -11.747      180.592       95.135       67.388    32613.645     9050.696     4541.105        7.467        2.310      320.961       77.298        0.058      345.701       23.416      857.695
08/23/2013  20:51:00     -448.018     -131.003      -21.535      141.475      117.370       66.619    20015.142    13775.771     4438.106       12.828        1.911      466.778       59.023        0.016      345.747       23.494      857.707
08/23/2013  20:52:00     -368.519      -41.604      -12.794      180.142      154.378       69.681    32451.247    23832.655     4855.384        9.941        3.057      370.860       84.076        0.051      345.688       23.395      857.705
08/23/2013  20:53:00     -242.981     -180.135       12.112      196.153      184.961      103.925    38476.143    34210.738    10800.347        8.755        4.174      302.471      114.656        0.144      345.679       23.380      857.700
08/23/2013  20:54:00     -319.032      -48.531      -12.116      170.386      141.292       79.484    29031.287    19963.401     6317.702        7.979        2.766      322.702       82.601        0.066      345.672       23.367      857.726
08/23/2013  20:55:00     -424.688      -43.127      -30.504      117.452      110.023       67.797    13794.915    12104.957     4596.427       10.682        1.525      426.872       62.542        0.021      345.719       23.449      857.743
08/23/2013  20:56:00     -351.270      -83.131      -27.008      132.917      124.437       56.440    17666.855    15484.599     3185.425        8.368        1.817      360.973       53.437        0.022      345.696       23.407      857.753
08/23/2013  20:57:00     -439.444      -58.316      -22.029      182.622      160.160       70.704    33350.822    25651.189     4999.096       13.049        3.200      443.296       75.669        0.029      345.665       23.355      857.767
08/23/2013  20:58:00     -478.193     -129.183      -23.133      160.499      143.382       75.015    25759.916    20558.328     5627.181       14.891        2.597      495.335       72.068        0.021      345.718       23.446      857.766
08/23/2013  20:59:00     -318.170        5.711      -20.851      164.455       91.769       68.073    27045.488     8421.548     4633.889        7.089        2.005      318.221       79.415        0.062      345.626       23.289      857.767
08/23/2013  21:00:00     -338.341       87.589      -32.350      128.175       80.809       59.545    16428.882     6530.131     3545.656        7.484        1.325      349.495       57.283        0.027      345.653       23.334      857.762
08/23/2013  21:01:00     -169.925      -96.594      -19.041      209.133      101.475       56.729    43736.605    10297.243     3218.176        4.790        2.863      195.461       73.926        0.143      345.534       23.130      857.740
08/23/2013  21:02:00     -223.450     -140.153        2.934      161.875      119.787       69.428    26203.385    14349.033     4820.230        5.747        2.269      263.766       65.303        0.061      345.563       23.180      857.782
08/23/2013  21:03:00     -321.475      -78.364       -8.264      171.215      121.652       68.204    29314.518    14799.135     4651.816        7.915        2.438      330.888       76.755        0.054      345.532       23.127      857.791
08/23/2013  21:04:00     -467.072      -63.267      -29.354      143.187      133.320       71.546    20502.652    17774.337     5118.795       13.320        2.170      471.338       68.114        0.021      345.570       23.192      857.836
08/23/2013  21:05:00     -386.579     -104.260      -15.164      185.157      160.974       77.313    34283.059    25912.695     5977.260       11.335        3.309      400.391       81.094        0.041      345.572       23.195      857.863
08/23/2013  21:06:00     -355.674     -120.602      -12.566      150.152      139.956       77.065    22545.482    19587.650     5938.978        9.463        2.404      375.564       70.313        0.035      345.620       23.276      857.895
08/23/2013  21:07:00     -394.283      -47.637      -34.216      139.292      133.880       66.997    19402.362    17923.899     4488.600       10.035        2.091      397.150       65.506        0.027      345.624       23.283      857.936
08/23/2013  21:08:00     -264.174      -46.349       -5.892      159.562      103.983       61.636    25459.894    10812.516     3799.039        5.601        2.004      268.209       66.174        0.061      345.646       23.323      857.923
08/23/2013  21:09:00     -247.331      -58.507      -13.639      122.121       72.573       44.529    14913.420     5266.905     1982.791        4.347        1.108      254.157       47.889        0.036      345.591       23.229      857.941
08/23/2013  21:10:00     -100.121       -3.955        7.867       79.145       65.859       39.698     6263.856     4337.379     1575.915        1.114        0.609      100.199       46.079        0.211      345.503       23.080      857.945
08/23/2013  21:11:00     -152.696      -11.266       -4.557       63.752       62.536       44.448     4064.326     3910.758     1975.624        1.671        0.498      153.112       36.599        0.057      345.482       23.042      857.942
08/23/2013  21:12:00     -330.983       -6.106       -5.544      126.762      113.225       59.201    16068.557    12819.787     3504.817        7.100        1.620      331.040       57.943        0.031      345.492       23.057      857.945
08/23/2013  21:13:00     -422.513      -60.193      -33.049      175.579      123.391       66.778    30827.981    15225.350     4459.295       11.686        2.526      426.779       62.143        0.021      345.588       23.222      857.931
08/23/2013  21:14:00     -234.143     -151.869       10.581      194.256      164.170       82.511    37735.496    26951.827     6808.074        7.474        3.575      279.082      105.569        0.143      345.494       23.062      857.937
08/23/2013  21:15:00     -212.070      -71.040        2.401      141.771      131.400       65.772    20099.145    17265.988     4325.990        4.585        2.085      223.653       75.696        0.115      345.517       23.100      857.952
08/23/2013  21:16:00     -233.315      -33.712       10.412      136.674       87.143       54.992    18679.841     7593.954     3024.111        4.248        1.465      235.738       68.820        0.085      345.447       22.981      857.950
08/23/2013  21:17:00     -293.979      -56.220       -5.339      121.521       98.472       60.502    14767.239     9696.793     3660.494        5.886        1.406      299.306       56.963        0.036      345.517       23.101      857.951
08/23/2013  21:18:00     -206.517      -58.120      -18.644       87.946       74.712       35.315     7734.485     5581.888     1247.165        3.047        0.728      214.539       36.160        0.028      345.531       23.125      857.959
08/23/2013  21:19:00     -119.039      -12.717       13.972      112.434       84.940       54.590    12641.352     7214.766     2980.059        1.868        1.142      119.717       59.695        0.249      345.306       22.740      857.971
08/23/2013  21:20:00     -357.192      -43.532      -27.286      140.101      100.214       52.526    19628.376    10042.786     2759.009        8.132        1.622      359.835       60.172        0.028      345.514       23.093      857.973
08/23/2013  21:21:00     -233.968      -23.103       -5.426      171.283       93.294       56.831    29337.877     8703.824     3229.767        4.828        2.064      235.105       72.490        0.095      345.400       22.900      857.977
08/23/2013  21:22:00     -310.106     -144.336      -16.188      134.800      136.160       75.210    18171.048    18539.570     5656.589        7.981        2.118      342.050       79.150        0.054      345.432       22.955      857.982
08/23/2013  21:23:00     -277.603      -67.941        2.134      252.077      115.358       77.128    63542.777    13307.515     5948.750        8.223        4.140      285.796      103.618        0.131      345.403       22.905      857.992
08/23/2013  21:24:00     -350.168     -111.166        1.369      194.479      129.111       75.592    37822.074    16669.684     5714.085        9.758        3.010      367.390       82.806        0.051      345.533       23.129      858.025
08/23/2013  21:25:00     -290.552      -56.807        1.011      110.193       76.761       64.134    12142.477     5892.261     4113.213        5.489        1.107      296.053       63.362        0.046      345.582       23.211      858.020
08/23/2013  21:26:00     -172.343      -71.214       17.706      124.190       91.206       63.663    15423.078     8318.604     4052.940        3.144        1.390      186.476       67.834        0.132      345.468       23.016      858.041
08/23/2013  21:27:00     -280.697     -223.165        4.607      212.542      143.070       98.141    45174.127    20468.921     9631.692       10.193        3.764      358.599      107.218        0.089      345.540       23.140      858.048
08/23/2013  21:28:00     -362.236     -122.154      -24.554      196.072      148.797       69.501    38444.035    22140.512     4830.454       10.607        3.271      382.278       69.745        0.033      345.541       23.142      858.063
08/23/2013  21:29:00     -245.922     -202.630      -12.588      157.069      120.926       90.823    24670.660    14623.090     8248.747        7.461        2.377      318.648       86.969        0.074      345.515       23.097      858.063
08/23/2013  21:30:00     -143.901      -32.164       20.408      161.952       89.957       70.551    26228.392     8092.196     4977.432        3.072        1.965      147.452       81.521        0.306      345.414       22.925      858.085
08/23/2013  21:31:00     -302.387      -96.892      -14.987      172.770      115.016       70.203    29849.414    13228.778     4928.482        7.452        2.400      317.531       88.239        0.077      345.463       23.007      858.104
08/23/2013  21:32:00     -289.945      -59.142      -12.338      189.544       73.533       66.636    35926.942     5407.093     4440.395        6.674        2.289      295.916       86.869        0.086      345.460       23.002      858.117
08/23/2013  21:33:00     -291.977      -79.381        2.052      125.393      132.259       68.223    15723.434    17492.473     4654.431        6.471        1.894      302.576       60.338        0.040      345.476       23.030      858.144
08/23/2013  21:34:00     -284.290      -88.011       -1.616      141.944      130.711       63.890    20148.230    17085.385     4081.876        6.494        2.066      297.602       57.164        0.037      345.473       23.026      858.154
08/23/2013  21:35:00     -224.130      -19.782       -5.054      105.877       94.865       61.278    11209.936     8999.344     3754.945        3.730        1.198      225.002       56.053        0.062      345.447       22.980      858.176
08/23/2013  21:36:00     -221.350      -73.938       -2.799      119.406       90.219       47.223    14257.910     8139.522     2230.036        3.954        1.231      233.372       61.504        0.069      345.431       22.953      858.180
08/23/2013  21:37:00     -183.131       14.654        5.644      109.694       87.020       58.245    12032.866     7572.425     3392.452        2.839        1.150      183.716       70.187        0.146      345.338       22.795      858.191
08/23/2013  21:38:00     -254.671      -58.439      -13.347       86.347       92.839       43.411     7455.791     8619.118     1884.508        4.320        0.898      261.290       40.038        0.023      345.396       22.893      858.226
08/23/2013  21:39:00     -221.074       14.291       -3.408      160.509      115.569       60.473    25762.982    13356.309     3656.962        4.593        2.139      221.535       63.092        0.081      345.492       23.059      858.225
08/23/2013  21:40:00     -115.087      -44.093        9.804      107.074       91.615       56.196    11464.763     8393.226     3157.939        1.915        1.151      123.244       59.532        0.233      345.408       22.917      858.232
08/23/2013  21:41:00     -190.673       16.646      -22.017       83.420       79.398       39.796     6958.927     6304.056     1583.751        2.598        0.742      191.399       36.808        0.037      345.371       22.851      858.255
08/23/2013  21:42:00     -184.855       -2.012      -18.415       70.403       66.624       44.189     4956.527     4438.799     1952.648        2.293        0.567      184.866       37.116        0.040      345.402       22.904      858.272
08/23/2013  21:43:00      -61.505       53.872        0.844       68.652       47.216       40.811     4713.049     2229.371     1665.500        0.765        0.430       81.763       45.148        0.305      345.340       22.799      858.291
08/23/2013  21:44:00      -31.110      131.069        1.351       44.130       68.877       47.626     1947.467     4744.002     2268.203        1.355        0.448      134.711       31.866        0.056      345.270       22.679      858.326
08/23/2013  21:45:00      -93.996       24.041      -14.178       49.695       61.648       33.167     2469.599     3800.446     1100.062        0.849        0.369       97.022       21.670        0.050      345.295       22.722      858.321
08/23/2013  21:46:00     -108.085       87.231       -9.130       43.436       65.776       26.168     1886.708     4326.534      684.745        1.314        0.345      138.894       26.616        0.037      345.387       22.878      858.323
08/23/2013  21:47:00      -64.099       69.527       -4.808       48.363       54.072       28.898     2339.008     2923.789      835.090        0.753        0.305       94.565       27.134        0.082      345.241       22.631      858.315
08/23/2013  21:48:00     -148.525      175.759      -40.311       66.184       50.776       29.122     4380.331     2578.182      848.095        3.119        0.390      230.110       30.592        0.018      345.351       22.817      858.312
08/23/2013  21:49:00     -143.205      160.897      -39.670       71.619       58.238       34.739     5129.269     3391.691     1206.828        2.885        0.486      215.397       42.121        0.038      345.380       22.864      858.317
08/23/2013  21:50:00        4.129      104.486       -2.956       40.983       60.662       30.243     1679.622     3679.907      914.634        0.861        0.314      104.568       31.622        0.091      345.192       22.546      858.297
08/23/2013  21:51:00      -52.308       70.301      -19.210       33.772       42.089       20.226     1140.564     1771.449      409.086        0.568        0.166       87.627       17.913        0.042      345.215       22.585      858.305
08/23/2013  21:52:00      -67.964       46.401       -9.634       35.102       38.503       16.990     1232.151     1482.488      288.644        0.493        0.150       82.293       14.302        0.030      345.168       22.504      858.321
08/23/2013  21:53:00      -46.755      108.844        9.037       51.627       77.091       37.804     2665.310     5942.963     1429.111        1.207        0.502      118.462       32.985        0.078      345.087       22.367      858.334
08/23/2013  21:54:00     -103.911       59.035       -3.418       59.490       68.539       33.192     3539.056     4697.575     1101.740        1.181        0.467      119.510       27.433        0.053      345.143       22.463      858.330
08/23/2013  21:55:00     -154.535      -24.128      -15.309       47.696       42.731       28.357     2274.915     1825.918      804.147        1.480        0.245      156.407       12.810        0.007      345.184       22.532      858.331
08/23/2013  21:56:00      -75.443       62.151      -13.435       54.431       56.263       37.706     2962.753     3165.565     1421.776        0.864        0.378       97.746       31.415        0.103      345.112       22.409      858.335
08/23/2013  21:57:00     -109.032       37.199      -15.919       52.446       54.987       24.937     2750.620     3023.593      621.878        0.996        0.320      115.203       24.689        0.046      345.135       22.448      858.331
08/23/2013  21:58:00     -120.407       54.881      -11.363       53.055       86.618       38.718     2814.873     7502.723     1499.045        1.473        0.591      132.325       35.391        0.072      345.141       22.459      858.345
08/23/2013  21:59:00     -100.284       12.086      -17.094       42.198       41.680       21.357     1780.708     1737.225      456.111        0.723        0.199      101.010       18.374        0.033      345.061       22.324      858.351
08/23/2013  22:00:00     -187.044      -22.047      -20.479       52.427       43.186       31.039     2748.630     1865.070      963.432        2.073        0.279      188.339       25.558        0.018      345.076       22.346      858.356
08/23/2013  22:01:00     -116.774       17.936      -15.226       57.965       52.134       23.752     3359.977     2717.963      564.142        1.041        0.332      118.144       15.926        0.018      345.039       22.286      858.349
08/23/2013  22:02:00      -51.148       64.251      -13.315       43.358       39.880       25.081     1879.945     1590.410      629.068        0.551        0.205       82.123       25.165        0.094      345.008       22.233      858.338
08/23/2013  22:03:00      -21.068       90.917        3.716       36.793       44.073       28.484     1353.711     1942.427      811.322        0.641        0.205       93.326       24.399        0.068      344.988       22.197      858.319
08/23/2013  22:04:00      -48.414       92.732       -9.784       37.189       35.353       24.514     1383.032     1249.823      600.922        0.714        0.162      104.609       20.723        0.039      344.984       22.190      858.314
08/23/2013  22:05:00      -77.548      106.388      -14.762       49.714       96.539       25.397     2471.434     9319.702      645.012        1.499        0.622      131.651       25.857        0.039      344.985       22.192      858.315
08/23/2013  22:06:00     -172.379      149.345      -33.261       74.218      107.900       50.075     5508.259    11642.323     2507.522        3.639        0.983      228.075       43.530        0.036      345.115       22.412      858.322
08/23/2013  22:07:00     -150.337       69.959      -16.065       52.938       78.677       33.582     2802.419     6190.102     1127.780        1.894        0.506      165.817       13.684        0.007      345.048       22.300      858.331
08/23/2013  22:08:00      -66.129       54.222      -12.179       35.443       42.961       25.036     1256.219     1845.627      626.781        0.559        0.186       85.517       17.176        0.040      345.053       22.309      858.329
08/23/2013  22:09:00       -1.714       51.009       13.791       32.250       27.186       20.558     1040.035      739.104      422.647        0.250        0.110       51.038       16.056        0.099      344.909       22.064      858.330
08/23/2013  22:10:00      -59.938       73.550       -9.873       42.421       60.128       24.508     1799.569     3615.346      600.644        0.756        0.301       94.879       18.730        0.039      345.060       22.320      858.342
08/23/2013  22:11:00      -69.121       51.933       -7.690       41.150       36.240       25.780     1693.343     1313.353      664.627        0.560        0.184       86.456       23.414        0.073      345.013       22.240      858.346
08/23/2013  22:12:00      -50.768       73.907        3.626       38.266       39.529       29.729     1464.305     1562.522      883.836        0.598        0.196       89.664       27.506        0.094      344.924       22.088      858.344
08/23/2013  22:13:00      -87.268       56.299       -4.828       61.012       46.357       19.846     3722.488     2148.970      393.864        0.854        0.313      103.852       23.568        0.051      344.893       22.035      858.354
08/23/2013  22:14:00     -117.487      176.852      -31.920       50.279       52.770       32.962     2528.008     2784.693     1086.492        2.625        0.320      212.320       26.399        0.015      345.074       22.344      858.352
08/23/2013  22:15:00      -49.207      159.587      -16.414       41.341       35.774       26.825     1709.068     1279.743      719.578        1.593        0.185      167.001       13.767        0.007      344.986       22.195      858.343
08/23/2013  22:16:00      -42.282      160.351       -9.561       44.140       49.708       34.323     1948.376     2470.934     1178.081        1.659        0.280      165.832       30.169        0.033      344.920       22.081      858.329
08/23/2013  22:17:00      -41.410       64.883       -1.183       25.437       48.159       25.562      647.052     2319.326      653.407        0.477        0.181       76.971       14.350        0.035      344.829       21.924      858.341
08/23/2013  22:18:00      -52.021       36.102      -12.976       28.967       34.855       16.328      839.078     1214.872      266.593        0.325        0.116       63.321        8.150        0.017      344.835       21.938      858.353
08/23/2013  22:19:00     -118.237       48.978      -15.030       38.667       39.402       26.977     1495.125     1552.553      727.753        1.019        0.189      127.980       23.975        0.035      344.756       21.800      858.346
08/23/2013  22:20:00      -64.907       27.102        6.012       54.883       42.339       23.157     3012.169     1792.574      536.230        0.516        0.267       70.338       23.647        0.113      344.707       21.716      858.349
08/23/2013  22:21:00      -28.432       69.548        1.442       22.984       59.597       22.403      528.280     3551.850      501.880        0.511        0.229       75.135       25.813        0.118      344.655       21.629      858.343
08/23/2013  22:22:00      -48.345       75.280       -9.674       50.494       48.073       21.517     2549.610     2310.995      462.973        0.671        0.266       89.466       28.180        0.099      344.767       21.818      858.342
08/23/2013  22:23:00      -28.759       78.169      -13.194       23.268       41.173       12.777      541.392     1695.212      163.253        0.476        0.120       83.291        4.958        0.004      344.762       21.811      858.345
08/23/2013  22:24:00      -38.895      101.664       -5.232       48.147       60.282       25.531     2318.103     3633.889      651.819        0.924        0.330      108.850       33.150        0.093      344.717       21.734      858.344
08/23/2013  22:25:00      -84.421       37.581       -3.975       39.562       42.505       18.953     1565.171     1806.683      359.214        0.614        0.187       92.408        7.139        0.006      344.762       21.811      858.341
08/23/2013  22:26:00      -92.187       45.477      -12.167       28.464       21.731       17.593      810.222      472.222      309.499        0.615        0.080      102.794       14.622        0.020      344.728       21.750      858.352
08/23/2013  22:27:00      -84.211       24.303       -9.266       16.416       19.539       12.778      269.490      381.765      163.267        0.429        0.041       87.648        9.427        0.012      344.612       21.555      858.366
08/23/2013  22:28:00     -100.207      -27.875      -10.496       26.898       21.742       13.462      723.501      472.696      181.217        0.615        0.069      104.011        8.394        0.007      344.586       21.509      858.376
08/23/2013  22:29:00       19.151      -34.979        9.673       72.726       42.491       54.352     5289.080     1805.475     2954.118        0.586        0.502       39.878       44.014        1.218      344.491       21.348      858.353
08/23/2013  22:30:00        7.954       62.090        1.355       23.871       36.630       25.640      569.833     1341.735      657.396        0.324        0.128       62.597       22.248        0.126      344.258       20.950      858.333
08/23/2013  22:31:00       -6.167       80.300        5.464       31.612       42.887       28.289      999.320     1839.320      800.274        0.508        0.182       80.537       20.876        0.067      344.436       21.253      858.346
08/23/2013  22:32:00      -31.310       76.689        4.096       40.602       46.851       32.830     1648.492     2194.972     1077.780        0.590        0.246       82.835       32.258        0.152      344.539       21.430      858.343
08/23/2013  22:33:00      -20.125       56.853       -9.335       39.146       30.561       24.921     1532.401      933.951      621.065        0.341        0.154       60.309       22.410        0.138      344.514       21.386      858.369
08/23/2013  22:34:00      -50.644      114.531      -16.140       52.523       44.251       29.956     2758.670     1958.107      897.390        1.078        0.281      125.229       30.629        0.060      344.611       21.551      858.373
08/23/2013  22:35:00       20.585      134.188      -16.223       21.825       36.987       21.556      476.330     1368.005      464.653        1.050        0.115      135.758       16.645        0.015      344.419       21.224      858.381
08/23/2013  22:36:00       -6.294       82.501       -4.623       24.719       53.755       24.715      611.023     2889.609      610.809        0.549        0.206       82.741       27.693        0.112      344.296       21.014      858.403
08/23/2013  22:37:00       20.062       69.637       -1.523       33.593       34.275       20.030     1128.476     1174.748      401.187        0.398        0.135       72.469       14.821        0.042      344.220       20.884      858.409
08/23/2013  22:38:00       33.589       35.688        4.031       30.893       30.264       19.368      954.352      915.900      375.124        0.233        0.112       49.009       15.515        0.100      344.185       20.823      858.402
08/23/2013  22:39:00       30.168       34.095        7.054       52.093       36.009       26.868     2713.695     1296.649      721.912        0.343        0.237       45.525       17.657        0.150      344.218       20.880      858.414
08/23/2013  22:40:00       23.811      103.767       -4.744       34.197       44.313       24.414     1169.464     1963.650      596.030        0.754        0.186      106.464       24.156        0.051      344.352       21.109      858.433
08/23/2013  22:41:00       17.591       49.725       -4.670       33.118       38.886       21.389     1096.803     1512.156      457.509        0.293        0.153       52.745       20.526        0.151      344.312       21.041      858.444
08/23/2013  22:42:00       16.547      114.313       -4.456       19.373       27.773       22.184      375.332      771.359      492.133        0.750        0.082      115.504       15.896        0.019      344.458       21.291      858.432
08/23/2013  22:43:00        8.220       48.537        1.180       16.797       29.889       14.069      282.146      893.329      197.938        0.190        0.069       49.229       13.444        0.075      344.212       20.872      858.421
08/23/2013  22:44:00        0.818       44.413        0.538       19.806       20.349       16.295      392.294      414.084      265.527        0.152        0.054       44.420       14.802        0.111      344.263       20.958      858.432
08/23/2013  22:45:00        5.149       21.683       10.876       15.867       18.899       13.499      251.757      357.178      182.218        0.070        0.040       22.286        8.175        0.135      343.896       20.331      858.430
08/23/2013  22:46:00      -13.025       -9.987       -3.095       12.118       18.168       11.710      146.856      330.078      137.125        0.045        0.031       16.413        8.870        0.292      343.817       20.196      858.443
08/23/2013  22:47:00       10.902       10.813        5.853       15.544       19.912       11.773      241.606      396.491      138.593        0.052        0.039       15.355        9.007        0.344      343.610       19.843      858.437
08/23/2013  22:48:00       43.845       19.324       -0.222       31.870       39.421       20.138     1015.682     1554.054      405.545        0.264        0.149       47.915        9.325        0.038      343.578       19.790      858.426
08/23/2013  22:49:00       25.303        8.295       19.632       29.785       23.679       20.468      887.169      560.707      418.923        0.148        0.093       26.628       12.382        0.216      343.302       19.317      858.423
08/23/2013  22:50:00       48.688       10.601       14.838       42.444       33.226       25.945     1801.509     1103.943      673.166        0.314        0.179       49.828       23.136        0.216      343.731       20.051      858.407
08/23/2013  22:51:00        1.945       -8.735        0.387       45.544       19.997       17.209     2074.288      399.893      296.165        0.142        0.139        8.949        9.098        1.034      343.536       19.716      858.421
08/23/2013  22:52:00      -53.514       -5.585       -7.193       22.264       19.926       10.778      495.689      397.065      116.175        0.198        0.050       53.804       12.374        0.053      343.823       20.207      858.445
08/23/2013  22:53:00       43.356       -2.883        8.366       40.658       17.703       24.301     1653.074      313.393      590.548        0.226        0.128       43.452       12.769        0.086      343.348       19.396      858.441
08/23/2013  22:54:00       45.975       17.290       20.922       20.868       26.594       21.165      435.478      707.220      447.960        0.222        0.080       49.119       15.965        0.106      343.268       19.260      858.417
08/23/2013  22:55:00       27.760       -3.973       22.126       22.159       33.397       17.586      491.021     1115.385      309.260        0.160        0.096       28.043       18.813        0.450      343.258       19.244      858.408
08/23/2013  22:56:00       11.554      -46.248      -18.996       21.337       28.373       17.146      455.277      805.051      293.982        0.209        0.078       47.669       10.769        0.051      343.673       19.951      858.412
08/23/2013  22:57:00       49.481       11.891      -10.003       20.647       19.029       12.580      426.290      362.119      158.252        0.182        0.047       50.889        7.466        0.022      344.041       20.578      858.414
08/23/2013  22:58:00       50.144      -26.769      -13.911       29.400       30.936       16.011      864.346      957.027      256.353        0.275        0.104       56.841        9.894        0.030      343.662       19.932      858.414
08/23/2013  22:59:00       38.187       -3.805       27.136       33.587       27.303       19.657     1128.054      745.431      386.396        0.223        0.113       38.376       20.903        0.297      343.276       19.274      858.413
08/23/2013  23:00:00       64.828      -11.025       19.663       35.067       21.093       19.221     1229.663      444.920      369.466        0.338        0.102       65.759        9.480        0.021      343.421       19.521      858.412
08/23/2013  23:01:00       29.653       -7.050       22.250       36.981       29.918       18.297     1367.625      895.087      334.764        0.201        0.130       30.480       13.656        0.201      343.466       19.596      858.413
08/23/2013  23:02:00       24.088       -8.014        2.504       19.813       22.878       29.319      392.551      523.408      859.629        0.121        0.089       25.386       19.658        0.600      343.633       19.883      858.415
08/23/2013  23:03:00       15.602       11.997      -28.147       13.076       15.638       11.140      170.975      244.538      124.104        0.086        0.027       19.681        7.845        0.159      344.032       20.563      858.426
08/23/2013  23:04:00      -18.276       13.083        0.666       11.186        9.186       17.616      125.134       84.386      310.339        0.051        0.026       22.476        8.673        0.149      343.915       20.364      858.457
08/23/2013  23:05:00       22.321        2.248       11.905       21.611       14.725       18.100      467.042      216.836      327.610        0.083        0.051       22.434        8.091        0.130      343.220       19.178      858.465
08/23/2013  23:06:00       71.361       29.005       11.873       25.868       38.413       34.947      669.168     1475.548     1221.271        0.472        0.168       77.031       25.991        0.114      343.315       19.340      858.458
08/23/2013  23:07:00       60.194       69.285       43.984       48.891       30.195       35.405     2390.291      911.730     1253.496        0.746        0.228       91.781       24.200        0.070      343.410       19.502      858.462
08/23/2013  23:08:00       13.590       47.484       52.496       25.227       27.802       15.527      636.390      772.957      241.088        0.342        0.083       49.390        8.299        0.028      343.457       19.581      858.464
08/23/2013  23:09:00        2.333        6.514       38.831       13.317       27.940       16.975      177.346      780.635      288.150        0.140        0.062        6.920       17.995        6.763      343.383       19.456      858.484
08/23/2013  23:10:00      -13.352      -18.864        8.120        9.213       15.617        9.779       84.887      243.889       95.621        0.051        0.021       23.111        6.873        0.088      343.333       19.371      858.489
08/23/2013  23:11:00      -14.271      -22.126        9.695       11.898        8.166        9.334      141.563       66.686       87.132        0.054        0.015       26.329        4.214        0.026      343.188       19.123      858.485
08/23/2013  23:12:00       27.134      -15.147        5.280       24.738       19.141       14.457      611.954      366.384      209.019        0.109        0.059       31.076        9.310        0.090      343.199       19.141      858.483
08/23/2013  23:13:00       76.986        1.704        7.799       27.654       41.261       24.385      764.728     1702.476      594.644        0.453        0.153       77.005       17.561        0.052      343.053       18.893      858.469
08/23/2013  23:14:00       85.098       29.935       12.388       29.939       24.290       27.088      896.353      589.991      733.761        0.526        0.111       90.209       12.036        0.018      343.325       19.356      858.453
08/23/2013  23:15:00       25.896       38.066        4.861       41.349       32.199       19.251     1709.719     1036.781      370.615        0.263        0.156       46.039       10.238        0.049      343.311       19.333      858.452
08/23/2013  23:16:00      -12.905        7.630        6.219        8.697       10.239        6.950       75.632      104.834       48.297        0.025        0.011       14.992        3.759        0.063      343.245       19.221      858.470
08/23/2013  23:17:00       -1.536       -5.727      -16.120       13.270       17.608       15.665      176.086      310.038      245.406        0.051        0.037        5.930       13.033        4.831      343.374       19.442      858.466
08/23/2013  23:18:00       48.270        8.590        2.229       23.765       20.762       17.149      564.773      431.044      294.095        0.185        0.064       49.029        9.669        0.039      343.706       20.007      858.462
08/23/2013  23:19:00      -40.453       -1.660       -0.034       32.056       10.710       13.330     1027.570      114.709      177.694        0.148        0.066       40.487       18.067        0.199      343.430       19.538      858.481
08/23/2013  23:20:00        1.478       38.530       13.158       55.710       22.181       37.283     3103.552      491.987     1390.059        0.332        0.249       38.558       41.592        1.164      343.306       19.325      858.482
08/23/2013  23:21:00       83.715       64.360       14.855       34.995       30.976       24.071     1224.634      959.524      579.401        0.707        0.138      105.596       17.594        0.028      343.608       19.839      858.450
08/23/2013  23:22:00      -23.257      -31.154      -11.627       27.894       28.154        9.374      778.075      792.648       87.866        0.165        0.083       38.878       13.798        0.126      343.464       19.594      858.474
08/23/2013  23:23:00      -31.246      -54.284      -12.730       18.665       13.632       10.385      348.400      185.837      107.844        0.236        0.032       62.634        8.241        0.017      343.710       20.013      858.480
08/23/2013  23:24:00       79.596      -26.734       11.039       42.588       25.046       22.729     1813.720      627.303      516.588        0.506        0.148       83.966       24.650        0.086      344.045       20.585      858.483
08/23/2013  23:25:00       73.327      -44.440       10.663       37.635       50.375       30.917     1416.406     2537.689      955.877        0.619        0.245       85.742       21.128        0.061      343.485       19.632      858.449
08/23/2013  23:26:00       -5.728       27.165       -0.314       25.556       27.253       11.765      653.085      742.713      138.416        0.115        0.077       27.762        8.374        0.091      343.924       20.379      858.461
08/23/2013  23:27:00       -3.175       18.587       14.589       41.769       39.092       22.732     1744.661     1528.214      516.758        0.218        0.189       18.856       27.720        2.161      343.955       20.431      858.486
08/23/2013  23:28:00       -1.623       31.412        8.993       50.050       35.043       31.596     2505.022     1228.022      998.285        0.290        0.237       31.453       18.661        0.352      343.466       19.598      858.484
08/23/2013  23:29:00       24.241       41.565        5.238       33.287       22.476       18.634     1108.056      505.164      347.233        0.215        0.098       48.117        9.819        0.042      343.522       19.692      858.476
08/23/2013  23:30:00       56.061       10.514        6.408       20.553       35.868       19.910      422.436     1286.512      396.400        0.270        0.105       57.038       16.785        0.087      343.287       19.293      858.485
08/23/2013  23:31:00       37.781       -8.987        5.424       23.235       26.587       20.593      539.870      706.859      424.054        0.160        0.084       38.835       11.626        0.090      343.137       19.036      858.508
08/23/2013  23:32:00       -2.484        7.786       19.100       12.591       17.330       12.484      158.528      300.334      155.858        0.052        0.031        8.172        9.044        1.225      343.081       18.941      858.520
08/23/2013  23:33:00       37.521       11.974       18.851       24.848       16.234       13.158      617.442      263.544      173.124        0.148        0.053       39.385        9.807        0.062      343.099       18.973      858.528
08/23/2013  23:34:00       52.689       19.660        5.333       24.226       27.379       27.074      586.915      749.585      732.997        0.263        0.103       56.237       15.259        0.074      342.895       18.625      858.537
08/23/2013  23:35:00       56.339      -11.543       -0.992       19.584       17.782       24.099      383.535      316.215      580.746        0.229        0.064       57.509        6.314        0.012      343.174       19.100      858.533
08/23/2013  23:36:00       41.859       -4.880        2.780       13.232       14.375       22.550      175.097      206.644      508.523        0.134        0.045       42.143        8.901        0.045      343.244       19.220      858.522
08/23/2013  23:37:00       37.246       -8.142        6.717       20.477       22.008       18.558      419.313      484.336      344.402        0.137        0.062       38.125       13.425        0.124      343.094       18.965      858.525
08/23/2013  23:38:00        4.952      -33.060       -1.042       26.580       22.635       19.946      706.506      512.357      397.846        0.137        0.081       33.429       15.332        0.210      343.413       19.507      858.528
08/23/2013  23:39:00      -85.954        4.318       -8.268       33.184       17.419       11.864     1101.200      303.408      140.766        0.451        0.077       86.062       12.549        0.021      343.512       19.675      858.525
08/23/2013  23:40:00      -72.138        8.843      -13.009       22.296       10.516        7.370      497.095      110.585       54.315        0.306        0.033       72.678        8.350        0.013      343.506       19.666      858.525
08/23/2013  23:41:00      -26.771       31.112       -6.191       20.137       22.354        7.193      405.481      499.685       51.738        0.134        0.048       41.044        5.820        0.020      343.769       20.113      858.512
08/23/2013  23:42:00       26.790       48.477        3.744       17.198       24.757       15.590      295.762      612.906      243.035        0.212        0.058       55.387       14.440        0.068      343.629       19.875      858.498
08/23/2013  23:43:00      -17.699       93.940      -13.068       33.401       37.061        9.048     1115.643     1373.485       81.869        0.594        0.129       95.593       10.426        0.012      343.864       20.275      858.499
08/23/2013  23:44:00      -57.224       45.211       -5.812       29.841       23.514       15.735      890.480      552.909      247.580        0.352        0.085       72.929       10.103        0.019      343.591       19.810      858.500
08/23/2013  23:45:00      -82.089       36.192       -7.257       35.072       22.828       23.724     1230.044      521.140      562.839        0.521        0.116       89.713       19.991        0.050      343.619       19.858      858.491
08/23/2013  23:46:00      -72.567       -2.673      -10.113       21.953       24.175       13.920      481.935      584.421      193.758        0.332        0.063       72.616       11.284        0.024      343.533       19.712      858.493
08/23/2013  23:47:00      -53.116      -10.511        1.383       25.359       17.646       16.715      643.101      311.369      279.401        0.208        0.062       54.146       16.456        0.092      343.527       19.702      858.504
08/23/2013  23:48:00        9.173       -1.790       11.722       19.471       16.981       16.952      379.120      288.371      287.356        0.059        0.048        9.346       11.972        1.641      343.101       18.976      858.487
08/23/2013  23:49:00       31.449      -43.102       23.392       29.586       34.586       16.757      875.343     1196.171      280.807        0.287        0.118       53.356       15.672        0.086      343.245       19.221      858.478
08/23/2013  23:50:00      -52.751      -22.973        7.900       50.056       25.667       18.247     2505.616      658.799      332.966        0.343        0.175       57.536       21.484        0.139      343.442       19.556      858.488
08/23/2013  23:51:00      -25.107        6.330        1.962       21.160       13.073       10.578      447.746      170.903      111.895        0.070        0.037       25.893        7.124        0.076      343.349       19.399      858.487
08/23/2013  23:52:00       -2.818        0.752        9.036       24.775       23.083       15.443      613.800      532.831      238.493        0.074        0.069        2.917       14.310       24.071      342.908       18.647      858.482
08/23/2013  23:53:00      -37.400        4.522       -3.046       24.897       23.918       11.338      619.884      572.089      128.548        0.137        0.066       37.672        7.493        0.040      343.246       19.221      858.490
08/23/2013  23:54:00       14.088      -18.275       -2.886       44.242       16.595       13.932     1957.337      275.403      194.101        0.148        0.121       23.075        8.438        0.134      343.076       18.937      858.494
08/23/2013  23:55:00       40.674       -4.469       23.896       18.410       31.055       16.211      338.920      964.394      262.795        0.191        0.078       40.919       11.834        0.084      342.804       18.471      858.492
08/23/2013  23:56:00       31.763        8.531       22.530       19.038       27.680       25.119      362.453      766.172      630.980        0.167        0.088       32.889       20.412        0.385      342.593       18.111      858.486
08/23/2013  23:57:00       30.836      -25.799       -2.879       18.976       21.947       12.703      360.089      481.665      161.354        0.131        0.050       40.204       10.308        0.066      342.950       18.719      858.500
08/23/2013  23:58:00       47.387       -1.157       -3.585       21.998       21.393       18.225      483.924      457.678      332.148        0.177        0.064       47.401        6.539        0.019      342.833       18.519      858.501
08/23/2013  23:59:00       28.253        1.193       -1.833       18.347       21.772       21.557      336.598      474.023      464.708        0.104        0.064       28.278       14.486        0.262      342.831       18.516      858.494
